[[{"header":{"parameterUnit":"m.s-1","parameterCategory":1,"la1":30.6,"la2":29.2853,"lo1":-89.7004,"lo2":-87.6739,"dy":0.0162,"dx":0.0183,"nx":112,"ny":82,"refTime":"2023-11-02T00:00:00:Z","depth":0,"parameterNumber":2,"parameterNumberName":"U-component_of_WINDS"},"data":[0.0,0.0,0.0,0.0,0.0,0.0,0.0,0.0,0.0,0.0,0.0,0.0,0.0,0.0,0.0,0.0,0.0,0.0,0.0,0.0,0.0,0.0,0.0,0.0,0.0,0.0,0.0,0.0,0.0,0.0,0.0,0.0,0.0,0.0,0.0,0.0,0.0,0.0,0.0,0.0,0.0,0.0,0.0,0.0,0.0,0.0,0.0,0.0,0.0,0.0,0.0,0.0,0.0,0.0,0.0,0.0,0.0,0.0,0.0,0.0,0.0,0.0,0.0,0.0,0.0,0.0,0.0,0.0,0.0,0.0,0.0,0.0,0.0,0.0,0.0,0.0,0.0,0.0,0.0,0.0,0.0,0.0,0.0,0.0,0.0,0.0,0.0,0.0,0.0,0.0,2.1475,2.3033,2.3786,2.419,2.419,2.3528,2.307,2.2997,0.0,0.0,0.0,0.0,0.0,0.0,0.0,0.0,0.0,0.0,0.0,0.0,0.0,0.0,0.0,0.0,0.0,0.0,0.0,0.0,0.0,0.0,0.0,0.0,0.0,0.0,0.0,0.0,0.0,0.0,0.0,0.0,0.0,0.0,0.0,0.0,0.0,0.0,0.0,0.0,0.0,0.0,0.0,0.0,0.0,0.0,0.0,0.0,0.0,0.0,0.0,0.0,0.0,0.0,0.0,0.0,0.0,0.0,0.0,0.0,0.0,0.0,0.0,0.0,0.0,0.0,0.0,0.0,0.0,0.0,0.0,0.0,0.0,0.0,0.0,0.0,0.0,0.0,0.0,0.0,0.0,0.0,0.0,0.0,0.0,0.0,0.0,0.0,0.0,0.0,0.0,0.0,0.0,0.0,0.0,0.0,0.0,0.0,0.0,0.0,0.0,0.0,0.0,0.0,2.2978,2.3914,2.4135,2.419,2.419,2.3828,2.3424,2.3033,0.0,0.0,0.0,0.0,0.0,0.0,0.0,0.0,0.0,0.0,0.0,0.0,0.0,0.0,0.0,0.0,0.0,0.0,0.0,0.0,0.0,0.0,0.0,0.0,0.0,0.0,0.0,0.0,0.0,0.0,0.0,0.0,0.0,0.0,0.0,0.0,0.0,0.0,0.0,0.0,0.0,0.0,0.0,0.0,0.0,0.0,0.0,0.0,0.0,0.0,0.0,0.0,0.0,0.0,0.0,0.0,0.0,0.0,0.0,0.0,0.0,0.0,0.0,0.0,0.0,0.0,0.0,0.0,0.0,0.0,0.0,0.0,0.0,0.0,0.0,0.0,0.0,0.0,0.0,0.0,0.0,0.0,0.0,0.0,0.0,0.0,0.0,0.0,0.0,0.0,0.0,0.0,0.0,0.0,0.0,0.0,0.0,0.0,0.0,0.0,0.0,0.0,0.0,2.2959,2.3786,2.4153,2.4054,2.3996,2.417,2.3714,2.3487,2.3657,2.2808,0.0,0.0,0.0,0.0,0.0,0.0,0.0,0.0,0.0,0.0,0.0,0.0,0.0,0.0,0.0,0.0,0.0,0.0,0.0,0.0,0.0,0.0,0.0,0.0,0.0,0.0,0.0,0.0,0.0,0.0,0.0,0.0,0.0,0.0,0.0,0.0,0.0,0.0,0.0,0.0,0.0,0.0,0.0,0.0,0.0,0.0,0.0,0.0,0.0,0.0,0.0,0.0,0.0,0.0,0.0,0.0,0.0,0.0,0.0,0.0,0.0,0.0,0.0,0.0,0.0,0.0,0.0,0.0,0.0,0.0,0.0,0.0,0.0,0.0,0.0,0.0,0.0,0.0,0.0,0.0,0.0,0.0,0.0,0.0,0.0,0.0,0.0,0.0,0.0,0.0,0.0,0.0,0.0,0.0,0.0,0.0,0.0,0.0,0.0,0.0,0.0,0.0,2.3823,2.419,2.419,2.3976,2.3917,2.417,2.3588,2.3437,2.4036,2.3437,0.0,0.0,0.0,0.0,0.0,0.0,0.0,0.0,0.0,0.0,0.0,0.0,0.0,0.0,0.0,0.0,0.0,0.0,0.0,0.0,0.0,0.0,0.0,0.0,0.0,0.0,0.0,0.0,0.0,0.0,0.0,0.0,0.0,0.0,0.0,0.0,0.0,0.0,0.0,0.0,0.0,0.0,0.0,0.0,0.0,0.0,0.0,0.0,0.0,0.0,0.0,0.0,0.0,0.0,0.0,0.0,0.0,0.0,0.0,0.0,0.0,0.0,0.0,0.0,0.0,0.0,0.0,0.0,0.0,0.0,0.0,0.0,0.0,0.0,0.0,0.0,0.0,0.0,0.0,0.0,0.0,0.0,0.0,0.0,0.0,0.0,0.0,0.0,0.0,0.0,0.0,0.0,0.0,0.0,0.0,0.0,0.0,0.0,0.0,0.0,0.0,0.0,2.4171,2.419,2.419,2.417,2.417,2.419,2.3588,2.3346,2.3714,2.3117,0.0,0.0,0.0,0.0,0.0,0.0,0.0,0.0,0.0,0.0,0.0,0.0,0.0,0.0,0.0,0.0,0.0,0.0,0.0,0.0,0.0,0.0,0.0,0.0,0.0,0.0,0.0,0.0,0.0,0.0,0.0,0.0,0.0,0.0,0.0,0.0,0.0,0.0,0.0,0.0,0.0,0.0,0.0,0.0,0.0,0.0,0.0,0.0,0.0,0.0,0.0,0.0,0.0,0.0,0.0,0.0,0.0,0.0,0.0,0.0,0.0,0.0,0.0,0.0,0.0,0.0,0.0,0.0,0.0,0.0,0.0,0.0,0.0,0.0,0.0,0.0,0.0,0.0,0.0,0.0,0.0,0.0,0.0,0.0,0.0,0.0,0.0,0.0,0.0,0.0,0.0,0.0,0.0,0.0,0.0,0.0,0.0,0.0,0.0,0.0,0.0,0.0,2.419,2.4392,2.4887,2.4308,2.4096,2.4584,2.3543,2.3021,2.3369,0.0,0.0,0.0,0.0,0.0,0.0,0.0,0.0,0.0,0.0,0.0,0.0,0.0,0.0,0.0,0.0,0.0,0.0,0.0,0.0,0.0,0.0,0.0,0.0,0.0,0.0,0.0,0.0,0.0,0.0,0.0,0.0,0.0,0.0,0.0,0.0,0.0,0.0,0.0,0.0,0.0,0.0,0.0,0.0,0.0,0.0,0.0,0.0,0.0,0.0,0.0,0.0,0.0,0.0,0.0,0.0,0.0,0.0,0.0,0.0,0.0,0.0,0.0,0.0,0.0,0.0,0.0,0.0,0.0,0.0,0.0,0.0,0.0,0.0,0.0,0.0,0.0,0.0,0.0,0.0,0.0,0.0,0.0,0.0,0.0,0.0,0.0,0.0,0.0,0.0,0.0,0.0,0.0,0.0,0.0,0.0,0.0,0.0,0.0,0.0,0.0,0.0,2.419,2.419,2.4463,2.515,2.4523,2.4222,2.4669,2.3706,2.3076,2.3038,0.0,0.0,0.0,0.0,0.0,0.0,0.0,0.0,0.0,0.0,0.0,0.0,0.0,0.0,0.0,0.0,0.0,0.0,0.0,0.0,0.0,0.0,0.0,0.0,0.0,0.0,0.0,0.0,0.0,0.0,0.0,0.0,0.0,0.0,0.0,0.0,0.0,0.0,0.0,0.0,0.0,0.0,0.0,0.0,0.0,0.0,0.0,0.0,0.0,0.0,0.0,0.0,0.0,0.0,0.0,0.0,0.0,0.0,0.0,0.0,0.0,0.0,0.0,0.0,0.0,0.0,0.0,0.0,0.0,0.0,0.0,0.0,0.0,0.0,0.0,0.0,0.0,0.0,0.0,0.0,0.0,0.0,0.0,0.0,0.0,0.0,0.0,0.0,0.0,0.0,0.0,0.0,0.0,0.0,0.0,0.0,0.0,0.0,0.0,0.0,0.0,0.0,2.419,2.4208,2.4365,2.4766,2.481,2.4676,2.4325,2.4051,2.3552,0.0,0.0,0.0,0.0,0.0,0.0,0.0,0.0,0.0,0.0,0.0,0.0,0.0,0.0,0.0,0.0,0.0,0.0,0.0,0.0,0.0,0.0,0.0,0.0,0.0,0.0,0.0,0.0,0.0,0.0,0.0,0.0,0.0,0.0,0.0,0.0,0.0,0.0,0.0,0.0,0.0,0.0,0.0,0.0,0.0,0.0,0.0,0.0,0.0,0.0,0.0,0.0,0.0,0.0,0.0,0.0,0.0,0.0,0.0,0.0,0.0,0.0,0.0,0.0,0.0,0.0,0.0,0.0,0.0,0.0,0.0,0.0,0.0,0.0,0.0,0.0,0.0,0.0,0.0,0.0,0.0,0.0,0.0,0.0,0.0,0.0,0.0,0.0,0.0,0.0,0.0,0.0,0.0,0.0,0.0,0.0,0.0,0.0,0.0,0.0,0.0,0.0,0.0,2.3876,2.4284,2.4784,2.5251,2.5283,2.5173,2.4908,2.4274,2.346,2.2477,0.0,0.0,0.0,0.0,0.0,0.0,0.0,0.0,0.0,0.0,0.0,0.0,0.0,0.0,0.0,0.0,0.0,0.0,0.0,0.0,0.0,0.0,0.0,0.0,0.0,0.0,0.0,0.0,0.0,0.0,0.0,0.0,0.0,0.0,0.0,0.0,0.0,0.0,0.0,0.0,0.0,0.0,0.0,0.0,0.0,0.0,0.0,0.0,0.0,0.0,0.0,0.0,0.0,0.0,0.0,0.0,0.0,0.0,0.0,0.0,0.0,0.0,0.0,0.0,0.0,0.0,0.0,0.0,0.0,0.0,0.0,0.0,0.0,0.0,0.0,0.0,0.0,0.0,0.0,0.0,0.0,0.0,0.0,0.0,0.0,0.0,0.0,0.0,0.0,0.0,0.0,0.0,0.0,0.0,0.0,0.0,0.0,0.0,0.0,0.0,0.0,0.0,2.4125,2.4418,2.4899,2.5665,2.5722,2.5599,2.5326,2.4579,2.3727,2.2784,0.0,0.0,0.0,0.0,0.0,0.0,0.0,0.0,0.0,0.0,0.0,0.0,0.0,0.0,0.0,0.0,0.0,0.0,0.0,0.0,0.0,0.0,0.0,0.0,0.0,0.0,0.0,0.0,0.0,0.0,0.0,0.0,0.0,0.0,0.0,0.0,0.0,0.0,0.0,0.0,0.0,0.0,0.0,0.0,0.0,0.0,0.0,0.0,0.0,0.0,0.0,0.0,0.0,0.0,0.0,0.0,0.0,0.0,0.0,0.0,0.0,0.0,0.0,0.0,0.0,0.0,0.0,0.0,0.0,0.0,0.0,0.0,0.0,0.0,0.0,0.0,0.0,0.0,0.0,0.0,0.0,0.0,0.0,0.0,0.0,0.0,0.0,0.0,0.0,0.0,0.0,0.0,0.0,0.0,0.0,0.0,0.0,0.0,0.0,0.0,0.0,0.0,2.4741,2.4626,2.4874,2.5949,2.6096,2.599,2.5641,2.4983,2.4272,2.3545,0.0,0.0,0.0,0.0,0.0,0.0,0.0,0.0,0.0,0.0,0.0,0.0,0.0,0.0,0.0,0.0,0.0,0.0,0.0,0.0,0.0,0.0,0.0,0.0,0.0,0.0,0.0,0.0,0.0,0.0,0.0,0.0,0.0,0.0,0.0,0.0,0.0,0.0,0.0,0.0,0.0,0.0,0.0,0.0,0.0,0.0,0.0,0.0,0.0,0.0,0.0,0.0,0.0,0.0,0.0,0.0,0.0,0.0,0.0,0.0,2.2912,2.2452,0.0,0.0,0.0,0.0,0.0,0.0,0.0,0.0,0.0,0.0,0.0,0.0,0.0,0.0,0.0,0.0,0.0,0.0,0.0,0.0,0.0,0.0,0.0,0.0,0.0,0.0,0.0,0.0,0.0,0.0,0.0,0.0,0.0,0.0,0.0,0.0,0.0,0.0,0.0,0.0,2.4978,2.5397,2.5695,2.5717,2.6247,2.6316,2.5659,2.5456,2.505,2.432,2.4133,0.0,0.0,0.0,0.0,0.0,0.0,0.0,0.0,0.0,0.0,0.0,0.0,0.0,0.0,0.0,0.0,0.0,0.0,0.0,0.0,0.0,0.0,0.0,0.0,0.0,0.0,0.0,0.0,0.0,0.0,0.0,0.0,0.0,0.0,0.0,0.0,0.0,0.0,0.0,0.0,0.0,0.0,0.0,0.0,0.0,0.0,0.0,0.0,0.0,0.0,0.0,0.0,0.0,0.0,0.0,0.0,0.0,0.0,0.0,2.4162,2.3483,0.0,0.0,0.0,0.0,0.0,0.0,0.0,0.0,0.0,0.0,0.0,0.0,0.0,0.0,0.0,0.0,0.0,0.0,0.0,0.0,0.0,0.0,0.0,0.0,0.0,0.0,0.0,0.0,0.0,0.0,0.0,0.0,0.0,0.0,0.0,0.0,0.0,0.0,0.0,0.0,2.5507,2.5712,2.5919,2.6115,2.6471,2.6539,2.6167,2.5812,2.5439,2.505,2.4709,0.0,0.0,0.0,0.0,0.0,0.0,0.0,0.0,0.0,0.0,0.0,0.0,0.0,0.0,0.0,0.0,0.0,0.0,0.0,0.0,0.0,0.0,0.0,0.0,0.0,0.0,0.0,0.0,0.0,0.0,0.0,0.0,0.0,0.0,0.0,0.0,0.0,0.0,0.0,0.0,0.0,0.0,0.0,0.0,0.0,0.0,0.0,0.0,0.0,0.0,0.0,0.0,0.0,2.5812,2.6099,2.6137,2.6776,2.7007,2.6786,2.5621,2.5022,2.487,2.4936,0.0,0.0,0.0,0.0,0.0,0.0,0.0,0.0,0.0,0.0,0.0,0.0,0.0,0.0,0.0,0.0,0.0,0.0,0.0,0.0,0.0,0.0,2.5354,2.5805,2.5689,2.5224,2.4152,0.0,0.0,0.0,0.0,0.0,0.0,0.0,0.0,0.0,0.0,0.0,2.6134,2.597,2.6031,2.6623,2.6691,2.6691,2.6691,2.615,2.5795,2.5795,2.5203,2.4864,0.0,0.0,0.0,0.0,0.0,0.0,0.0,0.0,0.0,0.0,0.0,0.0,0.0,0.0,0.0,0.0,0.0,0.0,0.0,0.0,0.0,0.0,0.0,0.0,0.0,0.0,0.0,0.0,0.0,0.0,0.0,0.0,2.1723,2.2555,0.0,0.0,0.0,0.0,0.0,0.0,0.0,0.0,0.0,0.0,0.0,0.0,0.0,2.5139,2.571,2.5618,2.5928,2.6618,2.6558,2.6532,2.6532,2.6643,2.6659,2.6618,2.6438,0.0,2.627,2.5801,0.0,0.0,0.0,0.0,0.0,0.0,0.0,0.0,0.0,0.0,0.0,0.0,0.0,0.0,0.0,0.0,0.0,0.0,0.0,0.0,0.0,0.0,2.5841,2.562,2.5526,2.5394,2.4941,2.5077,2.5422,2.5781,2.5672,2.5506,0.0,0.0,0.0,0.0,0.0,0.0,2.6605,2.6572,2.659,2.6674,2.6691,2.6691,2.6691,2.6607,2.6539,2.6539,2.6454,2.6404,2.6404,2.6404,0.0,0.0,0.0,0.0,0.0,0.0,0.0,0.0,0.0,0.0,0.0,0.0,0.0,0.0,0.0,0.0,0.0,0.0,0.0,0.0,0.0,0.0,0.0,0.0,0.0,0.0,0.0,0.0,0.0,2.2176,2.259,2.2958,2.3388,2.3688,0.0,0.0,0.0,0.0,0.0,0.0,0.0,0.0,0.0,2.5691,2.5943,2.6207,2.65,2.6302,2.639,2.674,2.7096,2.7273,2.7291,2.775,2.7821,2.7604,2.7604,2.7508,2.727,2.6518,2.6068,2.585,0.0,0.0,0.0,0.0,2.5462,2.55,2.5727,2.5746,2.5669,2.5669,0.0,0.0,0.0,0.0,0.0,0.0,0.0,2.6281,2.6489,2.6286,2.6131,2.6428,2.6328,2.6195,2.6286,2.6208,2.6177,2.6124,2.6153,2.6239,2.6463,2.6666,0.0,0.0,0.0,2.6691,2.6691,2.6691,2.6691,2.6691,2.6691,2.6691,2.6691,2.6691,2.6691,2.6691,2.6691,2.6691,2.6691,2.6691,2.6539,0.0,0.0,0.0,0.0,0.0,0.0,0.0,0.0,0.0,0.0,0.0,0.0,0.0,0.0,0.0,0.0,0.0,0.0,0.0,0.0,0.0,0.0,0.0,0.0,0.0,0.0,0.0,0.0,2.3356,2.3437,2.3571,2.412,2.4495,0.0,0.0,0.0,0.0,0.0,0.0,2.5847,2.6294,2.6483,2.6384,2.6723,2.6972,2.7117,2.6972,2.7016,2.7236,2.7824,2.8054,2.7967,2.8565,2.8742,2.8533,2.8335,2.8182,2.7959,2.7024,2.6447,2.6175,2.596,2.5919,2.5991,2.5991,2.6056,2.6191,2.6508,2.6612,2.6612,2.6612,2.6612,2.6612,2.6612,0.0,0.0,0.0,0.0,2.6548,2.6806,2.6632,2.6519,2.7009,2.6939,2.6791,2.7083,2.6906,2.6655,2.6515,2.6591,2.6795,2.7075,2.7147,0.0,2.6758,2.6691,2.6691,2.6691,2.6691,2.6691,2.6691,2.6691,2.6691,2.6691,2.6691,2.6691,2.6691,2.6691,2.6691,2.6691,2.6691,2.6691,2.6691,0.0,0.0,0.0,0.0,0.0,0.0,0.0,0.0,0.0,0.0,0.0,0.0,0.0,0.0,0.0,0.0,0.0,0.0,0.0,0.0,0.0,0.0,0.0,0.0,0.0,0.0,0.0,0.0,0.0,2.5101,2.5226,0.0,0.0,0.0,0.0,2.6572,2.6572,2.6787,2.7363,2.7426,2.7275,2.6879,2.6898,2.7191,2.7754,2.7754,2.8117,2.8865,2.892,2.8742,2.8366,2.8428,2.8631,2.8924,2.8244,2.8099,2.8305,2.7162,2.6666,2.6596,2.5809,2.5714,2.5991,2.5991,2.6254,2.6573,2.6573,2.6612,2.6612,2.6612,2.6612,2.6612,2.6612,2.6872,0.0,0.0,2.7459,2.7717,2.7339,2.7234,2.7158,2.6808,2.6725,2.6691,2.6725,2.6725,2.6808,2.7189,2.6935,2.6724,2.6725,0.0,2.6725,2.6691,2.6691,2.6691,2.6691,2.6691,2.6691,2.6691,2.6691,2.6691,2.6691,2.6691,2.6691,2.6691,2.6691,2.6691,2.6691,2.6691,2.6691,2.6691,2.6691,0.0,0.0,0.0,0.0,0.0,0.0,0.0,0.0,0.0,0.0,0.0,0.0,0.0,0.0,0.0,0.0,0.0,0.0,0.0,0.0,0.0,0.0,0.0,0.0,0.0,0.0,0.0,0.0,2.6101,2.6149,0.0,2.6948,2.6986,2.7039,2.7191,2.7191,2.7216,2.7301,2.7667,2.7828,2.7679,2.8056,2.8353,2.8576,2.8576,2.8723,2.8994,2.9271,2.9311,2.9179,2.9415,2.9417,2.9318,2.9057,2.8866,2.8749,2.8356,2.7742,2.7051,2.6772,2.688,2.721,2.721,2.7464,2.7803,2.8045,2.8132,2.8091,2.7827,2.7755,2.7731,2.7507,2.7531,2.7593,2.7324,2.7391,2.7531,2.7603,2.764,2.7743,2.808,2.8163,2.8163,2.8163,2.7774,2.7453,2.7606,2.7114,2.6691,2.6691,2.6691,2.6691,2.6691,2.6691,2.6691,2.6691,2.6691,2.6691,2.6691,2.6691,2.6691,2.6691,2.6691,2.6691,2.6691,2.6691,2.6691,2.6691,2.6691,2.6691,2.6691,2.6691,2.6691,0.0,0.0,0.0,0.0,0.0,0.0,0.0,0.0,0.0,0.0,0.0,0.0,0.0,0.0,0.0,0.0,0.0,0.0,0.0,0.0,0.0,0.0,0.0,0.0,0.0,2.5717,2.6033,2.6591,2.689,2.7274,2.7832,2.7827,2.7802,2.7935,2.7852,2.7831,2.7938,2.8315,2.8494,2.8413,2.8795,2.8994,2.8994,2.925,2.9402,2.9397,2.9816,2.9934,2.9822,3.0029,2.9977,2.9694,2.9575,2.9471,2.9347,2.9093,2.8543,2.7856,2.7856,2.8115,2.8421,2.8421,2.8687,2.9026,2.9276,2.9373,2.9329,2.9053,2.8953,2.8925,2.8705,2.8558,2.839,2.8129,2.7937,2.7928,2.8149,2.8213,2.8349,2.8856,2.9011,2.9011,2.9011,2.8569,2.8213,2.8213,2.7385,2.6691,2.6691,2.6691,2.6691,2.6691,2.6691,2.6691,2.6691,2.6691,2.6691,2.6691,2.6691,2.6691,2.6691,2.6691,2.6691,2.6691,2.6691,2.6691,2.6691,2.6691,2.6691,2.6691,2.6691,2.6691,2.6691,0.0,0.0,0.0,0.0,0.0,0.0,0.0,0.0,0.0,0.0,0.0,0.0,0.0,0.0,0.0,0.0,0.0,0.0,0.0,0.0,0.0,0.0,0.0,2.5553,2.6187,2.6726,2.6678,2.7409,2.7948,2.7967,2.7739,2.7908,2.8746,2.8585,2.8706,2.9357,2.9392,2.9267,2.9017,2.9012,2.903,2.903,2.9843,3.0204,3.0198,3.0622,3.0599,3.0203,3.0238,3.0193,3.0129,2.9782,2.9814,3.0091,2.9347,2.9096,2.9042,2.9045,2.9211,2.9488,2.9488,2.9754,3.0106,3.0106,3.0106,3.0106,3.0074,3.0074,3.0074,3.0074,2.9787,2.9488,2.9488,2.9229,2.9028,2.9008,2.9008,2.9025,2.9042,2.9096,2.9096,2.9096,2.9025,2.9008,2.9008,2.7791,2.6759,2.6725,2.6725,2.6725,2.6691,2.6691,0.0,2.6691,2.6691,2.6691,2.6691,2.6691,2.6691,2.6691,2.6691,2.6691,2.6691,2.6691,2.6691,2.6691,2.6691,2.6691,2.6691,2.6691,2.6691,2.6691,0.0,0.0,0.0,0.0,0.0,0.0,0.0,0.0,0.0,0.0,0.0,0.0,0.0,0.0,0.0,0.0,0.0,0.0,0.0,0.0,0.0,2.6572,2.6629,2.6379,2.7052,2.7775,2.8352,2.8621,2.8941,2.939,2.936,2.9289,2.9251,2.9176,2.9132,2.9115,2.9112,2.9067,2.9017,2.9586,2.9741,2.9445,3.0527,3.0737,3.0136,3.0813,3.0935,3.0524,3.0779,3.0933,3.0886,3.0802,3.0798,3.0886,3.0666,3.0581,3.048,2.9397,2.9211,2.9488,2.9488,2.9754,3.0106,3.0106,3.0106,3.0043,2.9754,2.9655,2.9622,2.9369,2.9228,2.9121,2.9121,2.9066,2.911,2.9651,2.9803,2.9922,3.0463,3.0581,3.0581,3.0581,3.0176,2.9803,2.9803,2.9008,2.818,2.7604,2.752,2.7334,2.6776,2.6691,2.6691,2.6691,2.6691,2.6691,2.6691,2.6691,2.6691,2.6691,2.6691,2.6691,2.6691,2.6691,2.6691,2.6691,2.6691,2.6691,2.6691,2.6691,2.6691,0.0,0.0,0.0,0.0,0.0,0.0,0.0,0.0,0.0,0.0,0.0,0.0,0.0,0.0,0.0,0.0,0.0,0.0,0.0,0.0,0.0,0.0,2.719,2.7585,2.7585,2.798,2.8452,2.8931,2.9199,2.9527,2.9975,2.9845,2.9643,2.9433,2.9289,2.9178,2.9017,2.9305,2.9441,2.9277,3.021,3.0418,2.9808,3.1021,3.1307,3.06,3.1228,3.1359,3.1095,3.1322,3.1351,3.119,3.1389,3.1351,3.119,3.119,3.119,3.1106,0.0,0.0,0.0,0.0,3.0368,3.0578,3.0578,3.0578,3.0543,3.0314,3.0206,3.017,2.9963,2.9905,2.9905,2.9905,2.9905,3.0006,3.0446,3.0565,3.0666,3.1089,3.119,3.119,3.119,3.0869,3.0565,3.0565,3.0209,0.0,2.8907,2.8518,2.8044,2.7283,2.7165,2.7046,2.6742,2.6691,2.6624,2.6436,2.6401,2.6401,2.6401,2.6401,0.0,0.0,0.0,2.6691,2.6691,2.6691,0.0,0.0,0.0,2.6691,2.6691,2.6691,0.0,0.0,2.6691,2.6691,0.0,0.0,0.0,0.0,0.0,0.0,0.0,0.0,0.0,0.0,0.0,0.0,0.0,0.0,0.0,0.0,2.8001,2.8817,2.8898,2.8888,2.8888,2.8903,2.9377,2.9746,2.9924,2.9607,2.9392,2.9351,2.9134,2.903,2.9122,2.9824,0.0,0.0,0.0,3.1057,3.0166,3.1428,3.1791,3.1278,3.1638,3.1789,3.1716,3.1716,3.1545,3.123,3.1565,3.1596,3.1309,3.1309,3.136,3.1427,3.1258,3.119,3.119,3.119,3.119,3.119,3.119,0.0,0.0,3.119,3.119,3.119,3.119,3.119,3.119,3.119,3.119,3.119,3.119,3.119,3.119,3.119,3.119,3.119,3.119,3.119,3.119,3.119,3.119,3.0987,3.0345,2.96,2.8839,2.8078,2.796,2.7637,2.6843,2.6742,2.6536,2.5977,2.5924,0.0,2.5997,2.6013,2.6191,2.6657,2.6691,2.6691,2.6624,2.6657,2.6691,2.6691,2.6691,2.6691,2.6691,2.6691,2.6691,2.6691,2.6691,2.6691,0.0,0.0,0.0,0.0,0.0,0.0,0.0,0.0,0.0,0.0,0.0,0.0,0.0,0.0,0.0,2.8544,2.874,2.8965,2.9458,2.94,2.9345,2.9502,2.9636,2.9643,2.9532,2.9454,2.931,2.9089,2.904,2.9292,2.9934,3.0118,3.0312,3.0576,3.1436,3.1446,3.0525,3.1767,3.2003,3.1206,3.1627,0.0,3.1329,3.1329,3.1252,3.119,3.1291,3.163,3.211,3.211,3.2425,3.2865,3.1664,3.119,3.119,3.119,3.119,3.119,3.119,3.119,3.119,3.119,3.119,3.119,3.119,3.119,0.0,3.119,3.119,3.119,3.119,3.119,3.119,3.119,3.119,3.119,3.119,3.119,3.119,3.119,3.119,3.114,3.1004,3.0378,2.9634,2.8873,2.8755,2.8359,2.7171,2.6998,2.6582,2.5476,2.5335,2.554,2.5961,2.6013,2.6191,2.6657,2.6691,2.6521,2.6156,2.6521,2.6691,2.6691,2.6691,2.6691,2.6691,2.6691,2.6691,2.6691,2.6691,2.6691,0.0,0.0,0.0,0.0,0.0,0.0,0.0,0.0,0.0,0.0,0.0,2.6869,2.7274,0.0,2.8645,2.89,2.9108,2.9326,2.9514,2.9353,2.9289,2.9514,2.9416,2.9355,2.9412,2.9267,2.9322,2.9586,2.9604,2.9953,3.076,3.0987,3.1102,3.1058,3.1826,3.1802,3.0905,3.1741,3.1842,3.119,3.1411,3.1372,3.119,3.119,3.119,3.1207,3.1579,3.1935,3.2307,3.2679,3.3068,3.3339,3.2594,3.207,3.1732,3.1732,3.1512,3.119,3.119,3.119,3.119,3.119,3.119,3.119,3.119,3.119,3.119,3.119,3.119,3.119,3.119,3.119,3.119,3.119,3.119,3.119,3.119,3.119,3.119,3.119,3.119,3.119,3.119,3.0633,2.9955,2.9204,2.8837,2.8296,2.7299,2.7162,2.6671,2.5447,2.5287,2.537,2.5572,2.5852,2.5997,2.5928,2.5928,2.5944,2.6013,2.598,2.6087,2.6332,2.6367,2.6367,2.6367,2.659,2.6691,2.6691,2.6691,2.6691,0.0,0.0,0.0,0.0,0.0,0.0,0.0,2.5755,2.5956,2.683,2.7099,2.7379,2.808,2.8799,2.9231,2.9055,2.938,2.9589,2.9414,2.9178,2.9067,2.9289,2.9134,2.9089,2.931,2.9134,2.9347,3.0136,3.0119,3.0497,3.1466,3.1753,3.1719,3.1399,3.2015,3.1986,3.119,3.1507,3.1507,3.119,3.119,3.119,3.119,3.119,3.119,3.1241,3.2121,3.2577,3.2763,3.3525,3.3846,3.3846,3.3846,3.3372,3.2696,3.2544,3.2036,3.141,3.141,3.1309,3.119,3.119,3.119,3.119,3.119,3.119,3.1224,3.136,3.141,3.1444,3.1579,3.163,3.163,3.163,3.163,3.1573,3.1453,3.1335,3.1177,3.1096,3.1019,3.0975,3.0878,3.0435,2.9969,2.9502,2.8887,2.8216,2.7359,2.7264,2.6781,2.5549,2.5444,2.5408,2.5259,2.5621,2.5615,2.5067,2.5144,2.5335,2.5689,2.5373,2.5411,2.5852,2.5852,2.5888,2.6013,2.6367,2.6539,2.6539,2.6539,2.6624,2.5525,2.5502,2.5457,2.5436,2.5428,2.5601,0.0,2.6486,2.6717,2.7601,2.8332,2.8852,2.8967,2.9481,2.9894,2.988,2.9622,2.9433,2.9412,2.9178,2.9017,2.904,2.9017,2.9017,2.9044,2.9017,2.9347,3.0136,2.9875,3.0324,3.1852,3.1594,3.1487,3.1741,3.1845,3.166,3.119,3.1252,3.1252,3.119,3.119,3.119,3.119,3.119,3.119,3.1275,3.2679,3.3643,3.4303,3.5064,3.5368,3.5368,3.5368,3.4912,3.4167,3.3525,3.2797,3.2195,3.2195,3.1732,3.119,3.119,3.119,3.119,3.119,3.119,3.1326,3.1968,3.2195,3.2307,3.2983,3.3152,3.3152,3.3152,3.3152,3.2967,3.237,3.1797,3.1188,3.061,3.0419,3.0208,2.9673,2.954,2.9641,3.011,2.9632,2.8844,2.7609,2.747,2.6995,2.5694,2.5588,2.5531,2.5397,2.5314,2.5067,2.4511,2.495,2.5012,2.4592,2.4973,2.5221,2.5297,2.5297,2.5524,2.6013,2.6049,2.6085,2.6085,2.6085,2.6297,2.5364,2.5446,2.5524,2.5428,2.5755,2.6197,2.6572,2.7024,2.7582,2.8429,2.8871,2.9256,2.9756,2.9947,2.9969,2.9845,2.9589,2.9351,2.92,2.9067,2.8994,2.8994,2.8797,2.8749,2.8994,2.8773,2.9185,3.0448,3.0176,3.0624,3.2224,3.1857,3.1655,3.1808,3.1565,3.1389,3.119,3.119,3.119,3.119,3.119,3.119,3.119,3.119,3.1664,3.2544,3.3592,3.4455,3.5165,3.5487,3.5622,3.5622,3.5622,3.5419,3.5064,3.4303,3.3575,3.2933,3.2933,3.2459,3.1901,3.2341,3.2188,3.1901,3.2341,3.2476,3.2544,3.2848,3.2933,3.3,3.3322,3.3406,3.3406,3.3406,3.3074,3.2857,3.2944,3.2175,3.1429,3.1537,3.0907,3.0287,3.0014,2.9357,2.895,2.9225,2.8717,2.8163,2.7646,2.7567,2.7213,2.6291,2.609,2.5925,2.5561,2.5768,2.5512,2.4587,2.4729,2.4698,2.4405,2.4307,2.443,2.4752,2.4736,2.4816,2.5067,2.5373,2.5713,2.6096,2.6096,2.6438,2.4986,2.523,2.5543,2.5697,2.6178,2.6736,2.7245,2.7813,2.8437,2.9178,2.9339,2.9531,3.0164,3.0032,2.9796,2.9695,2.9474,2.9225,2.904,2.8994,2.8994,2.8994,2.8658,2.8587,2.9126,2.8789,2.9133,3.0532,3.0424,3.0909,3.2246,3.1861,3.1623,3.1623,3.1351,3.119,3.119,3.119,3.119,3.119,3.1015,3.1055,3.1207,3.1393,3.2188,3.344,3.4184,3.4928,3.5577,3.5407,3.5407,3.5577,3.5424,3.5424,3.5554,3.5013,3.4336,3.3711,3.3711,3.322,3.2679,3.3237,3.3034,3.2696,3.3237,3.3406,3.344,3.3643,3.3711,3.3761,3.3964,3.4015,3.4015,3.4015,3.3484,3.3106,3.3395,3.2414,3.1561,3.1839,3.1086,3.0306,2.9973,2.9261,2.8647,2.8301,2.786,2.7625,2.7625,2.7625,2.738,2.6916,2.6623,2.6321,2.5931,2.6062,2.5788,2.4926,2.4896,2.4837,2.474,2.4353,2.4309,2.471,2.4725,2.4795,2.4963,2.5318,2.5805,2.6271,2.6271,2.6635,2.4624,2.5109,2.5678,2.639,2.6582,2.7024,2.8659,2.9044,2.9229,2.9846,2.9975,2.9975,3.0013,2.9678,2.9474,2.9661,2.9314,2.9017,2.8994,2.8994,2.8994,2.8994,2.8658,2.8701,2.9512,2.9216,2.9331,3.0145,3.0468,3.0941,3.1773,3.1449,3.123,3.123,3.119,3.119,3.119,3.119,3.119,3.119,3.0617,3.0617,3.1207,3.1918,3.2662,3.344,3.4184,3.4928,3.556,3.4894,3.4988,3.5532,3.4894,3.5052,3.5622,3.5588,3.5115,3.4455,3.4455,3.3981,3.3372,3.3406,3.3389,3.3372,3.3406,3.3406,3.3558,3.4269,3.4455,3.4624,3.5368,3.5554,3.5554,3.5554,3.5031,3.4365,3.3721,3.2562,3.1389,3.0684,3.0502,3.0104,2.8854,2.9098,2.9024,2.7801,2.761,2.7625,2.7625,2.7625,2.761,2.7595,2.6995,2.6606,2.6557,2.5974,2.56,2.5585,2.5585,2.557,2.554,2.5555,2.5555,2.554,2.554,2.5803,2.6315,2.6359,2.6359,2.639,2.639,2.6791,2.479,2.5718,2.6468,2.664,2.7505,2.8448,2.8967,2.9544,2.9978,2.9985,3.0136,3.0169,2.9845,2.9696,2.957,2.9513,2.9225,2.8994,2.8994,2.8994,2.8905,2.8615,2.8712,2.8805,2.8802,2.8683,2.9112,3.0366,3.0331,3.0605,3.1376,3.1252,3.119,3.119,3.119,3.1015,3.0617,3.0601,3.0393,2.9978,2.9805,3.0283,3.1349,3.2081,3.3048,3.4167,3.4912,3.5385,3.5577,3.5362,3.5407,3.5577,3.5362,3.5407,3.5622,3.5622,3.5453,3.5233,3.5233,3.4759,3.4201,3.4709,3.4539,3.4218,3.4726,3.4878,3.4928,3.5165,3.5233,3.5301,3.5554,3.5622,3.5622,3.5622,3.4752,3.3987,3.4235,3.2835,3.1617,3.1879,3.1165,3.0362,2.9948,2.9358,2.8595,2.773,2.7625,2.7625,2.7625,2.7625,2.7625,2.7625,2.743,2.7245,2.7245,2.7036,2.6722,2.6288,2.6258,2.6063,2.563,2.5615,2.5615,2.5615,2.5615,2.5693,2.5863,2.5863,2.609,2.6529,2.6529,2.6925,2.5167,2.6183,2.7006,2.7477,2.8404,2.9267,2.9506,2.9756,2.9862,2.9622,2.9448,2.9365,2.9387,2.9244,2.9214,2.9457,2.9206,2.8952,2.8815,2.8791,2.8633,2.8264,2.8552,2.8788,2.8778,2.8921,2.9385,3.0328,3.0462,3.0605,3.0845,3.1095,3.1095,3.0878,3.1095,3.1015,3.0617,3.0435,2.9892,2.9088,2.9526,3.0226,3.1116,3.2323,3.3473,3.4539,3.5301,3.5622,3.5577,3.5362,3.5362,3.5577,3.5362,3.5362,3.5622,3.5622,3.5622,3.5622,3.5622,3.5301,3.4979,3.547,3.5301,3.4979,3.547,3.5622,3.5622,3.5622,3.5622,3.5622,3.5622,3.5622,3.5515,3.5316,3.4592,3.3987,3.4186,3.3024,3.2007,3.2492,3.1642,3.0791,3.0552,2.9445,2.8368,2.773,2.7625,2.7625,2.7625,2.7625,2.7625,2.7625,2.7625,2.7625,2.7625,2.7625,2.7445,2.6961,2.6946,2.6752,2.6333,2.6303,2.6303,2.6303,2.6303,2.6303,2.6303,2.6303,2.6527,2.6946,2.6946,2.7171,2.5703,2.6501,2.7338,2.8825,2.9216,2.9437,3.0155,2.9687,2.9017,2.8782,2.8088,2.7769,2.8569,2.8342,2.839,2.9436,2.9219,2.8785,2.8446,2.8394,2.8264,2.7926,2.8233,2.871,2.9351,2.9819,3.0082,3.0082,3.0762,3.0878,3.0351,3.0838,3.0878,3.0293,3.0878,3.119,3.1112,3.051,2.9633,2.8525,2.9754,3.0479,3.0667,3.2602,3.3848,3.459,3.5256,3.556,3.5515,3.483,3.4988,3.547,3.4894,3.5052,3.5622,3.5622,3.5622,3.5622,3.5622,3.5622,3.5622,3.5622,3.5622,3.5622,3.5622,3.5622,3.5622,3.5622,3.5622,3.5622,3.5622,3.5622,3.5453,3.4783,3.4576,3.4382,3.3735,3.3093,3.2602,3.2547,3.1951,3.1315,3.0627,2.9475,2.8412,2.7724,2.764,2.7625,2.7625,2.7625,2.7625,2.7625,2.7625,2.7625,2.7625,2.7625,2.7625,2.7625,2.7625,2.7625,2.7625,2.7625,2.7625,2.7625,2.7625,2.7625,2.7625,2.7625,2.7625,2.7625,2.7625,2.7625,2.6285,2.7331,2.8114,2.8866,2.9551,2.9886,2.9331,2.9033,2.8676,2.7992,2.7816,2.7752,2.7634,2.7511,2.7674,2.839,2.8033,2.7809,2.833,2.8183,2.788,2.75,2.8496,2.9007,2.8524,2.953,3.0071,2.9589,3.0152,3.0477,3.0293,3.0435,3.0477,3.0293,3.0878,3.0781,2.9848,2.928,2.8904,2.858,2.9386,3.0592,3.2063,3.2627,3.3724,3.529,3.4968,3.483,3.483,3.4688,3.4688,3.4894,3.5207,3.547,3.5622,3.5622,3.5622,3.5622,3.5622,3.5622,3.5622,3.5622,3.5622,3.5622,3.5622,3.5622,3.5622,3.5622,3.5622,3.5622,3.5622,3.5622,3.5577,3.5362,3.4592,3.3786,3.3633,3.3093,3.2437,3.191,3.164,3.1315,3.0627,2.9849,2.9101,2.8442,2.7904,2.7625,2.7625,2.7625,2.7625,2.7625,2.7625,2.7625,2.7625,2.7625,2.7625,2.7625,2.7625,2.7625,2.7625,2.7625,2.7625,2.7625,2.7625,2.7625,2.7625,2.7625,2.7625,2.7625,2.7625,2.7625,2.7176,2.7969,2.8579,2.9358,2.9437,2.9176,2.8768,2.8108,2.7424,2.6935,2.6721,2.6668,2.6788,2.6607,2.6833,2.8035,2.7551,2.7289,2.8076,2.7666,2.7155,2.6757,2.782,2.8339,2.7802,2.9062,2.9761,2.9406,2.9717,2.9805,2.954,2.9761,2.9761,2.954,3.0081,3.0098,2.9454,2.915,2.9025,2.9041,2.9684,3.0929,3.2592,3.2625,3.3516,3.5144,3.4783,3.4576,3.4624,3.4894,3.5052,3.5098,3.547,3.5622,3.5622,3.5622,3.5622,3.5622,3.5622,3.5622,3.5622,3.5622,3.5622,3.5622,3.5622,3.5622,3.5622,3.5622,3.5622,3.5622,3.5622,3.5622,3.5515,3.5207,3.48,3.4399,3.4087,3.3735,3.3182,3.216,3.1739,3.1315,3.0627,3.0223,2.9774,2.9131,2.8457,2.8023,2.8023,2.7754,2.7625,2.7625,2.7625,2.7625,2.7625,2.7625,2.7625,2.7625,2.7625,2.7625,2.7625,2.7625,2.7625,2.7625,2.7625,2.7625,2.7625,2.7625,2.7625,2.7625,2.7625,2.7625,2.8002,2.8218,2.845,2.971,2.897,2.7911,2.7977,2.6916,2.586,2.5797,2.5351,2.5215,2.5971,2.5668,2.5891,2.7708,2.7187,2.6816,2.7575,2.6943,2.6319,2.6033,2.6766,2.7253,2.7211,2.8443,2.9225,2.918,2.918,2.8966,2.8511,2.9012,2.9104,2.8654,2.9137,2.9438,2.9469,2.962,2.9663,2.9714,3.0342,3.1351,3.2752,3.2613,3.3391,3.4736,3.4431,3.4431,3.464,3.5115,3.5379,3.547,3.5577,3.5622,3.5622,3.5622,3.5622,3.5622,3.5622,3.5622,3.5622,3.5622,3.5622,3.5622,3.5622,3.5622,3.5622,3.5622,3.5622,3.5622,3.5622,3.5515,3.5362,3.4847,3.5052,3.5207,3.4688,3.4479,3.4037,3.2949,3.2064,3.1345,3.0746,3.0567,3.0313,2.9789,2.9146,2.8697,2.8607,2.7993,2.7625,2.7625,2.7625,2.7625,2.7625,2.7625,2.7625,2.7625,2.7625,2.7625,2.7625,2.7625,2.7625,2.7625,2.7625,2.7625,2.7625,2.7625,2.7625,2.7625,2.7625,2.7625,2.766,2.7297,2.6633,2.8244,2.7986,2.7004,2.5655,2.5364,2.519,2.4696,2.4716,2.4921,2.5177,2.4714,2.4635,2.5816,2.5607,2.5588,2.6382,2.6267,2.6052,2.6013,2.6766,2.7084,2.6582,2.7844,2.8463,2.7944,2.7894,2.8076,2.8463,2.8606,2.8826,2.9225,2.9375,2.9508,2.9484,3.0023,3.0333,3.0357,3.1031,3.2072,3.3406,3.2833,3.3649,3.5316,3.3649,3.3598,3.4576,3.4137,3.4284,3.4847,3.5362,3.5622,3.5622,3.5622,3.5622,3.5622,3.5622,3.5622,3.5622,3.5622,3.5622,3.5622,3.5622,3.5622,3.5622,3.5622,3.5622,3.5622,3.5622,3.5207,3.4894,3.5316,3.4657,3.4087,3.4528,3.3735,3.3039,3.3391,3.2407,3.1437,3.1375,3.0881,3.0462,3.0357,2.9804,2.922,2.8667,2.7993,2.7625,2.7625,2.7625,2.7625,2.7625,2.7625,2.7625,2.7625,2.7625,2.7625,2.7625,2.7625,2.7625,2.7625,2.7625,2.7625,2.7625,2.7625,2.7625,2.7625,2.7625,2.7625,2.6897,2.6643,2.6278,2.697,2.6304,2.5304,2.4688,2.4338,2.4118,2.4003,2.4063,2.4206,2.4441,2.3934,2.375,2.4623,2.4425,2.4572,2.5682,2.5362,2.5171,2.5529,2.6062,2.6287,2.5986,2.7202,2.7745,2.7086,2.7357,2.771,2.8008,2.8042,2.8293,2.8989,2.9031,2.9346,3.0015,3.0343,3.0687,3.1046,3.1375,3.2048,3.3039,3.2367,3.2772,3.4003,3.3002,3.3145,3.4087,3.4087,3.4544,3.5144,3.547,3.5622,3.5622,3.5622,3.5622,3.5622,3.5622,3.5622,3.5622,3.5622,3.5622,3.5622,3.5622,3.5622,3.5622,3.5622,3.5622,3.5622,3.5622,3.5362,3.5098,3.5098,3.4592,3.4186,3.4528,3.3836,3.3093,3.3093,3.2201,3.1482,3.1482,3.1255,3.1046,3.1046,3.0477,2.9939,2.9639,2.9026,2.8353,2.7685,2.7625,2.7625,2.7625,2.7625,2.7625,2.7625,2.7625,2.7625,2.7625,2.7625,2.7625,2.7625,2.7625,2.7625,2.7625,2.7625,2.7625,2.7625,2.7625,2.7625,2.5903,2.5656,2.5479,2.5438,2.4447,2.3584,2.3885,2.3503,2.3165,2.3414,2.3516,2.3614,2.3835,2.3426,2.3224,2.3762,2.3522,2.3739,2.5096,2.4519,2.4249,2.5102,2.5188,2.5248,2.5334,2.6302,2.6769,2.6283,2.6811,2.7188,2.7357,2.7658,2.7972,2.8352,2.8808,2.949,3.0492,3.0657,3.1001,3.1482,3.1482,3.191,3.2602,3.2007,3.2104,3.2788,3.2641,3.3039,3.3836,3.4235,3.4847,3.5622,3.5622,3.5622,3.5622,3.5622,3.5622,3.5622,3.5622,3.5622,3.5622,3.5622,3.5622,3.5622,3.5622,3.5622,3.5622,3.5622,3.5622,3.5622,3.5622,3.547,3.5253,3.4736,3.4688,3.4783,3.4783,3.4186,3.3427,3.2895,3.2104,3.1482,3.1482,3.1482,3.1482,3.1482,3.1076,3.0672,3.0522,3.0088,2.9325,2.8128,2.7874,2.779,2.7625,2.7625,2.7625,2.7625,2.7625,2.7625,2.7625,2.7625,2.7625,2.7625,2.7625,2.7625,2.7625,2.7625,2.7625,2.7625,2.7625,2.77,2.4761,2.3721,2.2711,2.3177,2.272,2.223,2.2439,2.2615,2.2746,2.2797,2.3259,2.366,2.3554,2.3348,2.3171,2.3094,2.2914,2.3183,2.4411,2.3961,2.3904,2.5048,2.4427,2.4057,2.4572,2.4727,2.4992,2.5467,2.5563,2.5892,2.6563,2.7779,2.824,2.7625,2.9356,3.0387,3.0507,3.112,3.1422,3.1482,3.1482,3.191,3.2586,3.2547,3.2895,3.3479,3.2841,3.3339,3.4479,3.3937,3.4447,3.5622,3.5622,3.5622,3.5622,3.5622,3.5622,3.5622,3.5622,3.5622,3.5622,3.5622,3.5622,3.5622,3.5622,3.5622,3.5622,3.5622,3.5622,3.5622,3.5622,3.5144,3.4688,3.4624,3.5052,3.5515,3.5515,3.4496,3.3582,3.3547,3.2407,3.1482,3.1482,3.1482,3.1482,3.1482,3.1422,3.121,3.0582,3.0447,3.0163,2.9475,2.8861,2.8248,2.7619,2.7625,2.7625,2.7625,2.7625,2.7625,2.7625,2.7625,2.7625,2.7625,2.7625,2.7625,2.7625,2.7625,2.7625,2.7625,2.7625,2.7904,2.2344,2.1575,2.103,2.0879,2.064,2.0605,2.1258,2.148,2.1608,2.1821,2.1916,2.1821,2.1423,2.1556,2.1483,2.0607,2.1086,2.1713,2.215,2.194,2.2181,2.345,2.3293,2.3343,2.3876,2.4271,2.4775,2.5356,2.5007,2.4851,2.5175,2.6427,2.7438,2.8035,2.9144,3.0218,3.112,3.1405,3.1482,3.1482,3.1482,3.164,3.1951,3.1951,3.2104,3.2296,3.2048,3.2461,3.3391,3.3531,3.4137,3.5052,3.5453,3.5622,3.5622,3.5622,3.5622,3.5622,3.5622,3.5622,3.5622,3.5622,3.5622,3.5622,3.5622,3.5622,3.5622,3.5622,3.5622,3.5622,3.5622,3.5098,3.4688,3.5098,3.5098,3.4988,3.4988,3.4235,3.3495,3.3093,3.2216,3.1482,3.1482,3.1482,3.1482,3.1482,3.1482,3.1377,3.1165,3.112,3.0866,3.0208,2.9564,2.9071,2.8801,2.8412,2.8188,2.8188,2.7799,2.7625,2.7625,2.7625,2.7625,2.7625,2.7625,2.7625,2.7625,2.7625,2.7784,2.8188,2.8188,2.8547,2.0856,2.0186,1.9691,1.8896,1.8848,1.9191,1.995,2.0461,2.0799,2.0734,2.0861,2.0703,1.9922,2.0186,2.0182,1.9141,1.9662,2.0365,2.0808,2.0594,2.0927,2.2349,2.2281,2.2456,2.3144,2.3744,2.4254,2.4697,2.4221,2.3943,2.3943,2.511,2.6399,2.7694,2.8926,2.9941,3.0763,3.1219,3.1409,3.1161,3.1409,3.1482,3.1539,3.1739,3.1697,3.1524,3.1739,3.212,3.2641,3.3339,3.3987,3.4688,3.5362,3.5622,3.5622,3.5622,3.5622,3.5622,3.5622,3.5622,3.5622,3.5622,3.5622,3.5622,3.5622,3.5622,3.5622,3.5622,3.5622,3.5622,3.5622,3.5253,3.4941,3.5253,3.4941,3.4528,3.4333,3.3786,3.313,3.2695,3.2007,3.1482,3.1482,3.1482,3.1482,3.1482,3.1482,3.1482,3.1482,3.1482,3.1287,3.0866,3.0417,2.9998,2.9609,2.916,2.8891,2.8891,2.8248,2.7874,2.7874,2.773,2.7625,2.7625,2.7625,2.7625,2.7625,2.7784,2.8128,2.8607,2.8801,2.9235,2.0827,1.9961,1.8526,1.7409,1.7571,1.8096,1.8444,1.9718,2.0541,1.9617,2.0431,2.0906,1.9637,1.9684,1.979,1.9461,1.9068,1.9424,2.1063,2.0497,2.0536,2.2304,2.1527,2.1257,2.2311,2.2853,2.3125,2.3138,2.3138,2.3138,2.3138,2.4205,2.5231,2.6069,2.8858,2.9875,2.9002,3.0644,3.1087,3.0329,3.1087,3.1482,3.1524,3.2272,3.2176,3.1524,3.2272,3.2586,3.2641,3.3339,3.3987,3.4688,3.5362,3.5622,3.5622,3.5622,3.5622,3.5622,3.5622,3.5622,3.5622,3.5622,3.5622,3.5622,3.5622,3.5622,3.5622,3.5622,3.5622,3.5622,3.5622,3.5577,3.5407,3.4783,3.4624,3.4431,3.3735,3.3093,3.2602,3.2586,3.2007,3.1482,3.1482,3.1482,3.1482,3.1482,3.1482,3.1482,3.1482,3.1482,3.1482,3.1467,3.1452,3.0986,2.9699,2.9564,2.9564,2.9564,2.8951,2.8592,2.8592,2.7934,2.7625,2.7625,2.7625,2.7625,2.7625,2.8263,2.8592,2.8622,2.9265,2.9909,1.7733,1.7734,1.8004,1.4718,1.544,1.7356,1.8782,1.8701,1.8478,1.9248,1.887,1.812,1.6991,1.745,1.7724,1.6922,1.7276,1.799,1.9057,1.8937,1.9209,2.0486,2.1017,2.1406,2.1763,2.2589,2.3078,2.3078,2.3078,2.3078,2.3078,2.3853,2.4847,2.6056,2.7692,2.8939,2.9889,3.0389,3.0837,3.1087,3.1409,3.1482,3.1539,3.1739,3.1739,3.1524,3.1739,3.1853,3.1951,3.313,3.3735,3.4037,3.5161,3.5622,3.5622,3.5622,3.5316,3.4988,3.5453,3.5316,3.4988,3.547,3.5622,3.5622,3.5622,3.5622,3.5622,3.5622,3.5622,3.5622,3.5622,3.5622,3.556,3.5316,3.4941,3.4528,3.4333,3.3391,3.2586,3.2586,3.2007,3.1482,3.1482,3.1482,3.1482,3.1482,3.1482,3.1482,3.1482,3.1482,3.1482,3.1482,3.1482,3.136,3.0941,3.0477,3.0223,3.0223,2.9624,2.9265,2.9265,2.9056,2.8727,2.8278,2.8712,2.8727,2.8278,2.8951,2.949,2.9924,3.0597,3.1016,1.8595,1.7646,1.6803,1.4926,1.472,1.5401,1.7237,1.753,1.7464,1.7582,1.753,1.7005,1.5508,1.5985,1.6248,1.5386,1.5985,1.6835,1.7721,1.8049,1.8606,1.9673,2.0803,2.1493,2.1493,2.2485,2.3078,2.3078,2.3078,2.3078,2.3078,2.369,2.438,2.526,2.6684,2.7889,2.8876,2.9827,3.0389,3.0584,3.1219,3.1482,3.1482,3.1482,3.1482,3.1482,3.1482,3.1482,0.0,3.3024,3.3582,3.3735,3.5068,3.5622,3.5577,3.5316,3.4941,3.4688,3.5098,3.4941,3.4688,3.5362,3.5622,3.5622,3.5622,3.5622,3.5622,3.5622,3.5622,3.5622,3.5622,3.5622,3.5532,3.5299,3.4688,3.4137,3.3887,3.2971,3.216,3.216,3.1796,3.1482,3.1482,3.1482,3.1482,3.1482,3.1482,3.1482,3.1482,3.1482,3.1482,3.1482,3.1482,3.1482,3.1482,3.115,3.0896,3.0896,3.0283,2.9924,2.9924,2.9699,2.9385,2.8981,2.937,2.9385,2.8966,2.9609,3.0253,3.0911,3.133,3.1482,0.0,1.8605,1.4856,1.6724,1.48,1.2827,1.4495,1.6346,0.0,1.5184,1.6346,1.7085,1.5028,1.5096,1.5276,1.4744,1.5175,1.5946,1.7087,1.7811,1.8596,1.9581,2.0761,2.145,2.1362,2.2451,2.3078,2.3005,2.3078,2.3078,2.3078,2.364,2.3954,2.4004,2.5766,2.6609,2.6526,2.8911,2.9766,2.9129,3.0644,3.1409,3.1482,3.1482,3.1482,3.1482,3.1482,3.1482,3.164,3.3024,3.3582,3.3735,3.5068,3.5622,3.5515,3.4894,3.4624,3.4624,3.4624,3.4624,3.4688,3.5362,3.5622,3.5622,3.5622,3.5622,3.5622,3.5622,3.5622,3.5622,3.5622,3.5622,3.5424,3.4736,3.4087,3.3443,3.2734,3.2007,3.1482,3.1482,3.1482,3.1482,3.1482,3.1482,3.1482,3.1482,3.1482,3.1482,3.1482,3.1482,3.1482,3.1482,3.1482,3.1482,3.1482,3.1482,3.1482,3.1482,3.0926,3.0567,3.0567,2.9973,2.963,2.9639,2.9639,2.9669,2.9729,3.0242,3.0783,3.1409,3.1409,3.1409,1.4951,0.0,1.1422,1.0742,1.148,1.3142,0.0,0.0,0.0,0.0,0.0,1.4631,1.4086,1.4143,1.4179,1.405,1.4871,1.5759,1.6398,1.7706,1.8596,1.8631,2.031,2.1166,2.0222,2.191,2.2823,2.2261,2.2763,2.3078,2.3078,2.3203,2.354,2.3979,2.4418,2.5396,2.6817,2.7824,2.8876,3.0011,3.0389,3.0896,3.1482,3.1482,3.1482,3.1482,3.1482,3.1482,3.164,3.3024,3.3582,3.3735,3.5068,3.5622,3.5577,3.5407,3.5052,3.4688,3.5207,3.5052,3.4688,3.5362,3.5622,3.5622,3.5622,3.5622,3.5622,3.5622,3.5622,3.5622,3.5622,3.5622,3.5424,3.4736,3.4087,3.3443,3.2734,3.2007,3.1482,3.1482,3.1482,3.1482,3.1482,3.1482,3.1482,3.1482,3.1482,3.1482,3.1482,3.1482,3.1482,3.1482,3.1482,3.1482,3.1482,3.1482,3.1482,3.1482,3.1317,3.1228,3.1228,3.0529,3.0206,3.0298,3.0283,3.0552,3.1076,3.0587,3.0424,3.0584,3.0584,3.0584,0.9195,0.9026,0.9109,1.0804,1.066,1.1093,1.5072,0.0,0.0,0.0,0.0,1.3946,1.3034,1.3379,1.3732,1.342,1.4312,1.5329,1.6361,1.747,1.8199,1.8316,1.9918,2.0626,1.9773,2.1789,2.2628,2.1365,2.2063,2.2567,2.2567,2.2567,2.2898,2.359,2.3866,2.4646,2.5923,2.6869,2.8035,2.9341,3.0004,3.0718,3.1482,3.1482,3.1482,3.1482,3.1482,3.1482,3.164,3.3024,3.3582,3.3735,3.5068,3.5622,3.556,3.5253,3.4704,3.4235,3.4894,3.5098,3.5098,3.547,3.5622,3.5622,3.5622,3.5622,3.5622,3.5622,3.5622,3.5515,3.5207,3.5144,3.4958,3.4284,3.3633,3.3039,3.2695,3.2007,3.1482,3.1482,3.1482,3.1482,3.1482,3.1482,3.1482,3.1482,3.1482,3.1482,3.1482,3.1482,3.1482,3.1482,3.1482,3.1482,3.1482,3.1161,3.1087,3.1467,3.1482,3.1482,3.1482,3.0718,3.035,3.0425,3.0411,3.0602,3.097,3.0524,3.0329,3.0329,3.0329,3.0524,0.4316,0.5048,0.6962,1.1868,1.0146,0.844,1.2872,0.0,0.0,0.0,0.0,1.3517,1.2052,1.2531,1.3102,1.2851,1.3641,1.4841,1.6512,1.7158,1.7567,1.8024,1.9333,1.9993,1.9511,2.1396,2.2051,2.0526,2.1239,2.1753,2.1877,2.1877,2.2261,2.3078,2.3615,2.4092,2.4556,2.5922,2.705,2.8028,2.9387,3.0438,3.1317,3.1422,3.1482,3.1482,3.1482,3.1482,3.164,3.3024,3.3531,3.3582,3.5021,3.547,3.527,3.4783,3.4186,3.3684,3.4382,3.4988,3.547,3.547,3.5515,3.5577,3.547,3.5515,3.5622,3.5622,3.5622,3.547,3.4783,3.4576,3.4431,3.3633,3.2986,3.2586,3.2437,3.1951,3.1482,3.1482,3.1482,3.1482,3.1482,3.1482,3.1482,3.1482,3.1482,3.1482,3.1482,3.1482,3.1482,3.1482,3.1482,3.1482,3.1482,3.0896,3.0777,3.1467,3.1409,3.1278,3.1087,3.0584,3.0269,3.0072,3.0208,3.0329,3.0329,3.0147,3.0011,2.9889,3.0011,3.0389,0.076,0.1768,0.3327,0.5255,0.6505,0.7841,0.9849,0.0,0.0,0.0,0.0,0.0,1.1648,1.0965,1.0753,1.2189,1.3131,1.4382,1.6294,1.661,1.6748,1.6887,1.8358,1.9043,1.8348,1.9901,2.059,1.9562,2.0333,2.1101,2.1877,2.1877,2.2261,2.3078,2.3165,2.3314,2.3328,2.4545,2.584,2.7345,2.8135,2.9271,3.0687,3.127,3.1482,3.1482,3.1482,3.1482,3.164,3.3024,3.3287,3.2949,3.4864,3.4911,3.3937,3.4431,3.4186,3.3684,3.4382,3.4688,3.4736,3.4736,3.5161,3.547,3.4941,3.5144,3.5622,3.5622,3.5622,3.547,3.4783,3.4576,3.4284,3.3039,3.2695,3.2437,3.1796,3.1582,3.1482,3.1482,3.1482,3.1482,3.1482,3.1482,3.1482,3.1482,3.1482,3.1482,3.1482,3.1482,3.1482,3.1482,3.1482,3.1482,3.1482,3.1409,3.1351,3.1482,3.0837,3.0133,2.938,2.995,2.995,2.9192,2.995,3.0329,3.0329,2.9566,2.8812,2.8117,2.8876,2.8876,0.0,0.0489,0.126,0.2216,0.4681,0.7436,0.9632,0.0,0.0,0.0,0.0,0.0,1.001,1.0199,1.0791,1.2387,1.2802,1.3473,1.5032,1.5468,1.5916,1.6587,1.7958,1.8617,1.8075,1.9562,2.0009,1.8721,1.9431,2.0074,2.0462,2.091,2.1553,2.2445,2.2884,2.3078,2.3078,2.3653,2.4879,2.6782,2.7391,2.8262,2.9383,3.0145,3.0223,2.9853,3.0636,3.0971,3.1057,3.247,3.2895,3.2749,3.4003,3.4137,3.3582,3.3531,3.3531,3.3633,3.3937,3.4087,3.4137,3.4479,3.4544,3.4447,3.4137,3.4544,3.5052,3.5052,3.5052,3.4894,3.4235,3.3786,3.3287,3.2272,3.2007,3.191,3.1582,3.1482,3.1482,3.1482,3.1482,3.1482,3.1482,3.1482,3.1482,3.1482,3.1482,3.1482,3.1482,3.1482,3.1482,3.1482,3.1482,3.1482,3.1482,3.1087,3.1029,3.1467,3.0718,2.9889,2.9066,2.8939,2.8684,2.8298,2.8684,2.8876,2.8876,2.8492,2.8117,2.7736,2.862,2.8812,0.0,0.0245,0.0659,0.1207,0.0,0.0,0.0,0.0,0.0,0.0,0.7811,0.8273,0.8403,0.9598,1.0963,1.2317,1.2357,1.2687,1.4049,1.4617,1.5346,1.6553,1.7446,1.8006,1.8027,1.9023,1.9212,1.8076,1.8586,1.911,1.9299,2.0139,2.0974,2.1877,2.2689,2.3078,2.3078,2.3078,2.4151,2.6145,2.6579,2.7323,2.8487,2.9064,2.9083,2.8735,2.9822,3.0283,3.0398,3.1805,3.2245,3.2206,3.3224,3.3479,3.3287,3.2586,3.268,3.313,3.3287,3.3391,3.3443,3.3987,3.3887,3.3582,3.3391,3.3836,3.4382,3.4382,3.4235,3.4037,3.3684,3.3093,3.2437,3.1697,3.1482,3.1482,3.1482,3.1482,3.1482,3.1482,3.1482,3.1482,3.1482,3.1482,3.1482,3.1482,3.1482,3.1482,3.1482,3.1482,3.1482,3.1482,3.1351,3.1219,3.1219,3.0464,3.0329,3.1161,3.0644,2.9827,2.8748,2.8051,2.767,2.767,2.767,2.767,2.767,2.767,2.7604,2.7417,2.8298,2.862,0.0,0.0975,0.2064,0.2084,0.2786,0.0,0.462,0.5802,0.0,0.6676,0.6691,0.695,0.7558,0.8779,1.005,1.1233,1.1639,1.2411,1.3957,1.4617,1.5346,1.6553,1.6337,1.6606,1.7891,1.7345,1.7198,1.794,1.8076,1.8462,1.9243,2.0139,2.0974,2.1877,2.2689,2.3078,2.3078,2.3078,2.3897,2.5467,2.5356,2.6509,2.8576,2.8499,2.8832,2.9525,2.9624,2.9639,2.9753,3.1113,3.1267,3.085,3.2809,3.3235,3.2586,3.1853,3.1582,3.1739,3.2422,3.2695,3.2695,3.2749,3.3145,3.3479,3.2841,3.3145,3.3684,3.3684,3.3235,3.2895,3.3443,3.3093,3.2437,3.1697,3.1482,3.1482,3.1482,3.1482,3.1482,3.1482,3.1482,3.1482,3.1482,3.1482,3.1482,3.1482,3.1482,3.1482,3.1482,3.1482,3.1482,3.1482,3.0837,3.0389,3.0389,2.9566,2.9442,3.0329,3.0329,2.9566,2.7855,2.7736,2.767,2.767,2.767,2.767,2.767,2.767,2.7284,2.6589,2.7417,2.7417,-0.0293,0.0406,0.0942,0.1407,0.1376,0.0,0.0,0.4474,0.47,0.5218,0.5806,0.659,0.7835,0.904,1.0013,1.034,1.0759,1.1413,1.2565,1.3756,1.4646,1.5053,1.582,1.6533,1.7051,1.6784,1.6991,1.794,1.8008,1.8134,1.8462,1.9299,2.0204,2.1037,2.1928,2.2567,2.3078,2.3078,2.3649,2.4738,2.4664,2.5104,2.5981,2.6814,2.7147,2.7066,2.8385,2.8966,2.9079,2.9977,3.0422,3.0623,3.183,3.216,3.191,3.1582,3.1482,3.1582,3.2327,3.2272,3.2007,3.2437,3.2477,3.2256,3.2007,3.2422,3.2986,3.2986,3.2803,3.2641,3.2895,3.2477,3.1853,3.1582,3.1482,3.1482,3.1482,3.1482,3.1482,3.1482,3.1482,3.1482,3.1482,3.1482,3.1482,3.1482,3.1482,3.1482,3.1482,3.1482,3.1278,3.0837,3.0011,2.9504,2.9504,2.9192,2.8939,2.8684,2.8684,2.8363,2.7736,2.7229,2.6973,2.6973,2.6973,2.6973,2.6973,2.6973,2.6782,2.6521,2.7351,2.7297,-0.1056,-0.0522,-0.0161,0.0555,0.0,0.0,0.283,0.3169,0.3299,0.4353,0.5163,0.6312,0.8469,0.9101,0.9511,0.9956,1.0345,1.0863,1.171,1.2893,1.3827,1.4073,1.4959,1.58,1.6549,1.6349,1.6645,1.794,1.8008,1.8008,1.8008,1.8854,1.9683,2.059,2.1428,2.2322,2.3078,2.3078,2.3365,2.3943,2.3943,2.4176,2.4681,2.5673,2.6014,2.5865,2.7518,2.8278,2.8323,2.8996,2.9759,3.0552,3.1031,3.1345,3.1482,3.1482,3.1482,3.1582,3.2064,3.1894,3.1582,3.2064,3.191,3.1482,3.1482,3.1853,3.2272,3.2272,3.2272,3.2272,3.2272,3.191,3.1482,3.1482,3.1482,3.1482,3.1482,3.1482,3.1482,3.1482,3.1482,3.1482,3.1482,3.1482,3.1482,3.1482,3.1482,3.1482,3.1482,3.1278,3.0703,2.9566,2.8939,2.862,2.862,2.8363,2.8051,2.7736,2.7484,2.7284,2.7284,2.6782,2.6533,2.6533,2.6533,2.6533,2.6533,2.6533,2.6533,2.6533,2.704,2.704,-0.2261,-0.1688,-0.091,-0.0167,0.0,0.0167,0.095,0.1675,0.2703,0.4371,0.4816,0.599,0.9442,0.8801,0.8318,1.0249,1.0561,1.0863,1.171,1.2127,1.2791,1.3975,1.3598,1.4142,1.6383,1.572,1.6009,1.7862,1.8008,1.8008,1.8008,1.8854,1.9694,2.059,2.1428,2.2261,2.3065,2.3078,2.3078,2.3078,2.3078,2.393,2.5398,2.5398,2.5783,2.6563,2.7306,2.7625,2.7619,2.8308,2.934,3.0492,3.0492,3.0911,3.1452,3.1467,3.1467,3.1467,3.1482,3.1482,3.1482,3.1482,3.1482,3.1482,3.1482,3.1482,3.1482,3.1482,3.1482,3.1482,3.1482,3.1482,3.1482,3.1482,3.1482,3.1482,3.1482,3.1482,3.1482,3.1482,3.1482,3.1482,3.1482,3.1482,3.1482,3.1482,3.1482,3.1482,3.1482,3.0777,2.9628,2.7855,2.767,2.767,2.767,2.6973,2.685,2.767,2.6905,2.6533,2.6533,2.6533,2.6533,2.6533,2.6533,2.6533,2.6533,2.6533,2.6533,2.6533,2.6533,2.6533,-0.3338,-0.2043,-0.1048,-0.0837,-0.0392,0.0169,0.0921,0.1676,0.2753,0.4616,0.5519,0.63,0.7496,0.8308,0.8787,0.879,0.9779,1.0681,1.0926,1.1823,1.2253,1.1956,1.304,1.4252,1.5146,1.5531,1.6338,1.791,1.8008,1.8008,1.8008,1.8269,1.8787,1.9694,2.0526,2.1416,2.2261,2.2823,2.3078,2.3078,2.3078,2.3649,2.4624,2.5175,2.5783,2.6563,2.7306,2.7625,2.7619,2.8308,2.8816,2.9205,2.9669,2.9983,3.0208,3.0657,3.0806,3.0881,3.136,3.1482,3.1482,3.1482,3.1482,3.1482,3.1482,3.1482,3.1482,3.1482,3.1482,3.1482,3.1482,3.1482,3.1482,3.1482,3.1482,3.1482,3.1482,3.1482,3.1482,3.1482,3.1482,3.1482,3.1482,3.1482,3.1482,3.1482,3.1482,3.1278,3.0718,2.9889,2.8939,2.7802,2.7162,2.685,2.685,2.6658,2.6589,2.685,2.6658,2.6533,2.6533,2.6533,2.6533,2.6533,2.6533,2.6533,2.6533,2.6533,2.6533,2.6533,2.6533,2.6533,-0.3411,-0.2027,-0.1006,-0.0727,-0.0335,0.017,0.0947,0.1989,0.3371,0.5255,0.5803,0.6274,0.7093,0.7767,0.8355,0.8484,0.939,1.0174,1.0555,1.1213,1.1503,1.1041,1.2123,1.3283,1.4371,1.4865,1.5713,1.6911,1.7292,1.7358,1.7007,1.7292,1.8006,1.919,1.9935,2.0864,2.2068,2.2772,2.3078,2.3078,2.3078,2.3531,2.435,2.5063,2.5618,2.6122,2.7137,2.7625,2.7655,2.8023,2.8353,2.8637,2.9041,2.9355,2.9624,2.9998,3.0133,3.0193,3.0612,3.0761,3.0761,3.0761,3.0761,3.0761,3.0761,3.0761,3.0761,3.0761,3.0941,3.112,3.112,3.133,3.1482,3.1482,3.1482,3.1482,3.1482,3.1482,3.1482,3.1482,3.1482,3.1482,3.1482,3.1219,3.1146,3.1467,3.1219,3.0718,2.9889,2.9002,2.8182,2.7284,2.6782,2.6533,2.6533,2.6533,2.6533,2.6533,2.6533,2.6533,2.6533,2.6533,2.6533,2.6533,2.6533,2.6533,2.6533,2.6533,2.6533,2.6533,2.6533,2.6533,-0.3212,-0.1887,-0.095,-0.028,-0.0056,0.0171,0.0972,0.2455,0.4176,0.5706,0.5712,0.5885,0.7442,0.7177,0.7242,0.8812,0.9204,0.9594,1.0364,1.0561,1.0719,1.0922,1.1014,1.184,1.3737,1.4032,1.4442,1.5321,1.6128,1.6265,1.5514,1.6256,1.7388,1.8813,1.9488,2.0517,2.1989,2.2668,2.3002,2.3002,2.3053,2.3484,2.4234,2.5007,2.5453,2.5673,2.6982,2.7524,2.7625,2.7625,2.7934,2.8502,2.8502,2.8876,2.9415,2.9475,2.949,2.9505,2.9564,2.9579,2.9579,2.9579,2.9579,2.9579,2.9579,2.9579,2.9579,2.9579,2.9983,3.0432,3.0492,3.0971,3.1392,3.1467,3.1482,3.1482,3.1482,3.1409,3.1409,3.1409,3.1351,3.1278,3.1278,3.0644,3.045,3.1161,3.0644,2.9889,2.9002,2.8182,2.7417,2.6589,2.6533,2.6533,2.6533,2.6533,2.6533,2.6533,2.6533,2.6533,2.6533,2.6533,2.6533,2.6533,2.6533,2.6533,2.6533,2.6533,2.6533,2.6533,2.6533,2.6533,-0.5712,-0.3359,-0.1062,-0.0895,-0.0407,0.0243,0.1044,0.2113,0.3049,0.3443,0.453,0.5491,0.5885,0.6334,0.685,0.7177,0.842,0.9338,0.953,1.0174,1.0645,1.0712,1.1262,1.1948,1.2672,1.334,1.3969,1.4524,1.5321,1.5652,1.5514,1.6256,1.6855,1.7211,1.8559,1.9448,1.9805,2.1602,2.2485,2.2498,2.2924,2.3198,2.3424,2.4781,2.6054,2.7137,2.6878,2.7086,2.7625,2.7625,2.7664,2.785,2.785,2.7874,2.8068,2.8607,2.8816,2.8891,2.94,2.9579,2.9579,2.9579,2.9579,2.9579,2.9579,2.9579,2.9579,2.9579,2.9669,2.9894,3.0372,3.0612,3.0866,3.1347,3.1482,3.1482,3.1482,3.1029,3.0584,3.0584,3.0011,2.9566,2.9566,2.938,2.9317,2.9504,2.938,2.8939,2.8117,2.7802,2.7417,2.6589,2.6533,2.6533,2.6533,2.6533,2.6533,2.6533,2.6533,2.6533,2.6533,2.6533,2.6533,2.6533,2.6533,2.6533,2.6533,2.6533,2.6533,2.6533,2.6533,2.6533,-0.5358,-0.3306,-0.1447,-0.0727,-0.0294,0.0123,0.0555,0.1737,0.2678,0.2678,0.4148,0.5428,0.5428,0.5752,0.6203,0.6654,0.7437,0.8355,0.9204,0.9722,1.011,1.0561,1.0982,1.1479,1.2082,1.2468,1.2853,1.31,1.4184,1.4693,1.4318,1.5401,1.6387,1.7085,1.8232,1.9171,1.9871,2.1223,2.2046,2.2309,2.2598,2.3052,2.3708,2.4509,2.5508,2.6534,2.6496,2.6721,2.7086,2.7458,2.7625,2.7625,2.7625,2.7625,2.767,2.7979,2.8113,2.8158,2.8502,2.8622,2.8622,2.8622,2.8622,2.8622,2.8622,2.8622,2.8569,2.8237,2.8581,2.9122,2.9094,2.9278,2.966,3.0279,3.0997,3.1409,3.1029,3.0584,3.0208,2.9766,2.9317,2.9002,2.9002,2.9002,2.8876,2.8427,2.8363,2.8247,2.7736,2.7351,2.6973,2.6521,2.6533,2.6533,2.6533,2.6533,2.6533,2.6533,2.6533,2.6533,2.6533,2.6533,2.6533,2.6533,2.6533,2.6533,2.6533,2.6533,2.6533,2.6533,2.6533,2.6533,-0.4714,-0.3144,-0.1829,-0.0391,0.0,0.0,0.0,0.1283,0.253,0.2674,0.4148,0.5428,0.5428,0.5428,0.562,0.6334,0.6588,0.7242,0.8877,0.9204,0.9594,1.0498,1.0624,1.0863,1.1531,1.1586,1.1586,1.1586,1.3053,1.3726,1.307,1.451,1.5968,1.7191,1.7924,1.8937,2.0167,2.0944,2.1581,2.2033,2.2221,2.2936,2.4118,2.4118,2.4567,2.5453,2.6068,2.6404,2.6563,2.7306,2.7625,2.7625,2.7625,2.7625,2.7625,2.7625,2.7625,2.7625,2.7625,2.7625,2.7625,2.7625,2.7509,2.7408,2.7408,2.7306,2.7086,2.6496,2.7166,2.7939,2.7417,2.7695,2.8225,2.8813,2.9959,3.0764,3.0179,2.995,2.9628,2.8939,2.8684,2.8556,2.8556,2.8556,2.8298,2.7604,2.7484,2.7484,2.7484,2.6905,2.6533,2.6533,2.6533,2.6533,2.6533,2.6533,2.6533,2.6533,2.6533,2.6533,2.6533,2.6533,2.6533,2.6533,2.6533,2.6533,2.6533,2.6533,2.6533,2.6533,2.6533,2.6533,-0.712,-0.4646,-0.1829,-0.0391,0.0,0.0,0.0,0.0759,0.1694,0.2531,0.4148,0.5428,0.5428,0.5428,0.5428,0.5557,0.6203,0.7046,0.8027,0.8812,0.9594,1.0498,1.0624,1.0624,1.0744,1.0744,1.0744,1.0744,1.2274,1.313,1.3009,1.451,1.5468,1.569,1.7032,1.7778,1.8009,1.986,2.0869,2.0891,2.1857,2.2657,2.3245,2.3245,2.4047,2.5398,2.5508,2.5906,2.6563,2.7306,2.7625,2.7625,2.7625,2.7625,2.7625,2.7625,2.7625,2.7625,2.7625,2.7625,2.7625,2.7625,2.7152,2.6669,2.6669,2.6229,2.5673,2.5563,2.5674,2.5925,2.6399,2.6594,2.6789,2.7432,2.812,2.8736,2.908,2.8556,2.7986,2.792,2.7284,2.685,2.685,2.685,2.6782,2.6658,2.6658,2.6658,2.6658,2.6589,2.6533,2.6533,2.6533,2.6533,2.6533,2.6533,2.6533,2.6533,2.6533,2.6533,2.6533,2.6533,2.6533,2.6533,2.6533,2.6533,2.6533,2.6533,2.6533,2.6533,2.6533,2.6533,-0.6876,-0.4938,-0.3099,-0.1616,-0.0917,-0.0593,-0.0612,0.0378,0.1427,0.1798,0.3347,0.4755,0.5292,0.5428,0.5428,0.5428,0.5752,0.6465,0.7832,0.835,0.9069,1.0428,1.0624,1.0624,1.0624,1.0624,1.0624,1.0624,1.2097,1.3009,1.3009,1.451,1.5584,1.5979,1.7024,1.7797,1.8221,1.9499,2.0351,2.0731,2.1782,2.2435,2.2686,2.2927,2.3471,2.4163,2.4567,2.4951,2.5342,2.604,2.6602,2.6982,2.6982,2.6982,2.6982,2.6982,2.6707,2.6428,2.6826,2.6982,2.7034,2.7473,2.7086,2.651,2.651,2.596,2.5287,2.4908,2.5063,2.5355,2.5276,2.5229,2.5378,2.5945,2.5948,2.6011,2.6527,2.7209,2.7537,2.7095,2.6714,2.6533,2.6533,2.6533,2.6533,2.6533,2.6533,2.6533,2.6533,2.6533,2.6533,2.6533,2.6533,2.6533,2.6533,2.6533,2.6533,2.6533,2.6533,2.6533,2.6533,2.6533,2.6533,2.6533,2.6533,2.6533,2.6533,2.6533,2.6533,2.6533,2.6533,2.6533,-0.6469,-0.5233,-0.4313,-0.2834,-0.1931,-0.1345,-0.1148,-0.0187,0.0834,0.1188,0.2398,0.3613,0.4553,0.509,0.5428,0.5428,0.5428,0.5947,0.7442,0.7697,0.8221,0.9779,1.0104,1.0301,1.0301,1.0498,1.0624,1.0624,1.2097,1.3009,1.3009,1.451,1.5642,1.6208,1.6922,1.7688,1.8394,1.9319,2.0087,2.0731,2.1493,2.2046,2.2322,2.2736,2.294,2.3125,2.3943,2.4292,2.435,2.5119,2.5728,2.6229,2.6229,2.6229,2.6229,2.6229,2.5837,2.5453,2.6014,2.6229,2.6336,2.6864,2.6549,2.596,2.596,2.5384,2.4724,2.4163,2.4381,2.4667,2.4118,2.4002,2.4119,2.4476,2.4298,2.4192,2.487,2.6153,2.7048,2.6564,2.6533,2.6533,2.6533,2.6533,2.6533,2.6533,2.6533,2.6533,2.6533,2.6533,2.6533,2.6533,2.6533,2.6533,2.6533,2.6533,2.6533,2.6533,2.6533,2.6533,2.6533,2.6533,2.6533,2.6533,2.6533,2.6533,2.6533,2.6533,2.6533,2.6533,2.6533,2.6533,-0.6977,-0.599,-0.5062,-0.3591,-0.267,-0.1976,-0.1285,-0.1025,-0.056,0.0962,0.1383,0.1742,0.2678,0.4217,0.5428,0.5428,0.5428,0.5752,0.6654,0.6785,0.7111,0.8027,0.8877,0.9338,0.9338,1.011,1.0624,1.0624,1.2097,1.3009,1.3009,1.451,1.541,1.5468,1.614,1.6922,1.7633,1.9097,2.0087,2.0718,2.0781,2.1305,2.2309,2.2347,2.2636,2.3125,2.3943,2.4292,2.435,2.5119,2.5398,2.5453,2.5453,2.5453,2.5453,2.5453,2.5453,2.5398,2.5453,2.5453,2.5453,2.5508,2.5007,2.4408,2.4408,2.3826,2.3185,2.3185,2.3198,2.3185,2.3185,2.3125,2.3198,2.3175,2.3602,2.428,2.5322,2.5665,2.5866,2.642,2.6533,2.6533,2.6533,2.6533,2.6533,2.6533,2.6533,2.6533,2.6533,2.6533,2.6533,2.6533,2.6533,2.6533,2.6533,2.6533,2.6533,2.6533,2.6533,2.6533,2.6533,2.6533,2.6533,2.6533,2.6533,2.6533,2.6533,2.6533,2.6533,2.6533,2.6533,2.6533,-0.7599,-0.6784,-0.5964,-0.4976,-0.3776,-0.2867,-0.2617,-0.1835,-0.0909,-0.0382,0.0584,0.1379,0.1736,0.3278,0.4483,0.4483,0.5024,0.5686,0.6588,0.6719,0.7046,0.7892,0.8748,0.9274,0.9274,1.011,1.0624,1.0624,1.16,1.2451,1.2948,1.4025,1.4874,1.5352,1.6151,1.709,1.8286,1.8821,1.947,2.0112,2.0489,2.1054,2.1794,2.2146,2.2611,2.3138,2.3424,2.3543,2.3543,2.3813,2.4221,2.4681,2.4681,2.4681,2.4681,2.4681,2.4394,2.3989,2.4509,2.4681,2.4794,2.5231,2.4908,2.4292,2.4292,2.3721,2.3078,2.3078,2.3078,2.3078,2.3078,2.3078,2.3078,2.3078,2.3288,2.3653,2.4406,2.4845,2.5259,2.5799,2.59,2.6025,2.6402,2.6533,2.6533,2.6533,2.6533,2.6533,2.6533,2.6533,2.6533,2.6533,2.6533,2.6533,2.6533,2.6533,2.6533,2.6533,2.6533,2.6533,2.6533,2.6533,2.6533,2.6533,2.6533,2.6533,2.6533,2.6533,2.6533,2.6533,2.6533,2.6533,-0.7616,-0.6966,-0.6421,-0.5706,-0.4608,-0.3588,-0.3095,-0.2209,-0.1311,-0.0817,0.0128,0.0845,0.0868,0.2076,0.3278,0.3882,0.4553,0.5216,0.6137,0.6268,0.6461,0.7051,0.8161,0.8877,0.8877,0.9913,1.0624,1.0624,1.1351,1.2012,1.2573,1.3606,1.4569,1.5352,1.6151,1.709,1.834,1.834,1.8715,1.9423,1.9858,2.0328,2.0884,2.1668,2.2334,2.2874,2.299,2.3078,2.3078,2.3078,2.3424,2.3884,2.3884,2.3884,2.3884,2.3884,2.3543,2.3198,2.3708,2.3884,2.4002,2.4439,2.4279,2.3884,2.3884,2.3531,2.3078,2.3078,2.3078,2.3078,2.3078,2.3078,2.3078,2.3078,2.3078,2.3238,2.3627,2.4155,2.4707,2.5234,2.5335,2.5511,2.6076,2.6163,2.6239,2.6496,2.6533,2.6533,2.6533,2.6533,2.6533,2.6533,2.6533,2.6533,2.6533,2.6533,2.6533,2.6533,2.6533,2.6533,2.6533,2.6533,2.6533,2.6533,2.6533,2.6533,2.6533,2.6533,2.6533,2.6533,2.6533,2.6533,0.0,0.0,0.0,-0.5706,-0.5003,-0.4125,-0.2623,-0.2234,-0.1835,-0.0368,-0.0063,0.0,0.0,0.0739,0.1876,0.3613,0.3949,0.435,0.5226,0.5362,0.5428,0.5428,0.6924,0.8027,0.8027,0.9582,1.0624,1.0624,1.1351,1.1764,1.1834,1.3356,1.4569,1.5352,1.6093,1.681,1.7578,1.7578,1.7961,1.8715,1.8715,1.9054,1.9658,2.0927,2.1782,2.2347,2.2874,2.3065,2.3078,2.3078,2.3078,2.3078,2.3078,2.3078,2.3078,2.3078,2.3078,2.3078,2.3078,2.3078,2.3078,2.3078,2.3078,2.3078,2.3078,2.3078,2.3078,2.3078,2.3078,2.3078,2.3078,2.3078,2.3078,2.3078,2.3078,2.3078,2.3078,2.3577,2.4142,2.4695,2.4795,2.4971,2.5498,2.5598,2.5787,2.6445,2.6533,2.6533,2.6533,2.6533,2.6533,2.6533,2.6533,2.6533,2.6533,2.6533,2.6533,2.6533,2.6533,2.6533,2.6533,2.6533,2.6533,2.6533,2.6533,2.6533,2.6546,2.6546,2.6546,2.6533,2.6533,2.6533,-0.6858,0.0,0.0,0.0,0.0,0.0,-0.4083,-0.3608,-0.2918,-0.2012,-0.1344,-0.0716,-0.0134,0.0739,0.1474,0.1942,0.3145,0.4082,0.435,0.4957,0.5428,0.5428,0.6924,0.8027,0.8027,0.9582,1.0624,1.0624,1.0807,1.117,1.1772,1.3356,1.4569,1.5352,1.5584,1.6083,1.681,1.681,1.7468,1.8715,1.8715,1.9281,2.0382,2.0761,2.1418,2.2322,2.2472,2.2761,2.3078,2.3078,2.3078,2.3078,2.3078,2.3078,2.3078,2.3078,2.3078,2.3078,2.3078,2.3078,2.3078,2.3078,2.3078,2.3078,2.3078,2.3078,2.3078,2.3078,2.3078,2.3078,2.3078,2.3078,2.3078,2.3078,2.3078,2.3078,2.3078,2.3203,2.354,2.4117,2.423,2.4519,2.5435,2.5598,2.5787,2.6445,2.6533,2.6533,2.6533,2.6533,2.6533,2.6533,2.6533,2.6533,2.6533,2.6533,2.6533,2.6533,2.6533,2.6533,2.6533,2.6533,2.6533,2.6533,2.6533,2.6653,2.7055,2.7055,2.6854,2.6533,2.6533,2.6533,0.0,0.0,0.0,-0.5164,0.0,0.0,-0.3779,-0.3338,-0.2745,-0.1652,-0.1095,-0.0586,-0.0067,0.0404,0.0739,0.0739,0.1942,0.3145,0.3882,0.4821,0.5428,0.5428,0.6597,0.7567,0.7962,0.9262,1.0238,1.0561,1.0624,1.1108,1.2266,1.3183,1.4213,1.5352,1.541,1.5748,1.6482,1.6197,1.68,1.8221,1.8221,1.8827,1.9863,2.0432,2.1016,2.1656,2.2121,2.2498,2.2811,2.3037,2.3078,2.3078,2.3078,2.3078,2.3078,2.3078,2.3078,2.3078,2.3078,2.3078,2.3078,2.3078,2.3078,2.3078,2.3078,2.3078,2.3078,2.3078,2.3078,2.3078,2.3078,2.3078,2.3078,2.3078,2.3078,2.3078,2.3078,2.3078,2.3178,2.3577,2.364,2.3991,2.5084,2.5272,2.5548,2.6408,2.6533,2.6533,2.6533,2.6533,2.6533,2.6533,2.6533,2.6533,2.6533,2.6533,2.6533,2.6533,2.6533,2.6533,2.6533,2.6533,2.6533,2.6533,2.6533,2.6841,2.762,2.7394,2.7118,2.6804,2.6804,2.6678,0.0,0.0,0.0,-0.465,-0.4556,0.0,-0.2819,-0.2545,-0.2108,-0.0704,-0.0454,-0.0392,-0.0335,-0.0135,0.0,-0.0135,0.0806,0.2143,0.3613,0.4686,0.5292,0.5362,0.6268,0.7177,0.7897,0.8877,0.9786,1.0561,1.0624,1.1296,1.2887,1.3009,1.3726,1.5352,1.541,1.569,1.6379,1.5748,1.6083,1.7468,1.7578,1.8015,1.8727,1.9994,2.0655,2.0769,2.1707,2.2196,2.2347,2.2836,2.3075,2.3078,2.3078,2.3078,2.3078,2.3078,2.3078,2.3078,2.3078,2.3078,2.3078,2.3078,2.3078,2.3078,2.3078,2.3078,2.3078,2.3078,2.3078,2.3078,2.3078,2.3078,2.3078,2.3078,2.3078,2.3078,2.3078,2.3078,2.3078,2.3078,2.3078,2.3428,2.4632,2.482,2.5197,2.6302,2.6533,2.6533,2.6533,2.6533,2.6533,2.6533,2.6533,2.6533,2.6533,2.6533,2.6533,2.6533,2.6533,2.6533,2.6533,2.6533,2.6533,2.6533,2.6584,2.7067,2.8109,2.7607,2.7369,2.7369,2.7306,2.6979,0.0,0.0,-0.4815,-0.4704,-0.4738,0.0,-0.4572,-0.4537,-0.4264,-0.3427,-0.3187,-0.2994,-0.2275,-0.1004,-0.0201,-0.0939,0.1471,0.3347,0.3011,0.3747,0.4553,0.5296,0.6793,0.7827,0.7962,0.9454,1.0434,1.0561,1.0624,1.1296,1.2887,1.3009,1.3726,1.5352,1.541,1.5468,1.5633,1.5468,1.5864,1.6708,1.7302,1.8015,1.8727,1.9587,2.0225,2.0731,2.0891,2.1493,2.2322,2.2422,2.2736,2.3078,2.3078,2.3078,2.3078,2.3078,2.3078,2.3078,2.3078,2.3078,2.3078,2.3078,2.3078,2.3078,2.3078,2.3078,2.3078,2.3078,2.3078,2.3078,2.3078,2.3078,2.3078,2.3078,2.3078,2.3078,2.3078,2.3078,2.3078,2.3078,2.3078,2.3428,2.4632,2.482,2.5197,2.6302,2.6533,2.6533,2.6533,2.6533,2.6533,2.6533,2.6533,2.6533,2.6533,2.6533,2.6533,2.6533,2.6533,2.6533,2.6533,2.6533,2.6533,2.6533,2.6892,2.7444,2.8109,2.7996,2.7946,2.7934,2.7494,2.6979,-0.494,-0.4748,-0.4806,-0.4806,-0.4863,0.0,0.0,-0.4423,-0.4266,-0.3526,-0.3011,-0.2544,-0.2075,-0.0938,-0.0134,-0.0605,0.1206,0.2531,0.2039,0.3584,0.4888,0.5359,0.6531,0.7502,0.7962,0.9198,1.011,1.0561,1.0624,1.1296,1.2887,1.3009,1.3726,1.5352,1.541,1.541,1.541,1.541,1.5748,1.6492,1.6866,1.7413,1.8167,1.8555,1.9083,1.9695,1.9636,2.0113,2.0941,2.1044,2.1235,2.1619,2.2712,2.2884,2.2567,2.2944,2.3078,2.3078,2.3078,2.3078,2.3078,2.3078,2.3078,2.3078,2.3078,2.3078,2.3078,2.3078,2.3078,2.3078,2.3078,2.3078,2.3078,2.3078,2.3078,2.3078,2.3078,2.3078,2.3078,2.3078,2.3364,2.3841,2.4682,2.5034,2.5498,2.6395,2.6533,2.6533,2.6533,2.6533,2.6533,2.6533,2.6533,2.6533,2.6533,2.6533,2.6533,2.6533,2.6533,2.6533,2.6533,2.6533,2.6533,2.6533,2.7005,2.7419,2.7695,2.7971,2.8109,2.8097,2.7821,2.7256,-0.5046,-0.4938,-0.4958,-0.4958,-0.4982,-0.4846,0.0,0.0,0.0,-0.3131,-0.2342,-0.1742,-0.1608,-0.0873,-0.0202,-0.0067,0.0733,0.1383,0.1729,0.3704,0.5078,0.5078,0.6132,0.7104,0.7772,0.8794,0.9718,1.0468,1.0474,1.1231,1.2879,1.3009,1.3726,1.5352,1.541,1.541,1.541,1.541,1.569,1.6322,1.6425,1.681,1.7413,1.7523,1.7895,1.8471,1.8339,1.8759,1.9439,1.9636,1.97,1.9834,2.2043,2.2445,2.2013,2.2823,2.3078,2.3078,2.3078,2.3078,2.3078,2.3078,2.3017,2.2884,2.2884,2.2884,2.2884,2.2884,2.2884,2.2823,2.2689,2.2628,2.2628,2.2628,2.2628,2.2689,2.2823,2.2884,2.2884,2.3078,2.3492,2.409,2.468,2.5247,2.5787,2.6445,2.6533,2.6533,2.6533,2.6533,2.6533,2.6533,2.6533,2.6533,2.6533,2.6533,2.6533,2.6533,2.6533,2.6533,2.6533,2.6533,2.6533,2.6533,2.6904,2.718,2.7281,2.772,2.7946,2.7946,2.7946,2.7419,-0.4952,-0.5009,-0.5104,-0.5104,-0.5209,-0.5315,-0.5262,0.0,-0.4935,-0.4013,0.0,-0.348,-0.2678,0.0,0.0,-0.0259,0.0646,0.1791,0.3162,0.3717,0.3974,0.3974,0.5996,0.7402,0.7385,0.8753,0.9768,1.0147,1.0167,1.1002,1.2931,1.3009,1.3726,1.5352,1.541,1.541,1.541,1.541,1.5468,1.5526,1.6208,1.6539,1.6652,1.7302,1.7633,1.7743,1.7689,1.8036,1.8669,1.9025,1.9021,1.8956,2.1156,2.2002,2.2013,2.2823,2.3078,2.3078,2.3078,2.3078,2.3078,2.3078,2.2628,2.2075,2.2075,2.2075,2.2075,2.2075,2.2075,2.1877,2.1101,2.091,2.091,2.091,2.091,2.1101,2.1877,2.2075,2.2261,2.2944,2.325,2.3694,2.4666,2.5247,2.5787,2.6445,2.6533,2.6533,2.6533,2.6533,2.6533,2.6533,2.6533,2.6533,2.6533,2.6533,2.6533,2.6533,2.6533,2.6533,2.6533,2.6533,2.6533,2.6533,2.6584,2.6791,2.7281,2.7344,2.7369,2.7369,2.7369,2.7042,-0.5192,-0.522,-0.513,-0.4602,-0.4512,-0.4486,-0.3949,-0.3816,-0.3747,-0.3345,0.0,0.0,0.0,0.0,0.0,0.0,0.1094,0.2025,0.2108,0.3462,0.4424,0.4424,0.5811,0.7094,0.7957,0.9026,0.9733,0.986,1.002,1.088,1.2695,1.2901,1.3726,1.5352,1.541,1.541,1.541,1.541,1.541,1.541,1.569,1.5864,1.5864,1.6187,1.6585,1.6922,1.6528,1.6701,1.7323,1.7326,1.7431,1.765,1.9336,2.0459,2.1175,2.1542,2.199,2.231,2.1803,2.1667,2.1667,2.1667,2.1428,2.1175,2.1175,2.1175,2.1175,2.1175,2.1175,2.1037,2.0719,2.059,2.059,2.059,2.0974,2.1302,2.1175,2.1553,2.1898,2.198,2.2298,2.2753,2.3487,2.4534,2.5314,2.5557,2.6094,2.6533,2.6533,2.6533,2.6533,2.6533,2.6533,2.6533,2.6533,2.6533,2.6533,2.6533,2.6533,2.6533,2.6533,2.6533,2.6533,2.6533,2.6533,2.6647,2.6804,2.6804,2.6804,2.6816,2.713,2.6979,-0.5428,-0.5226,-0.4821,-0.4151,-0.3813,-0.348,-0.2811,-0.2678,-0.2611,-0.2342,-0.1742,0.0,0.0,0.0,0.0,0.0,0.0,0.2094,0.204,0.3424,0.4492,0.4492,0.5545,0.6939,0.851,0.9149,0.9472,0.9552,0.976,1.0644,1.2522,1.2779,1.3681,1.5352,1.541,1.541,1.541,1.541,1.541,1.541,1.541,1.541,1.541,1.541,1.569,1.6151,1.5633,1.569,1.6181,1.6118,1.6328,1.6768,1.7877,1.9083,2.0268,2.0526,2.0974,2.1428,2.0846,2.059,2.059,2.0333,2.0268,2.0268,2.0268,2.0268,2.0268,2.0268,2.0268,2.0204,1.9944,1.9879,1.9879,1.9879,2.0398,2.0719,2.0333,2.0719,2.1186,2.1207,2.1439,2.1787,2.2199,2.3787,2.5004,2.5004,2.5873,2.6533,2.6533,2.6533,2.6533,2.6533,2.6533,2.6533,2.6533,2.6533,2.6533,2.6533,2.6533,2.6533,2.6533,2.6533,2.6533,2.6533,2.6533,2.6533,2.6533,2.6533,2.6533,2.6533,2.6866,2.6841,-0.5428,-0.4755,-0.4015,-0.4015,-0.3347,-0.2744,-0.2678,-0.2678,-0.241,-0.1541,-0.134,-0.1074,-0.0202,0.0,0.0,0.0,0.0,0.0,0.0,0.3858,0.3411,0.3355,0.5285,0.7149,0.8672,0.8838,0.8951,0.9176,0.9203,1.0235,1.2497,1.2605,1.3477,1.5342,1.541,1.541,1.541,1.541,1.541,1.541,1.541,1.541,1.541,1.541,1.541,1.541,1.541,1.541,1.5449,1.5939,1.6328,1.6777,1.7282,1.8213,1.9431,2.0268,2.059,2.0655,2.059,2.059,2.0462,1.9628,1.9365,1.9365,1.9365,1.9365,1.9365,1.9365,1.9365,1.9177,1.8269,1.8076,1.8076,1.8076,1.8076,1.8337,1.9177,1.9365,1.9756,2.0953,2.0892,2.0739,2.1199,2.3334,2.5004,2.5004,2.5873,2.6533,2.6533,2.6533,2.6533,2.6533,2.6533,2.6533,2.6533,2.6533,2.6533,2.6533,2.6533,2.6533,2.6533,2.6533,2.6533,2.6533,2.6533,2.6533,2.6533,2.6533,2.6533,2.6533,2.6546,2.6546,-0.5428,-0.4688,-0.3882,-0.328,-0.2477,-0.1609,-0.1075,-0.0941,-0.0807,-0.0538,-0.0471,-0.0337,-0.0067,0.0,0.0,0.0,0.0,0.0,0.0,0.4336,0.5152,0.6077,0.6848,0.7509,0.8049,0.8533,0.8844,0.8945,0.9554,1.0612,1.2206,1.2914,1.3923,1.5332,1.541,1.541,1.541,1.541,1.541,1.541,1.541,1.541,1.541,1.541,1.541,1.541,1.541,1.541,1.542,1.5566,1.6064,1.6748,1.6894,1.7579,1.8462,1.8787,1.9233,1.9694,1.911,1.8844,1.8844,1.8529,1.8462,1.8462,1.8462,1.8462,1.8462,1.8462,1.8462,1.8395,1.8076,1.8008,1.8008,1.8008,1.8462,1.8787,1.8529,1.908,1.975,1.9939,2.004,2.0272,2.0711,2.2008,2.322,2.3891,2.5429,2.6533,2.6533,2.6533,2.6533,2.6533,2.6533,2.6533,2.6533,2.6533,2.6533,2.6533,2.6533,2.6533,2.6533,2.6533,2.6533,2.6533,2.6533,2.6533,2.6533,2.6533,2.6533,2.6533,2.6533,2.6533,-0.5428,-0.4486,-0.3413,-0.2811,-0.1743,-0.0672,-0.0135,0.0,0.0,0.0,0.0,0.0,0.0,0.0,0.0,0.0,0.0,0.0,0.0,0.5101,0.6362,0.7557,0.7723,0.7777,0.8049,0.8533,0.8804,0.8804,0.9599,1.0701,1.2014,1.294,1.4005,1.5332,1.541,1.541,1.541,1.541,1.541,1.541,1.541,1.541,1.541,1.541,1.541,1.541,1.541,1.541,1.541,1.541,1.5937,1.6665,1.6665,1.7256,1.8008,1.8008,1.8327,1.8787,1.8202,1.8008,1.8008,1.8008,1.8008,1.8008,1.8008,1.8008,1.7978,1.7832,1.79,1.7978,1.7822,1.79,1.8008,1.8008,1.8462,1.8694,1.8331,1.8844,1.9484,1.9541,1.9727,2.0049,2.0488,2.1375,2.2328,2.3368,2.4909,2.5955,2.5955,2.5955,2.5955,2.5955,2.5955,2.6094,2.6452,2.6533,2.6533,2.6533,2.6533,2.6533,2.6533,2.6533,2.6533,2.6533,2.6533,2.6533,2.6533,2.6533,2.6533,2.6533,2.6533,2.6533]},{"header":{"parameterUnit":"m.s-1","parameterCategory":1,"la1":30.6,"la2":29.2853,"lo1":-89.7004,"lo2":-87.6739,"dy":0.0162,"dx":0.0183,"nx":112,"ny":82,"refTime":"2023-11-02T00:00:00:Z","depth":0,"parameterNumber":3,"parameterNumberName":"V-component_of_WINDS"},"data":[0.0,0.0,0.0,0.0,0.0,0.0,0.0,0.0,0.0,0.0,0.0,0.0,0.0,0.0,0.0,0.0,0.0,0.0,0.0,0.0,0.0,0.0,0.0,0.0,0.0,0.0,0.0,0.0,0.0,0.0,0.0,0.0,0.0,0.0,0.0,0.0,0.0,0.0,0.0,0.0,0.0,0.0,0.0,0.0,0.0,0.0,0.0,0.0,0.0,0.0,0.0,0.0,0.0,0.0,0.0,0.0,0.0,0.0,0.0,0.0,0.0,0.0,0.0,0.0,0.0,0.0,0.0,0.0,0.0,0.0,0.0,0.0,0.0,0.0,0.0,0.0,0.0,0.0,0.0,0.0,0.0,0.0,0.0,0.0,0.0,0.0,0.0,0.0,0.0,0.0,0.7869,0.8383,0.8657,0.8804,0.8804,0.868,0.8568,0.8427,0.0,0.0,0.0,0.0,0.0,0.0,0.0,0.0,0.0,0.0,0.0,0.0,0.0,0.0,0.0,0.0,0.0,0.0,0.0,0.0,0.0,0.0,0.0,0.0,0.0,0.0,0.0,0.0,0.0,0.0,0.0,0.0,0.0,0.0,0.0,0.0,0.0,0.0,0.0,0.0,0.0,0.0,0.0,0.0,0.0,0.0,0.0,0.0,0.0,0.0,0.0,0.0,0.0,0.0,0.0,0.0,0.0,0.0,0.0,0.0,0.0,0.0,0.0,0.0,0.0,0.0,0.0,0.0,0.0,0.0,0.0,0.0,0.0,0.0,0.0,0.0,0.0,0.0,0.0,0.0,0.0,0.0,0.0,0.0,0.0,0.0,0.0,0.0,0.0,0.0,0.0,0.0,0.0,0.0,0.0,0.0,0.0,0.0,0.0,0.0,0.0,0.0,0.0,0.0,0.8363,0.8704,0.8784,0.8804,0.8804,0.9266,0.9227,0.844,0.0,0.0,0.0,0.0,0.0,0.0,0.0,0.0,0.0,0.0,0.0,0.0,0.0,0.0,0.0,0.0,0.0,0.0,0.0,0.0,0.0,0.0,0.0,0.0,0.0,0.0,0.0,0.0,0.0,0.0,0.0,0.0,0.0,0.0,0.0,0.0,0.0,0.0,0.0,0.0,0.0,0.0,0.0,0.0,0.0,0.0,0.0,0.0,0.0,0.0,0.0,0.0,0.0,0.0,0.0,0.0,0.0,0.0,0.0,0.0,0.0,0.0,0.0,0.0,0.0,0.0,0.0,0.0,0.0,0.0,0.0,0.0,0.0,0.0,0.0,0.0,0.0,0.0,0.0,0.0,0.0,0.0,0.0,0.0,0.0,0.0,0.0,0.0,0.0,0.0,0.0,0.0,0.0,0.0,0.0,0.0,0.0,0.0,0.0,0.0,0.0,0.0,0.0,0.8187,0.8657,0.8791,0.9113,0.9211,0.8857,0.9762,0.9849,0.8669,0.9447,0.0,0.0,0.0,0.0,0.0,0.0,0.0,0.0,0.0,0.0,0.0,0.0,0.0,0.0,0.0,0.0,0.0,0.0,0.0,0.0,0.0,0.0,0.0,0.0,0.0,0.0,0.0,0.0,0.0,0.0,0.0,0.0,0.0,0.0,0.0,0.0,0.0,0.0,0.0,0.0,0.0,0.0,0.0,0.0,0.0,0.0,0.0,0.0,0.0,0.0,0.0,0.0,0.0,0.0,0.0,0.0,0.0,0.0,0.0,0.0,0.0,0.0,0.0,0.0,0.0,0.0,0.0,0.0,0.0,0.0,0.0,0.0,0.0,0.0,0.0,0.0,0.0,0.0,0.0,0.0,0.0,0.0,0.0,0.0,0.0,0.0,0.0,0.0,0.0,0.0,0.0,0.0,0.0,0.0,0.0,0.0,0.0,0.0,0.0,0.0,0.0,0.0,0.8671,0.8804,0.8804,0.9263,0.9361,0.8857,1.0012,1.0312,0.9106,1.0312,0.0,0.0,0.0,0.0,0.0,0.0,0.0,0.0,0.0,0.0,0.0,0.0,0.0,0.0,0.0,0.0,0.0,0.0,0.0,0.0,0.0,0.0,0.0,0.0,0.0,0.0,0.0,0.0,0.0,0.0,0.0,0.0,0.0,0.0,0.0,0.0,0.0,0.0,0.0,0.0,0.0,0.0,0.0,0.0,0.0,0.0,0.0,0.0,0.0,0.0,0.0,0.0,0.0,0.0,0.0,0.0,0.0,0.0,0.0,0.0,0.0,0.0,0.0,0.0,0.0,0.0,0.0,0.0,0.0,0.0,0.0,0.0,0.0,0.0,0.0,0.0,0.0,0.0,0.0,0.0,0.0,0.0,0.0,0.0,0.0,0.0,0.0,0.0,0.0,0.0,0.0,0.0,0.0,0.0,0.0,0.0,0.0,0.0,0.0,0.0,0.0,0.0,0.8798,0.8804,0.8804,0.8857,0.8857,0.8804,1.0012,1.0517,0.9762,1.0965,0.0,0.0,0.0,0.0,0.0,0.0,0.0,0.0,0.0,0.0,0.0,0.0,0.0,0.0,0.0,0.0,0.0,0.0,0.0,0.0,0.0,0.0,0.0,0.0,0.0,0.0,0.0,0.0,0.0,0.0,0.0,0.0,0.0,0.0,0.0,0.0,0.0,0.0,0.0,0.0,0.0,0.0,0.0,0.0,0.0,0.0,0.0,0.0,0.0,0.0,0.0,0.0,0.0,0.0,0.0,0.0,0.0,0.0,0.0,0.0,0.0,0.0,0.0,0.0,0.0,0.0,0.0,0.0,0.0,0.0,0.0,0.0,0.0,0.0,0.0,0.0,0.0,0.0,0.0,0.0,0.0,0.0,0.0,0.0,0.0,0.0,0.0,0.0,0.0,0.0,0.0,0.0,0.0,0.0,0.0,0.0,0.0,0.0,0.0,0.0,0.0,0.0,0.8804,0.8878,0.9058,0.927,0.9492,0.9746,1.0791,1.1166,1.0466,0.0,0.0,0.0,0.0,0.0,0.0,0.0,0.0,0.0,0.0,0.0,0.0,0.0,0.0,0.0,0.0,0.0,0.0,0.0,0.0,0.0,0.0,0.0,0.0,0.0,0.0,0.0,0.0,0.0,0.0,0.0,0.0,0.0,0.0,0.0,0.0,0.0,0.0,0.0,0.0,0.0,0.0,0.0,0.0,0.0,0.0,0.0,0.0,0.0,0.0,0.0,0.0,0.0,0.0,0.0,0.0,0.0,0.0,0.0,0.0,0.0,0.0,0.0,0.0,0.0,0.0,0.0,0.0,0.0,0.0,0.0,0.0,0.0,0.0,0.0,0.0,0.0,0.0,0.0,0.0,0.0,0.0,0.0,0.0,0.0,0.0,0.0,0.0,0.0,0.0,0.0,0.0,0.0,0.0,0.0,0.0,0.0,0.0,0.0,0.0,0.0,0.0,0.8804,0.8804,0.9025,0.9528,0.9846,1.0219,1.0663,1.1498,1.1758,1.1174,0.0,0.0,0.0,0.0,0.0,0.0,0.0,0.0,0.0,0.0,0.0,0.0,0.0,0.0,0.0,0.0,0.0,0.0,0.0,0.0,0.0,0.0,0.0,0.0,0.0,0.0,0.0,0.0,0.0,0.0,0.0,0.0,0.0,0.0,0.0,0.0,0.0,0.0,0.0,0.0,0.0,0.0,0.0,0.0,0.0,0.0,0.0,0.0,0.0,0.0,0.0,0.0,0.0,0.0,0.0,0.0,0.0,0.0,0.0,0.0,0.0,0.0,0.0,0.0,0.0,0.0,0.0,0.0,0.0,0.0,0.0,0.0,0.0,0.0,0.0,0.0,0.0,0.0,0.0,0.0,0.0,0.0,0.0,0.0,0.0,0.0,0.0,0.0,0.0,0.0,0.0,0.0,0.0,0.0,0.0,0.0,0.0,0.0,0.0,0.0,0.0,0.0,0.8804,0.8811,0.9231,1.0385,1.0531,1.0794,1.1472,1.2123,1.2326,0.0,0.0,0.0,0.0,0.0,0.0,0.0,0.0,0.0,0.0,0.0,0.0,0.0,0.0,0.0,0.0,0.0,0.0,0.0,0.0,0.0,0.0,0.0,0.0,0.0,0.0,0.0,0.0,0.0,0.0,0.0,0.0,0.0,0.0,0.0,0.0,0.0,0.0,0.0,0.0,0.0,0.0,0.0,0.0,0.0,0.0,0.0,0.0,0.0,0.0,0.0,0.0,0.0,0.0,0.0,0.0,0.0,0.0,0.0,0.0,0.0,0.0,0.0,0.0,0.0,0.0,0.0,0.0,0.0,0.0,0.0,0.0,0.0,0.0,0.0,0.0,0.0,0.0,0.0,0.0,0.0,0.0,0.0,0.0,0.0,0.0,0.0,0.0,0.0,0.0,0.0,0.0,0.0,0.0,0.0,0.0,0.0,0.0,0.0,0.0,0.0,0.0,0.0,0.9465,0.9811,1.0393,1.1375,1.1589,1.1872,1.2419,1.2502,1.254,1.2588,0.0,0.0,0.0,0.0,0.0,0.0,0.0,0.0,0.0,0.0,0.0,0.0,0.0,0.0,0.0,0.0,0.0,0.0,0.0,0.0,0.0,0.0,0.0,0.0,0.0,0.0,0.0,0.0,0.0,0.0,0.0,0.0,0.0,0.0,0.0,0.0,0.0,0.0,0.0,0.0,0.0,0.0,0.0,0.0,0.0,0.0,0.0,0.0,0.0,0.0,0.0,0.0,0.0,0.0,0.0,0.0,0.0,0.0,0.0,0.0,0.0,0.0,0.0,0.0,0.0,0.0,0.0,0.0,0.0,0.0,0.0,0.0,0.0,0.0,0.0,0.0,0.0,0.0,0.0,0.0,0.0,0.0,0.0,0.0,0.0,0.0,0.0,0.0,0.0,0.0,0.0,0.0,0.0,0.0,0.0,0.0,0.0,0.0,0.0,0.0,0.0,0.0,0.9993,1.0554,1.1347,1.2518,1.2755,1.3043,1.3608,1.3346,1.3152,1.3154,0.0,0.0,0.0,0.0,0.0,0.0,0.0,0.0,0.0,0.0,0.0,0.0,0.0,0.0,0.0,0.0,0.0,0.0,0.0,0.0,0.0,0.0,0.0,0.0,0.0,0.0,0.0,0.0,0.0,0.0,0.0,0.0,0.0,0.0,0.0,0.0,0.0,0.0,0.0,0.0,0.0,0.0,0.0,0.0,0.0,0.0,0.0,0.0,0.0,0.0,0.0,0.0,0.0,0.0,0.0,0.0,0.0,0.0,0.0,0.0,0.0,0.0,0.0,0.0,0.0,0.0,0.0,0.0,0.0,0.0,0.0,0.0,0.0,0.0,0.0,0.0,0.0,0.0,0.0,0.0,0.0,0.0,0.0,0.0,0.0,0.0,0.0,0.0,0.0,0.0,0.0,0.0,0.0,0.0,0.0,0.0,0.0,0.0,0.0,0.0,0.0,0.0,1.0694,1.1288,1.2267,1.3725,1.3949,1.4185,1.4729,1.4424,1.4014,1.3594,0.0,0.0,0.0,0.0,0.0,0.0,0.0,0.0,0.0,0.0,0.0,0.0,0.0,0.0,0.0,0.0,0.0,0.0,0.0,0.0,0.0,0.0,0.0,0.0,0.0,0.0,0.0,0.0,0.0,0.0,0.0,0.0,0.0,0.0,0.0,0.0,0.0,0.0,0.0,0.0,0.0,0.0,0.0,0.0,0.0,0.0,0.0,0.0,0.0,0.0,0.0,0.0,0.0,0.0,0.0,0.0,0.0,0.0,0.0,0.0,0.5872,0.5287,0.0,0.0,0.0,0.0,0.0,0.0,0.0,0.0,0.0,0.0,0.0,0.0,0.0,0.0,0.0,0.0,0.0,0.0,0.0,0.0,0.0,0.0,0.0,0.0,0.0,0.0,0.0,0.0,0.0,0.0,0.0,0.0,0.0,0.0,0.0,0.0,0.0,0.0,0.0,0.0,1.2453,1.301,1.3662,1.4476,1.485,1.4965,1.4814,1.4697,1.4463,1.397,1.3863,0.0,0.0,0.0,0.0,0.0,0.0,0.0,0.0,0.0,0.0,0.0,0.0,0.0,0.0,0.0,0.0,0.0,0.0,0.0,0.0,0.0,0.0,0.0,0.0,0.0,0.0,0.0,0.0,0.0,0.0,0.0,0.0,0.0,0.0,0.0,0.0,0.0,0.0,0.0,0.0,0.0,0.0,0.0,0.0,0.0,0.0,0.0,0.0,0.0,0.0,0.0,0.0,0.0,0.0,0.0,0.0,0.0,0.0,0.0,0.6644,0.6237,0.0,0.0,0.0,0.0,0.0,0.0,0.0,0.0,0.0,0.0,0.0,0.0,0.0,0.0,0.0,0.0,0.0,0.0,0.0,0.0,0.0,0.0,0.0,0.0,0.0,0.0,0.0,0.0,0.0,0.0,0.0,0.0,0.0,0.0,0.0,0.0,0.0,0.0,0.0,0.0,1.3349,1.3961,1.4515,1.5002,1.5283,1.5322,1.5107,1.4902,1.4687,1.4463,1.4194,0.0,0.0,0.0,0.0,0.0,0.0,0.0,0.0,0.0,0.0,0.0,0.0,0.0,0.0,0.0,0.0,0.0,0.0,0.0,0.0,0.0,0.0,0.0,0.0,0.0,0.0,0.0,0.0,0.0,0.0,0.0,0.0,0.0,0.0,0.0,0.0,0.0,0.0,0.0,0.0,0.0,0.0,0.0,0.0,0.0,0.0,0.0,0.0,0.0,0.0,0.0,0.0,0.0,0.7341,0.7545,0.7556,0.7805,0.8193,0.8703,0.765,0.7471,0.7961,0.7209,0.0,0.0,0.0,0.0,0.0,0.0,0.0,0.0,0.0,0.0,0.0,0.0,0.0,0.0,0.0,0.0,0.0,0.0,0.0,0.0,0.0,0.0,0.9923,1.0887,1.164,1.1762,1.0627,0.0,0.0,0.0,0.0,0.0,0.0,0.0,0.0,0.0,0.0,0.0,1.4042,1.4544,1.5029,1.5371,1.541,1.541,1.541,1.5098,1.4893,1.4893,1.4551,1.4355,0.0,0.0,0.0,0.0,0.0,0.0,0.0,0.0,0.0,0.0,0.0,0.0,0.0,0.0,0.0,0.0,0.0,0.0,0.0,0.0,0.0,0.0,0.0,0.0,0.0,0.0,0.0,0.0,0.0,0.0,0.0,0.0,0.1234,0.1676,0.0,0.0,0.0,0.0,0.0,0.0,0.0,0.0,0.0,0.0,0.0,0.0,0.0,0.5977,0.6829,0.7589,0.8113,0.8329,0.9015,0.933,0.933,0.9369,0.944,0.9557,0.9362,0.0,0.9367,0.8383,0.0,0.0,0.0,0.0,0.0,0.0,0.0,0.0,0.0,0.0,0.0,0.0,0.0,0.0,0.0,0.0,0.0,0.0,0.0,0.0,0.0,0.0,1.0902,1.1743,1.2039,1.218,1.2571,1.2163,1.1519,1.0943,1.1296,1.1758,0.0,0.0,0.0,0.0,0.0,0.0,1.5206,1.5264,1.5352,1.54,1.541,1.541,1.541,1.5361,1.5322,1.5322,1.5273,1.5244,1.5244,1.5244,0.0,0.0,0.0,0.0,0.0,0.0,0.0,0.0,0.0,0.0,0.0,0.0,0.0,0.0,0.0,0.0,0.0,0.0,0.0,0.0,0.0,0.0,0.0,0.0,0.0,0.0,0.0,0.0,0.0,0.1502,0.3175,0.3227,0.3391,0.3224,0.0,0.0,0.0,0.0,0.0,0.0,0.0,0.0,0.0,0.5754,0.6709,0.7453,0.7913,0.8673,0.9087,0.9207,0.9728,0.9927,0.9933,1.01,1.0471,1.0873,1.0873,1.1114,1.1435,0.9717,0.9295,0.9665,0.0,0.0,0.0,0.0,0.9017,0.8968,0.8484,0.8552,0.8839,0.8839,0.0,0.0,0.0,0.0,0.0,0.0,0.0,1.0552,1.1176,1.1979,1.2675,1.3177,1.3633,1.3928,1.3756,1.3862,1.3627,1.2601,1.2404,1.2586,1.3194,1.366,0.0,0.0,0.0,1.541,1.541,1.541,1.541,1.541,1.541,1.541,1.541,1.541,1.541,1.541,1.541,1.541,1.541,1.541,1.5322,0.0,0.0,0.0,0.0,0.0,0.0,0.0,0.0,0.0,0.0,0.0,0.0,0.0,0.0,0.0,0.0,0.0,0.0,0.0,0.0,0.0,0.0,0.0,0.0,0.0,0.0,0.0,0.0,0.2558,0.408,0.4103,0.4362,0.4485,0.0,0.0,0.0,0.0,0.0,0.0,0.4907,0.5649,0.6236,0.664,0.7916,0.8699,0.9008,0.9551,0.9833,0.9913,1.0127,1.035,1.0526,1.0822,1.1394,1.2259,1.2174,1.2621,1.3336,1.1263,1.082,1.1313,1.122,1.1069,1.0899,1.0899,1.0793,1.0515,0.9911,0.9686,0.9686,0.9686,0.9686,0.9686,0.9686,0.0,0.0,0.0,0.0,1.1681,1.2714,1.3424,1.4026,1.4436,1.4932,1.5235,1.4628,1.4991,1.508,1.395,1.3549,1.3579,1.4396,1.451,0.0,1.5294,1.541,1.541,1.541,1.541,1.541,1.541,1.541,1.541,1.541,1.541,1.541,1.541,1.541,1.541,1.541,1.541,1.541,1.541,0.0,0.0,0.0,0.0,0.0,0.0,0.0,0.0,0.0,0.0,0.0,0.0,0.0,0.0,0.0,0.0,0.0,0.0,0.0,0.0,0.0,0.0,0.0,0.0,0.0,0.0,0.0,0.0,0.0,0.4313,0.4505,0.0,0.0,0.0,0.0,0.4745,0.4745,0.5086,0.6066,0.6143,0.6864,0.841,0.8545,0.9032,1.0033,1.0033,1.0234,1.0577,1.0598,1.0961,1.175,1.1703,1.2375,1.3487,1.3096,1.3629,1.4656,1.3101,1.2506,1.2472,1.2172,1.1584,1.0899,1.0899,1.0408,0.9737,0.9737,0.9686,0.9686,0.9686,0.9686,0.9686,0.9686,1.0383,0.0,0.0,1.2082,1.3072,1.393,1.4177,1.4364,1.5167,1.5352,1.541,1.5352,1.5352,1.5167,1.4305,1.4777,1.5274,1.5352,0.0,1.5352,1.541,1.541,1.541,1.541,1.541,1.541,1.541,1.541,1.541,1.541,1.541,1.541,1.541,1.541,1.541,1.541,1.541,1.541,1.541,1.541,0.0,0.0,0.0,0.0,0.0,0.0,0.0,0.0,0.0,0.0,0.0,0.0,0.0,0.0,0.0,0.0,0.0,0.0,0.0,0.0,0.0,0.0,0.0,0.0,0.0,0.0,0.0,0.0,0.4602,0.467,0.0,0.4752,0.4758,0.5011,0.5656,0.5656,0.6096,0.6997,0.7673,0.8243,0.886,0.9524,1.004,1.0401,1.0401,1.0454,1.0624,1.1383,1.1917,1.2236,1.302,1.3953,1.4778,1.4646,1.5187,1.6018,1.5476,1.4596,1.3635,1.3494,1.2965,1.2257,1.2257,1.1728,1.0952,1.0486,1.0309,1.0363,1.0891,1.1073,1.1134,1.1676,1.2114,1.2502,1.3033,1.3434,1.4028,1.5144,1.54,1.5537,1.613,1.626,1.626,1.626,1.6035,1.577,1.546,1.5419,1.541,1.541,1.541,1.541,1.541,1.541,1.541,1.541,1.541,1.541,1.541,1.541,1.541,1.541,1.541,1.541,1.541,1.541,1.541,1.541,1.541,1.541,1.541,1.541,1.541,0.0,0.0,0.0,0.0,0.0,0.0,0.0,0.0,0.0,0.0,0.0,0.0,0.0,0.0,0.0,0.0,0.0,0.0,0.0,0.0,0.0,0.0,0.0,0.0,0.0,0.4535,0.4649,0.4749,0.4741,0.4809,0.4908,0.5157,0.5593,0.6193,0.6558,0.7133,0.8077,0.8724,0.9258,0.9507,1.0197,1.0624,1.0624,1.0719,1.0701,1.0772,1.1971,1.2706,1.2967,1.3844,1.4946,1.6123,1.5643,1.6002,1.6943,1.6797,1.6067,1.5046,1.5046,1.4558,1.3862,1.3862,1.3301,1.2546,1.2052,1.1867,1.1924,1.2482,1.2664,1.2727,1.3309,1.3622,1.3924,1.4487,1.4854,1.5242,1.6088,1.6289,1.6367,1.666,1.6665,1.6665,1.6665,1.6494,1.6289,1.6289,1.5811,1.541,1.541,1.541,1.541,1.541,1.541,1.541,1.541,1.541,1.541,1.541,1.541,1.541,1.541,1.541,1.541,1.541,1.541,1.541,1.541,1.541,1.541,1.541,1.541,1.541,1.541,0.0,0.0,0.0,0.0,0.0,0.0,0.0,0.0,0.0,0.0,0.0,0.0,0.0,0.0,0.0,0.0,0.0,0.0,0.0,0.0,0.0,0.0,0.0,0.4563,0.4676,0.4773,0.4704,0.4833,0.4928,0.4931,0.5707,0.6315,0.6505,0.726,0.8231,0.9256,0.9338,0.9722,1.0561,1.0631,1.0638,1.0638,1.0862,1.1068,1.1141,1.2372,1.3384,1.4164,1.4181,1.5384,1.7307,1.6002,1.6188,1.7373,1.6943,1.6714,1.6768,1.6685,1.6192,1.5514,1.5514,1.4997,1.4279,1.4279,1.4279,1.4279,1.4345,1.4345,1.4345,1.4345,1.4932,1.5514,1.5514,1.6119,1.6675,1.6748,1.6748,1.6758,1.6768,1.6714,1.6714,1.6714,1.6758,1.6748,1.6748,1.6045,1.5449,1.543,1.543,1.543,1.541,1.541,0.0,1.541,1.541,1.541,1.541,1.541,1.541,1.541,1.541,1.541,1.541,1.541,1.541,1.541,1.541,1.541,1.541,1.541,1.541,1.541,0.0,0.0,0.0,0.0,0.0,0.0,0.0,0.0,0.0,0.0,0.0,0.0,0.0,0.0,0.0,0.0,0.0,0.0,0.0,0.0,0.0,0.4745,0.4755,0.4711,0.4831,0.4897,0.4999,0.5047,0.5364,0.6113,0.6442,0.7099,0.8388,0.8712,0.9255,1.0168,1.0238,1.0364,1.0561,1.0768,1.1194,1.1897,1.1489,1.203,1.3418,1.3961,1.4672,1.5553,1.6538,1.7235,1.7832,1.7427,1.7514,1.7832,1.7705,1.7656,1.7598,1.6973,1.6192,1.5514,1.5514,1.4997,1.4279,1.4279,1.4279,1.441,1.4997,1.5192,1.5256,1.5863,1.6201,1.6392,1.6392,1.6529,1.6807,1.7119,1.7207,1.7275,1.7588,1.7656,1.7656,1.7656,1.7422,1.7207,1.7207,1.6748,1.6269,1.5937,1.5889,1.5781,1.5459,1.541,1.541,1.541,1.541,1.541,1.541,1.541,1.541,1.541,1.541,1.541,1.541,1.541,1.541,1.541,1.541,1.541,1.541,1.541,1.541,0.0,0.0,0.0,0.0,0.0,0.0,0.0,0.0,0.0,0.0,0.0,0.0,0.0,0.0,0.0,0.0,0.0,0.0,0.0,0.0,0.0,0.0,0.5162,0.5487,0.5487,0.5502,0.553,0.5624,0.6073,0.6411,0.6645,0.7372,0.8221,0.921,0.9658,1.0047,1.0561,1.0739,1.0934,1.1312,1.122,1.1829,1.3194,1.2533,1.2968,1.4513,1.5146,1.5806,1.636,1.7095,1.7647,1.8008,1.7579,1.7647,1.8008,1.8008,1.8008,1.7959,0.0,0.0,0.0,0.0,1.6232,1.5833,1.5833,1.5833,1.59,1.6373,1.6572,1.6637,1.7125,1.7266,1.7266,1.7266,1.7266,1.7324,1.7578,1.7646,1.7705,1.7949,1.8008,1.8008,1.8008,1.7822,1.7646,1.7646,1.7441,0.0,1.6689,1.6465,1.6191,1.5752,1.5684,1.5615,1.5439,1.541,1.5526,1.5806,1.5864,1.5864,1.5864,1.5864,0.0,0.0,0.0,1.541,1.541,1.541,0.0,0.0,0.0,1.541,1.541,1.541,0.0,0.0,1.541,1.541,0.0,0.0,0.0,0.0,0.0,0.0,0.0,0.0,0.0,0.0,0.0,0.0,0.0,0.0,0.0,0.0,0.5697,0.6455,0.6539,0.6669,0.6669,0.6606,0.7393,0.7762,0.7046,0.842,0.9338,0.9466,1.0174,1.0638,1.0672,1.0855,0.0,0.0,0.0,1.2548,1.4469,1.3829,1.4071,1.5087,1.612,1.6636,1.6775,1.6775,1.7217,1.794,1.7139,1.7245,1.8076,1.8076,1.8105,1.8144,1.8047,1.8008,1.8008,1.8008,1.8008,1.8008,1.8008,0.0,0.0,1.8008,1.8008,1.8008,1.8008,1.8008,1.8008,1.8008,1.8008,1.8008,1.8008,1.8008,1.8008,1.8008,1.8008,1.8008,1.8008,1.8008,1.8008,1.8008,1.8008,1.7891,1.7519,1.709,1.665,1.6211,1.6143,1.6037,1.5654,1.5595,1.5866,1.6549,1.6595,0.0,1.6482,1.6492,1.6208,1.5468,1.541,1.541,1.5526,1.5468,1.541,1.541,1.541,1.541,1.541,1.541,1.541,1.541,1.541,1.541,0.0,0.0,0.0,0.0,0.0,0.0,0.0,0.0,0.0,0.0,0.0,0.0,0.0,0.0,0.0,0.5033,0.5782,0.6687,0.755,0.8292,0.8484,0.7767,0.7872,0.8221,0.8748,0.9075,0.9594,1.0301,1.0498,1.0661,1.0895,1.0962,1.156,1.2743,1.2861,1.3837,1.5721,1.5152,1.5695,1.7387,1.6817,0.0,1.7725,1.7725,1.7862,1.8008,1.7794,1.7987,1.8446,1.8446,1.8721,1.8975,1.8281,1.8008,1.8008,1.8008,1.8008,1.8008,1.8008,1.8008,1.8008,1.8008,1.8008,1.8008,1.8008,1.8008,0.0,1.8008,1.8008,1.8008,1.8008,1.8008,1.8008,1.8008,1.8008,1.8008,1.8008,1.8008,1.8008,1.8008,1.8008,1.7978,1.79,1.7539,1.7109,1.667,1.6602,1.6621,1.6814,1.687,1.7017,1.7346,1.7413,1.7146,1.6539,1.6492,1.6208,1.5468,1.541,1.57,1.6265,1.57,1.541,1.541,1.541,1.541,1.541,1.541,1.541,1.541,1.541,1.541,0.0,0.0,0.0,0.0,0.0,0.0,0.0,0.0,0.0,0.0,0.0,0.4016,0.4809,0.0,0.5244,0.5683,0.6586,0.7516,0.8533,0.9396,0.9658,0.8742,0.9064,0.9326,0.9274,0.9722,1.0168,1.0768,1.0775,1.0902,1.1196,1.1817,1.2645,1.3747,1.4087,1.5169,1.7043,1.626,1.6576,1.8008,1.7501,1.7569,1.8008,1.8008,1.8008,1.8018,1.8232,1.8437,1.8652,1.8867,1.9092,1.9248,1.8818,1.8516,1.832,1.832,1.8193,1.8008,1.8008,1.8008,1.8008,1.8008,1.8008,1.8008,1.8008,1.8008,1.8008,1.8008,1.8008,1.8008,1.8008,1.8008,1.8008,1.8008,1.8008,1.8008,1.8008,1.8008,1.8008,1.8008,1.8008,1.8008,1.8008,1.8225,1.8177,1.7721,1.8019,1.8288,1.824,1.8235,1.8331,1.8573,1.8626,1.818,1.7168,1.6708,1.6482,1.6518,1.6518,1.6528,1.6492,1.6472,1.6301,1.5979,1.5921,1.5921,1.5921,1.5584,1.541,1.541,1.541,1.541,0.0,0.0,0.0,0.0,0.0,0.0,0.0,0.4541,0.4635,0.4852,0.49,0.4889,0.5078,0.5273,0.5616,0.6375,0.7462,0.8484,0.9204,1.0047,1.0364,0.9658,1.0174,1.0301,0.9594,1.0174,1.0681,1.0969,1.1186,1.1402,1.1765,1.291,1.4039,1.5061,1.5356,1.6298,1.8008,1.7285,1.7285,1.8008,1.8008,1.8008,1.8008,1.8008,1.8008,1.8037,1.8545,1.8809,1.8916,1.9355,1.9541,1.9541,1.9541,1.9268,1.8877,1.8789,1.8496,1.8135,1.8135,1.8076,1.8008,1.8008,1.8008,1.8008,1.8008,1.8008,1.8027,1.8105,1.8135,1.8154,1.8232,1.8262,1.8262,1.8262,1.8262,1.8321,1.8527,1.8458,1.8456,1.8592,1.8454,1.8337,1.8462,1.911,1.9369,1.8795,1.9484,1.9941,1.9696,1.9627,1.9726,1.9961,1.9968,1.9408,1.81,1.72,1.7034,1.7797,1.7688,1.7413,1.6922,1.7357,1.7302,1.6708,1.6708,1.6652,1.6492,1.5921,1.5633,1.5633,1.5633,1.5526,0.2852,0.4039,0.4432,0.4086,0.4255,0.4514,0.0,0.467,0.4711,0.4867,0.4996,0.5087,0.5108,0.5864,0.6559,0.6624,0.8076,0.921,0.9274,1.0047,1.0561,1.0498,1.0561,1.0561,1.0428,1.0561,1.0681,1.0969,1.1768,1.2483,1.3031,1.3984,1.5103,1.6347,1.6401,1.6922,1.8008,1.7862,1.7862,1.8008,1.8008,1.8008,1.8008,1.8008,1.8008,1.8057,1.8867,1.9424,1.9805,2.0244,2.042,2.042,2.042,2.0156,1.9727,1.9355,1.8936,1.8494,1.8494,1.832,1.8008,1.8008,1.8008,1.8008,1.8008,1.8008,1.8086,1.8457,1.8494,1.8652,1.9043,1.9141,1.9141,1.9141,1.9141,1.9419,2.0326,2.0063,1.9965,2.0841,2.0038,1.9431,2.0204,2.0398,2.0182,1.9367,1.9987,2.0574,2.0805,2.0794,2.0901,2.1275,2.1281,2.0767,1.9487,1.8224,1.7797,1.8555,1.7961,1.7841,1.8447,1.7895,1.7578,1.7468,1.7468,1.7135,1.6492,1.6436,1.6379,1.6379,1.6379,1.6036,0.0609,0.3181,0.4501,0.4484,0.4541,0.4619,0.4745,0.4765,0.4863,0.5013,0.5091,0.5159,0.5247,0.6025,0.685,0.7372,0.8484,0.9466,0.9983,1.0364,1.0624,1.0624,1.0982,1.1108,1.0624,1.1045,1.1496,1.2071,1.2887,1.3715,1.4347,1.528,1.6042,1.6558,1.7139,1.7579,1.8008,1.8008,1.8008,1.8008,1.8008,1.8008,1.8008,1.8008,1.8281,1.8789,1.9394,1.9893,2.0303,2.0488,2.0566,2.0566,2.0566,2.0449,2.0244,1.9805,1.9385,1.9014,1.9014,1.874,1.8418,1.8672,1.8584,1.8418,1.8672,1.875,1.8789,1.8965,1.9014,1.9053,1.9238,1.9287,1.9287,1.9287,1.9775,2.0135,1.9991,2.0597,2.1199,2.1073,2.0749,2.0621,2.1016,2.1232,2.1227,2.0846,2.1542,2.2103,2.2188,2.2224,2.2135,2.1963,2.1317,2.0807,2.0699,1.9773,1.94,1.9822,1.9582,1.921,1.8727,1.8821,1.8661,1.8232,1.8221,1.8112,1.7797,1.7357,1.7344,1.7685,1.7685,1.7665,-0.1912,0.2041,0.4504,0.4531,0.4616,0.4714,0.4865,0.4904,0.5078,0.5474,0.557,0.5607,0.5727,0.6658,0.7567,0.7957,0.8941,0.9849,1.0498,1.0624,1.0624,1.0624,1.1288,1.1622,1.1107,1.1851,1.2592,1.3196,1.4106,1.4909,1.5553,1.6498,1.6991,1.6991,1.7647,1.8008,1.8008,1.8008,1.8008,1.8008,1.8269,1.8202,1.8018,1.8125,1.8584,1.9307,1.9736,2.0166,2.0644,2.0857,2.0857,2.0644,2.0867,2.0867,2.0527,2.0215,1.9824,1.9463,1.9463,1.918,1.8867,1.9189,1.9072,1.8877,1.9189,1.9287,1.9307,1.9424,1.9463,1.9492,1.9609,1.9639,1.9639,1.9639,2.0419,2.0989,2.0565,2.1659,2.2616,2.219,2.2071,2.2019,2.2078,2.215,2.2181,2.2211,2.2763,2.3078,2.3078,2.3078,2.2975,2.2585,2.1559,2.1125,2.1663,2.1104,2.079,2.0916,2.0891,2.0474,1.9504,1.9986,2.0039,1.948,1.9492,1.9372,1.9155,1.8649,1.8577,1.9,1.9,1.9263,-0.2642,0.1536,0.4528,0.4653,0.4687,0.4765,0.5053,0.5121,0.5417,0.6412,0.6645,0.6645,0.6654,0.8091,0.8941,0.8156,0.9454,1.0561,1.0624,1.0624,1.0624,1.0624,1.1288,1.1962,1.23,1.3084,1.3677,1.4057,1.5274,1.6193,1.654,1.7432,1.794,1.794,1.8008,1.8008,1.8008,1.8008,1.8008,1.8008,1.8854,1.8854,1.8018,1.8428,1.8857,1.9307,1.9736,2.0166,2.0634,2.1593,2.1441,2.0722,2.1593,2.1375,2.0566,2.0547,2.0273,1.9893,1.9893,1.9619,1.9268,1.9287,1.9277,1.9268,1.9287,1.9287,1.9375,1.9785,1.9893,1.999,2.042,2.0527,2.0527,2.0527,2.1257,2.2211,2.3176,2.3766,2.4414,2.5294,2.4371,2.352,2.3891,2.325,2.2778,2.3019,2.3065,2.3078,2.3078,2.3078,2.3065,2.3053,2.2552,2.2226,2.2284,2.1794,2.1481,2.1468,2.1468,2.1455,2.143,2.1443,2.1443,2.143,2.143,2.1082,2.0375,2.0318,2.0318,2.0342,2.0342,2.0558,-0.4819,0.0505,0.4548,0.4697,0.485,0.5016,0.5108,0.5209,0.5556,0.651,0.6268,0.6207,0.7372,0.8027,0.8549,0.8812,0.9849,1.0624,1.0624,1.0624,1.0807,1.1344,1.2336,1.3279,1.397,1.4301,1.4753,1.5389,1.6383,1.714,1.7482,1.7862,1.8008,1.8008,1.8008,1.8269,1.8854,1.8844,1.9177,1.9748,2.0009,1.9854,1.9305,1.9756,1.9857,1.9727,2.0156,2.043,2.0644,2.0934,2.0857,2.0644,2.0934,2.0857,2.0566,2.0566,2.0469,2.0342,2.0342,2.0068,1.9746,2.0039,1.9941,1.9756,2.0049,2.0137,2.0166,2.0303,2.0342,2.0381,2.0527,2.0566,2.0566,2.0566,2.1821,2.2925,2.2553,2.4186,2.5603,2.5244,2.5012,2.4917,2.5018,2.4201,2.3468,2.3165,2.3078,2.3078,2.3078,2.3078,2.3078,2.3078,2.2915,2.2862,2.2862,2.2686,2.2422,2.2058,2.2033,2.187,2.1506,2.1493,2.1493,2.1493,2.1493,2.1369,2.1131,2.1131,2.1317,2.1675,2.1675,2.1901,-0.6743,-0.12,0.3137,0.4045,0.469,0.5095,0.5203,0.5247,0.5535,0.6432,0.6125,0.6041,0.7191,0.7904,0.8446,0.8796,0.9843,1.0681,1.0989,1.1052,1.1351,1.2143,1.3314,1.4353,1.5061,1.554,1.6038,1.6552,1.7235,1.7849,1.8442,1.8134,1.8134,1.8462,1.8134,1.8269,1.8854,1.911,1.9879,2.1037,2.0963,2.0676,2.04,2.0691,2.0512,1.9941,2.0381,2.0566,2.0644,2.0934,2.0934,2.0644,2.0934,2.0934,2.0566,2.0566,2.0566,2.0566,2.0566,2.0381,2.0195,2.0478,2.0381,2.0195,2.0478,2.0566,2.0566,2.0566,2.0566,2.0566,2.0566,2.0566,2.0712,2.1011,2.2038,2.2925,2.2627,2.4325,2.5804,2.5158,2.5509,2.5837,2.5636,2.4707,2.3803,2.3165,2.3078,2.3078,2.3078,2.3078,2.3078,2.3078,2.3078,2.3078,2.3078,2.3078,2.2927,2.2623,2.2611,2.2447,2.2096,2.2071,2.2071,2.2071,2.2071,2.2071,2.2071,2.2071,2.2259,2.2611,2.2611,2.2799,-0.7981,-0.3078,0.0537,0.2839,0.4301,0.5257,0.5453,0.5301,0.5378,0.6249,0.6227,0.622,0.6399,0.7794,0.8747,0.8163,0.9494,1.0905,1.171,1.1834,1.2143,1.2948,1.4153,1.5105,1.5606,1.6785,1.7543,1.7543,1.785,1.8462,1.9243,1.8529,1.8462,1.9299,1.8462,1.8008,1.8144,1.9065,2.0366,2.1987,2.1717,2.1441,2.1275,2.1375,2.0946,1.9971,2.0458,2.0634,2.0712,2.1659,2.1441,2.0789,2.1593,2.1375,2.0566,2.0566,2.0566,2.0566,2.0566,2.0566,2.0566,2.0566,2.0566,2.0566,2.0566,2.0566,2.0566,2.0566,2.0566,2.0566,2.0566,2.0566,2.0779,2.1735,2.2027,2.2328,2.3294,2.4264,2.5016,2.5087,2.5873,2.6276,2.5699,2.4732,2.3841,2.3263,2.309,2.3078,2.3078,2.3078,2.3078,2.3078,2.3078,2.3078,2.3078,2.3078,2.3078,2.3078,2.3078,2.3078,2.3078,2.3078,2.3078,2.3078,2.3078,2.3078,2.3078,2.3078,2.3078,2.3078,2.3078,2.3078,-0.434,-0.0835,0.0798,0.3993,0.6012,0.7037,0.6301,0.6105,0.6095,0.6206,0.5722,0.5646,0.6954,0.75,0.7935,0.8612,1.0065,1.1306,1.1735,1.2328,1.3,1.3786,1.4755,1.5914,1.7223,1.8274,1.9065,1.977,1.9302,1.9044,1.9299,1.911,1.9044,1.9299,1.8462,1.8586,1.9944,2.1865,2.2992,2.3455,2.3796,2.3368,2.2347,2.232,2.1692,2.0477,2.1324,2.1659,2.1659,2.1886,2.1886,2.1593,2.1155,2.0789,2.0566,2.0566,2.0566,2.0566,2.0566,2.0566,2.0566,2.0566,2.0566,2.0566,2.0566,2.0566,2.0566,2.0566,2.0566,2.0566,2.0566,2.0566,2.0644,2.0934,2.2038,2.322,2.3441,2.4264,2.5229,2.5955,2.6314,2.6276,2.5699,2.5046,2.4418,2.3866,2.3414,2.3078,2.3078,2.3078,2.3078,2.3078,2.3078,2.3078,2.3078,2.3078,2.3078,2.3078,2.3078,2.3078,2.3078,2.3078,2.3078,2.3078,2.3078,2.3078,2.3078,2.3078,2.3078,2.3078,2.3078,2.3078,-0.1662,0.331,0.6532,0.5574,0.7067,0.8504,0.7173,0.6748,0.6584,0.6529,0.5802,0.5486,0.6555,0.7254,0.7821,0.8371,1.0301,1.1936,1.2281,1.327,1.4287,1.5138,1.6305,1.7451,1.8401,1.9327,2.0074,2.059,2.0139,2.0009,2.0398,2.0074,2.0074,2.0398,1.9628,1.9921,2.1498,2.2775,2.3714,2.4368,2.4908,2.4273,2.2715,2.3379,2.282,2.1221,2.1735,2.2027,2.1952,2.1593,2.1375,2.1298,2.0789,2.0566,2.0566,2.0566,2.0566,2.0566,2.0566,2.0566,2.0566,2.0566,2.0566,2.0566,2.0566,2.0566,2.0566,2.0566,2.0566,2.0566,2.0566,2.0566,2.0712,2.1155,2.1745,2.2339,2.2776,2.3294,2.4108,2.5581,2.6164,2.6276,2.5699,2.536,2.4983,2.4443,2.3879,2.3514,2.3514,2.3288,2.3078,2.3078,2.3078,2.3078,2.3078,2.3078,2.3078,2.3078,2.3078,2.3078,2.3078,2.3078,2.3078,2.3078,2.3078,2.3078,2.3078,2.3078,2.3078,2.3078,2.3078,2.3078,0.055,0.7036,1.3116,0.7822,0.8375,0.9884,0.8221,0.7528,0.7172,0.7033,0.6262,0.5648,0.5758,0.7058,0.8101,0.7814,1.0436,1.2647,1.3005,1.4477,1.5736,1.6425,1.8054,1.9171,1.9231,2.0195,2.0846,2.091,2.091,2.1239,2.1877,2.1175,2.1049,2.169,2.1169,2.1486,2.2714,2.2934,2.3701,2.4933,2.546,2.4715,2.2827,2.4354,2.3818,2.1811,2.2253,2.2253,2.1962,2.1308,2.0944,2.0789,2.0644,2.0566,2.0566,2.0566,2.0566,2.0566,2.0566,2.0566,2.0566,2.0566,2.0566,2.0566,2.0566,2.0566,2.0566,2.0566,2.0566,2.0566,2.0566,2.0712,2.0934,2.1669,2.1375,2.1155,2.1886,2.2178,2.285,2.4492,2.5734,2.6302,2.5799,2.5649,2.5435,2.4996,2.4456,2.4079,2.4004,2.3489,2.3078,2.3078,2.3078,2.3078,2.3078,2.3078,2.3078,2.3078,2.3078,2.3078,2.3078,2.3078,2.3078,2.3078,2.3078,2.3078,2.3078,2.3078,2.3078,2.3078,2.3078,2.3078,0.358,0.4446,0.9628,1.1989,1.2533,1.1953,1.0171,0.9232,0.8551,0.7668,0.6912,0.6213,0.5639,0.7203,0.8483,0.8078,1.0804,1.3108,1.3442,1.5089,1.6358,1.6492,1.8054,1.9408,2.0122,2.1077,2.1939,2.2628,2.2689,2.2433,2.1939,2.1753,2.1428,2.0846,2.1836,2.2438,2.2726,2.4312,2.5228,2.5473,2.6038,2.5284,2.3391,2.4517,2.3452,2.1011,2.3452,2.3526,2.2027,2.2702,2.2478,2.1669,2.0934,2.0566,2.0566,2.0566,2.0566,2.0566,2.0566,2.0566,2.0566,2.0566,2.0566,2.0566,2.0566,2.0566,2.0566,2.0566,2.0566,2.0566,2.0566,2.1155,2.1593,2.1011,2.1973,2.2776,2.2103,2.3294,2.4337,2.3818,2.5205,2.6496,2.6327,2.5912,2.5561,2.5473,2.5008,2.4519,2.4054,2.3489,2.3078,2.3078,2.3078,2.3078,2.3078,2.3078,2.3078,2.3078,2.3078,2.3078,2.3078,2.3078,2.3078,2.3078,2.3078,2.3078,2.3078,2.3078,2.3078,2.3078,2.3078,2.3078,0.7523,0.689,0.7971,1.2078,1.29,1.241,1.1056,1.0394,0.9806,0.8915,0.8462,0.7982,0.7298,0.8593,0.9777,0.9699,1.1716,1.3481,1.4017,1.5618,1.6819,1.7058,1.9022,2.0538,2.0949,2.193,2.2871,2.3649,2.3365,2.2944,2.258,2.2506,2.2505,2.2345,2.2989,2.3658,2.4198,2.5124,2.5749,2.605,2.6327,2.5721,2.4337,2.5288,2.4696,2.2936,2.442,2.4192,2.2776,2.2776,2.2113,2.1221,2.0789,2.0566,2.0566,2.0566,2.0566,2.0566,2.0566,2.0566,2.0566,2.0566,2.0566,2.0566,2.0566,2.0566,2.0566,2.0566,2.0566,2.0566,2.0566,2.0934,2.1298,2.1298,2.2038,2.2627,2.2103,2.3147,2.4264,2.4264,2.5499,2.6533,2.6533,2.6226,2.605,2.605,2.5573,2.5121,2.487,2.4356,2.3791,2.3128,2.3078,2.3078,2.3078,2.3078,2.3078,2.3078,2.3078,2.3078,2.3078,2.3078,2.3078,2.3078,2.3078,2.3078,2.3078,2.3078,2.3078,2.3078,2.3078,2.3078,1.1736,1.176,0.9653,1.2133,1.293,1.2805,1.1844,1.1336,1.0864,1.0364,0.9982,0.9541,0.903,0.9944,1.083,1.1017,1.2507,1.3844,1.4344,1.5999,1.7296,1.7577,1.9946,2.1564,2.1733,2.2764,2.3683,2.4509,2.393,2.3531,2.3365,2.3311,2.3576,2.4215,2.428,2.4745,2.5586,2.5724,2.6013,2.6533,2.6533,2.5955,2.5016,2.5804,2.5652,2.4707,2.4933,2.4337,2.3147,2.2553,2.1669,2.0566,2.0566,2.0566,2.0566,2.0566,2.0566,2.0566,2.0566,2.0566,2.0566,2.0566,2.0566,2.0566,2.0566,2.0566,2.0566,2.0566,2.0566,2.0566,2.0566,2.0789,2.1078,2.1811,2.1886,2.1735,2.1735,2.2627,2.3734,2.4564,2.5652,2.6533,2.6533,2.6533,2.6533,2.6533,2.6076,2.5737,2.5611,2.5247,2.4607,2.3602,2.3389,2.3215,2.3078,2.3078,2.3078,2.3078,2.3078,2.3078,2.3078,2.3078,2.3078,2.3078,2.3078,2.3078,2.3078,2.3078,2.3078,2.3078,2.3078,2.314,1.5623,1.8366,1.7114,1.5268,1.4896,1.4575,1.3086,1.2215,1.1715,1.1616,1.0661,0.974,0.9636,1.0273,1.0805,1.083,1.2767,1.4276,1.4165,1.6238,1.7769,1.762,1.9957,2.1852,2.2418,2.3568,2.4559,2.5245,2.5231,2.4894,2.4234,2.4042,2.4226,2.4983,2.5294,2.5498,2.5598,2.6113,2.6483,2.6533,2.6533,2.5955,2.5004,2.5087,2.4564,2.3661,2.4636,2.3891,2.2178,2.2999,2.2264,2.0566,2.0566,2.0566,2.0566,2.0566,2.0566,2.0566,2.0566,2.0566,2.0566,2.0566,2.0566,2.0566,2.0566,2.0566,2.0566,2.0566,2.0566,2.0566,2.0566,2.1221,2.1886,2.1952,2.1375,2.0712,2.0712,2.2188,2.3514,2.3599,2.5205,2.6533,2.6533,2.6533,2.6533,2.6533,2.6483,2.6189,2.5661,2.5548,2.531,2.4732,2.4217,2.3703,2.3175,2.3078,2.3078,2.3078,2.3078,2.3078,2.3078,2.3078,2.3078,2.3078,2.3078,2.3078,2.3078,2.3078,2.3078,2.3078,2.3078,2.3414,1.7145,1.8103,1.7568,1.6166,1.5837,1.5527,1.4204,1.3684,1.3371,1.2982,1.2781,1.279,1.3,1.3081,1.3424,1.4496,1.456,1.5063,1.6691,1.7846,1.8778,1.9331,2.1066,2.2444,2.3158,2.3955,2.4667,2.5356,2.5783,2.596,2.5618,2.552,2.5475,2.5577,2.6127,2.6268,2.6113,2.6352,2.6533,2.6533,2.6533,2.6314,2.5873,2.5873,2.5652,2.5346,2.5721,2.5134,2.3818,2.3588,2.2702,2.1375,2.0779,2.0566,2.0566,2.0566,2.0566,2.0566,2.0566,2.0566,2.0566,2.0566,2.0566,2.0566,2.0566,2.0566,2.0566,2.0566,2.0566,2.0566,2.0566,2.1298,2.1886,2.1298,2.1298,2.1441,2.1441,2.2553,2.3672,2.4264,2.5511,2.6533,2.6533,2.6533,2.6533,2.6533,2.6533,2.6445,2.6151,2.6113,2.59,2.5347,2.4808,2.4393,2.4167,2.3841,2.3653,2.3653,2.3326,2.3078,2.3078,2.3078,2.3078,2.3078,2.3078,2.3078,2.3078,2.3078,2.3314,2.3653,2.3653,2.3954,1.8371,1.8096,1.7886,1.7164,1.6896,1.6536,1.5516,1.4934,1.4563,1.4451,1.4337,1.4564,1.5425,1.5142,1.5277,1.6712,1.6065,1.6126,1.8248,1.8954,1.96,2.0479,2.18,2.2951,2.3862,2.4803,2.5558,2.6026,2.6549,2.6826,2.6826,2.7164,2.7099,2.6627,2.6974,2.7197,2.7217,2.6782,2.6589,2.685,2.6589,2.6533,2.6465,2.6164,2.6245,2.6452,2.6164,2.5664,2.4933,2.3891,2.2925,2.1886,2.0934,2.0566,2.0566,2.0566,2.0566,2.0566,2.0566,2.0566,2.0566,2.0566,2.0566,2.0566,2.0566,2.0566,2.0566,2.0566,2.0566,2.0566,2.0566,2.1078,2.1517,2.1078,2.1517,2.2103,2.2403,2.322,2.4181,2.4862,2.5804,2.6533,2.6533,2.6533,2.6533,2.6533,2.6533,2.6533,2.6533,2.6533,2.637,2.59,2.5523,2.5172,2.4845,2.4469,2.4243,2.4243,2.3703,2.3389,2.3389,2.3165,2.3078,2.3078,2.3078,2.3078,2.3078,2.3314,2.3602,2.4004,2.4167,2.4531,1.9678,1.9702,1.9523,1.875,1.8275,1.7783,1.705,1.5684,1.4924,1.6028,1.4844,1.4167,1.5973,1.5727,1.5531,1.6186,1.6796,1.7336,1.7831,1.903,2.0093,2.0527,2.181,2.3198,2.4563,2.6406,2.756,2.7575,2.7575,2.7575,2.7575,2.8846,2.9153,2.8325,2.7868,2.8103,2.9002,2.7351,2.6905,2.767,2.6905,2.6533,2.6452,2.5441,2.5594,2.6452,2.5441,2.5004,2.4933,2.3891,2.2925,2.1886,2.0934,2.0566,2.0566,2.0566,2.0566,2.0566,2.0566,2.0566,2.0566,2.0566,2.0566,2.0566,2.0566,2.0566,2.0566,2.0566,2.0566,2.0566,2.0566,2.0644,2.0857,2.1735,2.1952,2.2253,2.3294,2.4264,2.5016,2.5004,2.5804,2.6533,2.6533,2.6533,2.6533,2.6533,2.6533,2.6533,2.6533,2.6533,2.6533,2.6521,2.6508,2.6,2.4921,2.4808,2.4808,2.4808,2.4293,2.3991,2.3991,2.3439,2.3078,2.3078,2.3078,2.3078,2.3078,2.3715,2.3991,2.4017,2.4556,2.5096,1.8363,2.0401,1.9821,2.0257,1.9762,1.8693,1.6911,1.6913,1.7156,1.6439,1.6695,1.7422,1.8788,1.8228,1.7879,1.8877,1.8527,1.8711,2.0258,2.0848,2.1522,2.2553,2.386,2.4843,2.5257,2.6683,2.7625,2.7625,2.7625,2.7625,2.7625,2.8427,2.871,2.8311,2.9054,2.9066,2.8117,2.7604,2.7162,2.6905,2.6589,2.6533,2.6465,2.6164,2.6164,2.6452,2.6164,2.6025,2.5873,2.4181,2.3294,2.285,2.1231,2.0566,2.0566,2.0566,2.1011,2.1441,2.0779,2.1011,2.1441,2.0789,2.0566,2.0566,2.0566,2.0566,2.0566,2.0566,2.0566,2.0566,2.0566,2.0566,2.0634,2.1011,2.1517,2.2103,2.2403,2.3818,2.5004,2.5004,2.5804,2.6533,2.6533,2.6533,2.6533,2.6533,2.6533,2.6533,2.6533,2.6533,2.6533,2.6533,2.6533,2.6314,2.5963,2.5573,2.536,2.536,2.4858,2.4556,2.4556,2.4381,2.4104,2.3728,2.4092,2.4104,2.3728,2.4293,2.4745,2.5109,2.5674,2.6025,1.284,1.7265,2.1124,2.0733,2.0448,1.9891,1.8403,1.8232,1.8323,1.8128,1.8232,1.8803,2.0302,1.9828,1.9536,2.0418,1.9828,1.9886,2.1689,2.1798,2.2173,2.3445,2.4792,2.5615,2.5615,2.6797,2.7625,2.7625,2.7625,2.7625,2.7625,2.8233,2.8545,2.8426,2.9377,2.9647,2.9129,2.8182,2.7604,2.7417,2.6782,2.6533,2.6533,2.6533,2.6533,2.6533,2.6533,2.6533,0.0,2.4325,2.3514,2.3294,2.1385,2.0566,2.0644,2.1011,2.1517,2.1886,2.1298,2.1517,2.1886,2.0934,2.0566,2.0566,2.0566,2.0566,2.0566,2.0566,2.0566,2.0566,2.0566,2.0566,2.0722,2.1001,2.1886,2.2702,2.3073,2.4397,2.5581,2.5581,2.6094,2.6533,2.6533,2.6533,2.6533,2.6533,2.6533,2.6533,2.6533,2.6533,2.6533,2.6533,2.6533,2.6533,2.6533,2.6138,2.5925,2.5925,2.541,2.5109,2.5109,2.4921,2.4657,2.4318,2.4644,2.4657,2.4305,2.4845,2.5385,2.5937,2.6289,2.6533,0.0,1.2549,2.3096,2.0561,2.0559,2.1139,2.0894,1.948,0.0,2.052,1.948,1.8809,2.0684,2.0682,2.055,2.0959,2.0697,2.0876,2.2167,2.2093,2.2359,2.3649,2.4852,2.5676,2.58,2.6876,2.7625,2.766,2.7625,2.7625,2.7625,2.8173,2.8547,2.8607,2.8995,2.9944,3.1334,2.9038,2.8247,2.8876,2.7351,2.6589,2.6533,2.6533,2.6533,2.6533,2.6533,2.6533,2.6314,2.4325,2.3514,2.3294,2.1385,2.0566,2.0712,2.1593,2.1952,2.1952,2.1952,2.1952,2.1886,2.0934,2.0566,2.0566,2.0566,2.0566,2.0566,2.0566,2.0566,2.0566,2.0566,2.0566,2.0867,2.1811,2.2776,2.3745,2.4779,2.5804,2.6533,2.6533,2.6533,2.6533,2.6533,2.6533,2.6533,2.6533,2.6533,2.6533,2.6533,2.6533,2.6533,2.6533,2.6533,2.6533,2.6533,2.6533,2.6533,2.6533,2.595,2.5649,2.5649,2.5262,2.4973,2.487,2.487,2.4895,2.4946,2.5489,2.6059,2.6589,2.6589,2.6589,1.8629,0.0,2.3418,2.2271,2.1591,2.0829,0.0,0.0,0.0,0.0,0.0,2.0895,2.1383,2.1368,2.1321,2.143,2.1536,2.189,2.2778,2.339,2.4234,2.5526,2.5647,2.6138,2.758,2.7668,2.781,2.8238,2.786,2.7625,2.7625,2.7775,2.8053,2.8577,2.8717,2.9086,2.9784,2.9708,2.9129,2.7986,2.7604,2.7095,2.6533,2.6533,2.6533,2.6533,2.6533,2.6533,2.6314,2.4325,2.3514,2.3294,2.1385,2.0566,2.0644,2.0857,2.1375,2.1886,2.1155,2.1375,2.1886,2.0934,2.0566,2.0566,2.0566,2.0566,2.0566,2.0566,2.0566,2.0566,2.0566,2.0566,2.0867,2.1811,2.2776,2.3745,2.4779,2.5804,2.6533,2.6533,2.6533,2.6533,2.6533,2.6533,2.6533,2.6533,2.6533,2.6533,2.6533,2.6533,2.6533,2.6533,2.6533,2.6533,2.6533,2.6533,2.6533,2.6533,2.6395,2.6319,2.6319,2.6773,2.649,2.5423,2.541,2.5636,2.6076,2.6824,2.7274,2.7417,2.7417,2.7417,2.2616,2.3983,2.3575,2.2523,2.2224,2.177,2.0092,0.0,0.0,0.0,0.0,2.1475,2.2017,2.1832,2.1658,2.1899,2.2145,2.2619,2.3474,2.4268,2.5163,2.6158,2.6075,2.6639,2.8238,2.7888,2.7944,2.8873,2.8367,2.7993,2.7993,2.7993,2.8026,2.8113,2.8442,2.8857,2.943,2.9711,2.9158,2.7843,2.7735,2.7297,2.6533,2.6533,2.6533,2.6533,2.6533,2.6533,2.6314,2.4325,2.3514,2.3294,2.1385,2.0566,2.0634,2.1078,2.1897,2.2553,2.1593,2.1298,2.1298,2.0789,2.0566,2.0566,2.0566,2.0566,2.0566,2.0566,2.0566,2.0712,2.1155,2.1221,2.1527,2.2478,2.3441,2.4337,2.4862,2.5804,2.6533,2.6533,2.6533,2.6533,2.6533,2.6533,2.6533,2.6533,2.6533,2.6533,2.6533,2.6533,2.6533,2.6533,2.6533,2.6533,2.6533,2.685,2.6905,2.6521,2.6533,2.6533,2.6533,2.7297,2.7327,2.6565,2.6552,2.6719,2.704,2.7484,2.767,2.767,2.767,2.7484,2.2202,2.3007,2.3502,2.2203,2.2656,2.3033,2.1636,0.0,0.0,0.0,0.0,2.1632,2.2548,2.2262,2.2022,2.2485,2.2929,2.3522,2.4366,2.4965,2.568,2.6597,2.6609,2.7142,2.8656,2.8264,2.8352,2.9451,2.8966,2.8606,2.8511,2.8511,2.8238,2.7625,2.8143,2.8712,2.9265,2.93,2.8881,2.7905,2.7766,2.7287,2.6395,2.6483,2.6533,2.6533,2.6533,2.6533,2.6314,2.4325,2.3588,2.3514,2.1461,2.0789,2.1088,2.1735,2.2627,2.3368,2.2328,2.1441,2.0789,2.0789,2.0712,2.0644,2.0789,2.0712,2.0566,2.0566,2.0566,2.0789,2.1735,2.2027,2.2253,2.3441,2.4409,2.5004,2.5229,2.5873,2.6533,2.6533,2.6533,2.6533,2.6533,2.6533,2.6533,2.6533,2.6533,2.6533,2.6533,2.6533,2.6533,2.6533,2.6533,2.6533,2.6533,2.7095,2.7229,2.6521,2.6589,2.6714,2.6905,2.7417,2.7736,2.792,2.7802,2.767,2.767,2.7868,2.7986,2.8117,2.7986,2.7604,2.1764,2.247,2.2944,2.2761,2.3065,2.3265,2.2787,0.0,0.0,0.0,0.0,0.0,2.2737,2.2988,2.3324,2.3667,2.4827,2.5681,2.57,2.5822,2.6545,2.8384,2.7736,2.81,3.0537,2.9783,2.9406,3.0123,2.9585,2.9042,2.8511,2.8511,2.8238,2.7625,2.773,2.7784,2.7925,2.8994,2.8824,2.7345,2.7769,2.7176,2.5749,2.6239,2.6533,2.6533,2.6533,2.6533,2.6314,2.4325,2.3963,2.4492,2.168,2.1603,2.2999,2.2253,2.2627,2.3368,2.2328,2.1886,2.1811,2.1811,2.1231,2.0789,2.1517,2.1221,2.0566,2.0566,2.0566,2.0789,2.1735,2.2027,2.2478,2.4337,2.4862,2.5229,2.6094,2.6383,2.6533,2.6533,2.6533,2.6533,2.6533,2.6533,2.6533,2.6533,2.6533,2.6533,2.6533,2.6533,2.6533,2.6533,2.6533,2.6533,2.6533,2.6589,2.6658,2.6533,2.7162,2.7855,2.862,2.8051,2.8051,2.8812,2.8051,2.767,2.767,2.8427,2.9192,2.9889,2.9129,2.9129,2.166,2.2416,2.3071,2.3548,2.3802,2.3766,2.3112,0.0,0.0,0.0,0.0,0.0,2.344,2.3316,2.3543,2.4443,2.5677,2.6586,2.6704,2.7063,2.7707,2.8876,2.8599,2.9083,3.0993,3.0123,2.9805,3.0699,3.0208,2.9761,2.9496,2.918,2.8732,2.8091,2.776,2.7625,2.7625,2.8188,2.7875,2.6665,2.7272,2.6937,2.5769,2.5633,2.5813,2.6181,2.6051,2.5988,2.5945,2.4803,2.4564,2.4791,2.2936,2.2702,2.3514,2.3588,2.3588,2.3441,2.2999,2.2776,2.2702,2.2178,2.2113,2.2264,2.2702,2.2113,2.1375,2.1375,2.1375,2.1593,2.2553,2.322,2.3963,2.5441,2.5804,2.5955,2.6383,2.6533,2.6533,2.6533,2.6533,2.6533,2.6533,2.6533,2.6533,2.6533,2.6533,2.6533,2.6533,2.6533,2.6533,2.6533,2.6533,2.6533,2.6533,2.6905,2.6973,2.6521,2.7297,2.8117,2.8939,2.9066,2.9317,2.969,2.9317,2.9129,2.9129,2.9504,2.9889,3.0269,2.938,2.9192,2.166,2.246,2.3213,2.4032,0.0,0.0,0.0,0.0,0.0,0.0,2.4221,2.4026,2.4063,2.3907,2.4195,2.5393,2.6499,2.7207,2.7278,2.793,2.856,2.8963,2.9324,2.9967,3.1067,3.0444,3.0302,3.1151,3.0781,3.0435,3.0293,2.9717,2.9134,2.8511,2.7894,2.7625,2.7625,2.7625,2.7059,2.6031,2.6812,2.6617,2.5426,2.5154,2.5281,2.5647,2.547,2.541,2.5394,2.496,2.4967,2.5049,2.3918,2.3661,2.3963,2.5004,2.485,2.4181,2.3963,2.3818,2.3745,2.2925,2.3073,2.3514,2.3818,2.3147,2.2328,2.2328,2.2553,2.285,2.3368,2.4264,2.5229,2.6245,2.6533,2.6533,2.6533,2.6533,2.6533,2.6533,2.6533,2.6533,2.6533,2.6533,2.6533,2.6533,2.6533,2.6533,2.6533,2.6533,2.6533,2.6533,2.6658,2.6782,2.6782,2.755,2.767,2.685,2.7351,2.8182,2.9254,2.995,3.0329,3.0329,3.0329,3.0329,3.0329,3.0329,3.0389,3.0584,2.969,2.938,2.166,2.2342,2.3013,2.3815,2.4451,0.0,2.4927,2.4639,0.0,2.47,2.4756,2.4644,2.4342,2.5318,2.6352,2.6952,2.7756,2.804,2.7391,2.793,2.856,2.8963,2.9933,3.0743,3.1145,3.1452,3.1511,3.123,3.1151,3.0878,3.0351,2.9717,2.9134,2.8511,2.7894,2.7625,2.7625,2.7625,2.6893,2.5467,2.672,2.6164,2.4192,2.5325,2.5508,2.4885,2.4858,2.487,2.4856,2.4418,2.4759,2.5431,2.4057,2.4036,2.5004,2.6025,2.6383,2.6164,2.5217,2.4862,2.4862,2.4791,2.4192,2.3661,2.4636,2.4192,2.3368,2.3368,2.4036,2.4564,2.3745,2.4264,2.5229,2.6245,2.6533,2.6533,2.6533,2.6533,2.6533,2.6533,2.6533,2.6533,2.6533,2.6533,2.6533,2.6533,2.6533,2.6533,2.6533,2.6533,2.6533,2.6533,2.7162,2.7604,2.7604,2.8427,2.8556,2.767,2.767,2.8427,3.0133,3.0269,3.0329,3.0329,3.0329,3.0329,3.0329,3.0329,3.0703,3.1409,3.0584,3.0584,2.2381,2.3239,2.3985,2.4784,2.5197,0.0,0.0,2.5053,2.5051,2.5088,2.54,2.5712,2.583,2.6632,2.7325,2.7474,2.8213,2.8608,2.8057,2.884,2.9537,2.9704,3.0716,3.1424,3.1568,3.1733,3.1623,3.123,3.119,3.1095,3.0878,3.0293,2.9673,2.9088,2.8448,2.7993,2.7625,2.7625,2.7086,2.6068,2.6565,2.6339,2.5531,2.5114,2.4985,2.513,2.4566,2.4305,2.4292,2.4493,2.4967,2.5582,2.5432,2.5581,2.5955,2.6383,2.6533,2.6383,2.537,2.5441,2.5804,2.5229,2.5146,2.5429,2.5804,2.5217,2.4409,2.4409,2.4719,2.4933,2.4564,2.5146,2.6025,2.6383,2.6533,2.6533,2.6533,2.6533,2.6533,2.6533,2.6533,2.6533,2.6533,2.6533,2.6533,2.6533,2.6533,2.6533,2.6533,2.6533,2.6714,2.7162,2.7986,2.8492,2.8492,2.8812,2.9066,2.9317,2.9317,2.9628,3.0269,3.0777,3.1029,3.1029,3.1029,3.1029,3.1029,3.1029,3.1219,3.1467,3.0644,3.0718,2.3042,2.3901,2.457,2.5424,0.0,0.0,2.5331,2.535,2.549,2.5669,2.6255,2.6806,2.7065,2.7601,2.8019,2.8113,2.8617,2.8863,2.8446,2.9301,2.9993,3.0181,3.1188,3.1864,3.179,3.1915,3.1806,3.123,3.119,3.119,3.119,3.0617,3.0021,2.9406,2.8826,2.8189,2.7625,2.7625,2.7357,2.6826,2.6826,2.6616,2.6122,2.5119,2.4794,2.4978,2.4133,2.3728,2.3766,2.433,2.4971,2.5636,2.6038,2.6302,2.6533,2.6533,2.6533,2.6383,2.5734,2.5943,2.6383,2.5734,2.5955,2.6533,2.6533,2.6025,2.5441,2.5441,2.5441,2.5441,2.5441,2.5955,2.6533,2.6533,2.6533,2.6533,2.6533,2.6533,2.6533,2.6533,2.6533,2.6533,2.6533,2.6533,2.6533,2.6533,2.6533,2.6533,2.6533,2.6714,2.7284,2.8427,2.9066,2.938,2.938,2.9628,2.995,3.0269,3.0524,3.0703,3.0703,3.1219,3.1482,3.1482,3.1482,3.1482,3.1482,3.1482,3.1482,3.1482,3.097,3.097,2.3485,2.414,2.4534,2.5468,2.5605,2.5527,2.5607,2.5551,2.5718,2.6477,2.7313,2.7879,2.7816,2.8128,2.8539,2.8942,2.9017,2.8863,2.8446,2.9097,2.9771,3.014,3.1273,3.1951,3.181,3.223,3.2109,3.1252,3.119,3.119,3.119,3.0617,3.0038,2.9406,2.8826,2.8238,2.761,2.7625,2.7625,2.7625,2.7625,2.6811,2.5398,2.5398,2.5007,2.4234,2.3424,2.3078,2.3175,2.3753,2.4619,2.5586,2.5586,2.5937,2.6508,2.6521,2.6521,2.6521,2.6533,2.6533,2.6533,2.6533,2.6533,2.6533,2.6533,2.6533,2.6533,2.6533,2.6533,2.6533,2.6533,2.6533,2.6533,2.6533,2.6533,2.6533,2.6533,2.6533,2.6533,2.6533,2.6533,2.6533,2.6533,2.6533,2.6533,2.6533,2.6533,2.6533,2.6533,2.7229,2.8363,3.0133,3.0329,3.0329,3.0329,3.1029,3.1161,3.0329,3.1087,3.1482,3.1482,3.1482,3.1482,3.1482,3.1482,3.1482,3.1482,3.1482,3.1482,3.1482,3.1482,3.1482,2.3751,2.4583,2.5271,2.5553,2.5641,2.5781,2.6371,2.6451,2.6753,2.7961,2.8394,2.8712,2.925,2.9213,2.9195,2.9438,2.9228,2.8952,2.8839,2.9264,2.9764,3.0158,3.0535,3.0916,3.1401,3.1322,3.1218,3.1179,3.119,3.119,3.119,3.1015,3.0658,3.0038,2.9451,2.881,2.8238,2.781,2.7625,2.7625,2.7625,2.7086,2.6176,2.5618,2.5007,2.4234,2.3424,2.3078,2.3175,2.3753,2.418,2.4506,2.4895,2.5159,2.5347,2.5724,2.585,2.5912,2.6314,2.6533,2.6533,2.6533,2.6533,2.6533,2.6533,2.6533,2.6533,2.6533,2.6533,2.6533,2.6533,2.6533,2.6533,2.6533,2.6533,2.6533,2.6533,2.6533,2.6533,2.6533,2.6533,2.6533,2.6533,2.6533,2.6533,2.6533,2.6533,2.6714,2.7297,2.8117,2.9066,3.0208,3.0837,3.1161,3.1161,3.1351,3.1409,3.1161,3.1351,3.1482,3.1482,3.1482,3.1482,3.1482,3.1482,3.1482,3.1482,3.1482,3.1482,3.1482,3.1482,3.1482,2.4273,2.5055,2.5605,2.5634,2.5623,2.5937,2.7132,2.7585,2.7961,2.8703,2.9174,2.9516,2.9832,2.9765,2.9626,2.9589,2.9334,2.9134,2.8998,2.9211,2.958,3.0131,3.0196,3.0367,3.0818,3.0648,3.0508,3.0509,3.0408,3.037,3.0523,3.0408,2.9967,2.913,2.9005,2.8586,2.7743,2.7625,2.7625,2.7625,2.7625,2.7188,2.6457,2.5728,2.5175,2.4681,2.359,2.3078,2.3103,2.3514,2.3791,2.4029,2.4368,2.4632,2.4858,2.5172,2.5285,2.5335,2.5686,2.5812,2.5812,2.5812,2.5812,2.5812,2.5812,2.5812,2.5812,2.5812,2.5963,2.6113,2.6113,2.6289,2.6533,2.6533,2.6533,2.6533,2.6533,2.6533,2.6533,2.6533,2.6533,2.6533,2.6533,2.6782,2.6837,2.6521,2.6782,2.7297,2.8117,2.9002,2.9827,3.0703,3.1219,3.1482,3.1482,3.1482,3.1482,3.1482,3.1482,3.1482,3.1482,3.1482,3.1482,3.1482,3.1482,3.1482,3.1482,3.1482,3.1482,3.1482,3.1482,3.1482,2.4812,2.5399,2.5607,2.5682,2.5723,2.6171,2.7835,2.8782,2.9254,2.9015,2.973,3.0273,2.9848,2.9893,2.9877,2.9513,2.9414,2.931,2.9067,2.9017,2.925,3.0008,3.0057,3.0057,3.0142,3.0092,2.9941,2.9589,2.9246,2.9193,2.9488,2.9175,2.8515,2.7501,2.7961,2.7727,2.6675,2.7255,2.7535,2.7535,2.7595,2.7255,2.6563,2.5783,2.5342,2.5119,2.3767,2.3198,2.3078,2.3078,2.3439,2.3916,2.3916,2.423,2.4682,2.4732,2.4745,2.4757,2.4808,2.482,2.482,2.482,2.482,2.482,2.482,2.482,2.482,2.482,2.5159,2.5536,2.5586,2.5988,2.6458,2.6521,2.6533,2.6533,2.6533,2.6589,2.6589,2.6589,2.6658,2.6714,2.6714,2.7351,2.7537,2.685,2.7351,2.8117,2.9002,2.9827,3.0584,3.1409,3.1482,3.1482,3.1482,3.1482,3.1482,3.1482,3.1482,3.1482,3.1482,3.1482,3.1482,3.1482,3.1482,3.1482,3.1482,3.1482,3.1482,3.1482,3.1482,3.1482,2.4499,2.5089,2.5603,2.5629,2.6677,2.7792,2.8125,2.9299,3.0277,3.0215,3.0308,3.0367,3.0273,3.0122,2.9969,2.9893,2.9607,2.9392,2.933,2.9134,2.9049,2.9232,2.8961,2.9024,2.9673,2.9443,2.9453,2.9945,2.9589,2.9437,2.9488,2.9175,2.8901,2.8645,2.7908,2.7392,2.7135,2.6915,2.6797,2.6811,2.732,2.7524,2.7306,2.6,2.4724,2.359,2.3884,2.3649,2.3078,2.3078,2.3213,2.3265,2.3265,2.3389,2.3552,2.4004,2.418,2.4243,2.4669,2.482,2.482,2.482,2.482,2.482,2.482,2.482,2.482,2.482,2.4895,2.5084,2.5485,2.5686,2.59,2.642,2.6533,2.6533,2.6533,2.6973,2.7417,2.7417,2.7986,2.8427,2.8427,2.862,2.8684,2.8492,2.862,2.9066,2.9889,3.0208,3.0584,3.1409,3.1482,3.1482,3.1482,3.1482,3.1482,3.1482,3.1482,3.1482,3.1482,3.1482,3.1482,3.1482,3.1482,3.1482,3.1482,3.1482,3.1482,3.1482,3.1482,3.1482,2.4679,2.5115,2.5486,2.5615,2.6971,2.8281,2.8256,2.946,3.0606,3.0606,3.0481,3.0398,3.0398,3.0299,3.015,3.0013,2.9829,2.9626,2.9414,2.9267,2.9156,2.9017,2.8797,2.8771,2.8989,2.8847,2.8869,2.9251,2.8763,2.8528,2.8718,2.8219,2.7681,2.721,2.6904,2.6509,2.6013,2.6091,2.6273,2.6587,2.6931,2.711,2.7034,2.6283,2.5287,2.4208,2.4279,2.406,2.3649,2.3245,2.3078,2.3078,2.3078,2.3078,2.3115,2.3477,2.359,2.3627,2.3916,2.4017,2.4017,2.4017,2.4017,2.4017,2.4017,2.4017,2.4079,2.4438,2.4518,2.4545,2.5179,2.5563,2.5897,2.6554,2.6591,2.6589,2.6973,2.7417,2.7802,2.8247,2.8684,2.9002,2.9002,2.9002,2.9129,2.9566,2.9628,2.9766,3.0269,3.0644,3.1029,3.1467,3.1482,3.1482,3.1482,3.1482,3.1482,3.1482,3.1482,3.1482,3.1482,3.1482,3.1482,3.1482,3.1482,3.1482,3.1482,3.1482,3.1482,3.1482,3.1482,3.1482,2.483,2.5156,2.5364,2.5622,2.6894,2.8125,2.8262,2.9386,3.0442,3.0567,3.0481,3.0398,3.0398,3.0398,3.0323,3.0122,3.0028,2.9877,2.9494,2.9414,2.931,2.904,2.8994,2.8863,2.854,2.8496,2.8496,2.8496,2.7833,2.753,2.7869,2.7147,2.6315,2.5486,2.5837,2.5591,2.4684,2.5183,2.5719,2.6258,2.6482,2.6618,2.6669,2.6669,2.6229,2.5342,2.4738,2.4408,2.4234,2.3424,2.3078,2.3078,2.3078,2.3078,2.3078,2.3078,2.3078,2.3078,2.3078,2.3078,2.3078,2.3078,2.3185,2.3305,2.3305,2.3424,2.3649,2.4279,2.4354,2.4394,2.5123,2.5601,2.6091,2.6751,2.6857,2.6979,2.7776,2.8051,2.8363,2.9066,2.9317,2.9442,2.9442,2.9442,2.969,3.0389,3.0524,3.0524,3.0524,3.1087,3.1482,3.1482,3.1482,3.1482,3.1482,3.1482,3.1482,3.1482,3.1482,3.1482,3.1482,3.1482,3.1482,3.1482,3.1482,3.1482,3.1482,3.1482,3.1482,3.1482,3.1482,3.1482,2.4229,2.4763,2.5364,2.5622,2.6445,2.7363,2.8125,2.8994,2.9835,3.0461,3.0481,3.0398,3.0398,3.0398,3.0398,3.0355,3.015,2.9924,2.9696,2.9513,2.931,2.904,2.8994,2.8994,2.8929,2.8929,2.8929,2.8929,2.8228,2.784,2.7897,2.7147,2.6657,2.6505,2.5733,2.5272,2.5132,2.4856,2.4761,2.4896,2.6048,2.6882,2.7458,2.7458,2.6707,2.5398,2.5287,2.4908,2.4234,2.3424,2.3078,2.3078,2.3078,2.3078,2.3078,2.3078,2.3078,2.3078,2.3078,2.3078,2.3078,2.3078,2.3603,2.4118,2.4118,2.4567,2.5119,2.5231,2.523,2.5365,2.5942,2.6133,2.6325,2.684,2.7394,2.7993,2.8702,2.9442,3.0011,3.0072,3.0703,3.1161,3.1161,3.1161,3.1219,3.1351,3.1351,3.1351,3.1351,3.1409,3.1482,3.1482,3.1482,3.1482,3.1482,3.1482,3.1482,3.1482,3.1482,3.1482,3.1482,3.1482,3.1482,3.1482,3.1482,3.1482,3.1482,3.1482,3.1482,3.1482,3.1482,3.1482,2.4381,2.4826,2.524,2.5515,2.6273,2.7161,2.806,2.8904,2.9712,3.0494,3.0559,3.0451,3.0402,3.0398,3.0398,3.0398,3.0299,3.0095,2.9748,2.9607,2.9435,2.9044,2.8994,2.8994,2.8994,2.8994,2.8994,2.8994,2.8326,2.7897,2.7897,2.7147,2.659,2.6332,2.5598,2.5067,2.4736,2.4295,2.4253,2.4597,2.5959,2.6737,2.7036,2.7445,2.724,2.6602,2.6229,2.5837,2.5453,2.4711,2.4163,2.3767,2.3767,2.3767,2.3767,2.3767,2.4047,2.4323,2.3943,2.3767,2.3708,2.3258,2.3649,2.4292,2.4292,2.4851,2.5508,2.5906,2.5728,2.5578,2.6174,2.6355,2.651,2.7103,2.7826,2.8511,2.9204,2.9824,3.045,3.0896,3.1278,3.1482,3.1482,3.1482,3.1482,3.1482,3.1482,3.1482,3.1482,3.1482,3.1482,3.1482,3.1482,3.1482,3.1482,3.1482,3.1482,3.1482,3.1482,3.1482,3.1482,3.1482,3.1482,3.1482,3.1482,3.1482,3.1482,3.1482,3.1482,3.1482,3.1482,3.1482,2.4573,2.4885,2.5101,2.5369,2.5983,2.6783,2.7671,2.8534,2.9402,3.0231,3.0472,3.0529,3.0462,3.0417,3.0398,3.0398,3.0398,3.0241,2.9848,2.9763,2.9643,2.9228,2.9138,2.9089,2.9089,2.904,2.8994,2.8994,2.8326,2.7897,2.7897,2.7147,2.6556,2.6191,2.5689,2.5144,2.4632,2.3964,2.3939,2.4597,2.5615,2.6273,2.6602,2.7096,2.746,2.756,2.6826,2.651,2.6457,2.5673,2.5063,2.4567,2.4567,2.4567,2.4567,2.4567,2.4951,2.5342,2.4794,2.4567,2.4452,2.3872,2.4221,2.4851,2.4851,2.5384,2.6054,2.6602,2.6375,2.6108,2.6669,2.6774,2.6905,2.7423,2.8075,2.8831,2.9639,3.0085,3.0573,3.1379,3.1482,3.1482,3.1482,3.1482,3.1482,3.1482,3.1482,3.1482,3.1482,3.1482,3.1482,3.1482,3.1482,3.1482,3.1482,3.1482,3.1482,3.1482,3.1482,3.1482,3.1482,3.1482,3.1482,3.1482,3.1482,3.1482,3.1482,3.1482,3.1482,3.1482,3.1482,3.1482,2.4535,2.4714,2.4881,2.5155,2.5407,2.5823,2.6746,2.7637,2.851,2.9379,3.0164,3.0673,3.0606,3.0491,3.0398,3.0398,3.0398,3.0299,3.0013,2.9984,2.9908,2.9696,2.9494,2.9392,2.9392,2.9156,2.8994,2.8994,2.8326,2.7897,2.7897,2.7147,2.6691,2.6657,2.621,2.5689,2.5182,2.4116,2.3939,2.4582,2.4657,2.539,2.6587,2.6632,2.6976,2.756,2.6826,2.651,2.6457,2.5673,2.5398,2.5342,2.5342,2.5342,2.5342,2.5342,2.5342,2.5398,2.5342,2.5342,2.5342,2.5287,2.5783,2.6404,2.6404,2.693,2.7509,2.7509,2.7524,2.7509,2.7509,2.756,2.7524,2.7619,2.8128,2.8936,3.0178,3.0451,3.069,3.1347,3.1482,3.1482,3.1482,3.1482,3.1482,3.1482,3.1482,3.1482,3.1482,3.1482,3.1482,3.1482,3.1482,3.1482,3.1482,3.1482,3.1482,3.1482,3.1482,3.1482,3.1482,3.1482,3.1482,3.1482,3.1482,3.1482,3.1482,3.1482,3.1482,3.1482,3.1482,3.1482,2.4472,2.467,2.4841,2.5018,2.5266,2.5661,2.6571,2.7086,2.7778,2.9197,2.9721,3.0086,3.0576,3.0547,3.0453,3.0453,3.0428,3.0311,3.0028,2.9999,2.9924,2.9712,2.9532,2.9412,2.9412,2.9156,2.8994,2.8994,2.8533,2.8129,2.7926,2.7378,2.6971,2.6725,2.6227,2.5577,2.4712,2.4307,2.4043,2.3969,2.4418,2.5091,2.5974,2.6393,2.6946,2.7575,2.7306,2.7203,2.7203,2.6916,2.6549,2.6122,2.6122,2.6122,2.6122,2.6122,2.639,2.6759,2.6283,2.6122,2.6014,2.5563,2.5906,2.651,2.651,2.7049,2.7625,2.7625,2.7625,2.7625,2.7625,2.7625,2.7625,2.7625,2.7754,2.8188,2.9086,2.9609,3.0103,3.0746,3.0866,3.1016,3.1465,3.1482,3.1482,3.1482,3.1482,3.1482,3.1482,3.1482,3.1482,3.1482,3.1482,3.1482,3.1482,3.1482,3.1482,3.1482,3.1482,3.1482,3.1482,3.1482,3.1482,3.1482,3.1482,3.1482,3.1482,3.1482,3.1482,3.1482,3.1482,3.1482,2.4528,2.47,2.4828,2.4962,2.5168,2.553,2.6146,2.6588,2.7293,2.8797,2.9336,2.9793,3.0613,3.0652,3.0547,3.0516,3.0462,3.0356,3.0163,3.0136,3.0075,2.9943,2.968,2.9494,2.9494,2.9203,2.8994,2.8994,2.8633,2.8298,2.8075,2.7589,2.7115,2.6725,2.6227,2.5577,2.4672,2.4672,2.4389,2.3879,2.4306,2.488,2.5561,2.6053,2.6617,2.726,2.752,2.7625,2.7625,2.7625,2.7306,2.6878,2.6878,2.6878,2.6878,2.6878,2.7203,2.7524,2.7034,2.6878,2.6774,2.6322,2.6496,2.6878,2.6878,2.7188,2.7625,2.7625,2.7625,2.7625,2.7625,2.7625,2.7625,2.7625,2.7625,2.7694,2.8158,2.8786,2.9445,3.0073,3.0193,3.0402,3.1076,3.118,3.127,3.1437,3.1482,3.1482,3.1482,3.1482,3.1482,3.1482,3.1482,3.1482,3.1482,3.1482,3.1482,3.1482,3.1482,3.1482,3.1482,3.1482,3.1482,3.1482,3.1482,3.1482,3.1482,3.1482,3.1482,3.1482,3.1482,3.1482,0.0,0.0,0.0,2.4962,2.5152,2.533,2.549,2.6194,2.7086,2.8123,2.9004,2.9863,3.0742,3.0792,3.0665,3.0529,3.0507,3.0472,3.0414,3.041,3.0398,3.0398,2.9992,2.9696,2.9696,2.9272,2.8994,2.8994,2.8633,2.8402,2.8394,2.7689,2.7115,2.6725,2.6262,2.5762,2.5221,2.5221,2.495,2.4389,2.4389,2.472,2.5388,2.55,2.5959,2.6632,2.726,2.761,2.7625,2.7625,2.7625,2.7625,2.7625,2.7625,2.7625,2.7625,2.7625,2.7625,2.7625,2.7625,2.7625,2.7625,2.7625,2.7625,2.7625,2.7625,2.7625,2.7625,2.7625,2.7625,2.7625,2.7625,2.7625,2.7625,2.7625,2.7625,2.7625,2.8098,2.8771,2.943,2.9549,2.9759,3.0387,3.0507,3.0731,3.1377,3.1482,3.1482,3.1482,3.1482,3.1482,3.1482,3.1482,3.1482,3.1482,3.1482,3.1482,3.1482,3.1482,3.1482,3.1482,3.1482,3.1482,3.1482,3.1482,3.1482,3.1497,3.1497,3.1497,3.1482,3.1482,3.1482,2.4731,0.0,0.0,0.0,0.0,0.0,2.6148,2.6513,2.7188,2.8777,2.9325,2.9816,3.0722,3.0792,3.0687,3.0661,3.0561,3.049,3.0472,3.0439,3.0398,3.0398,2.9992,2.9696,2.9696,2.9272,2.8994,2.8994,2.8905,2.8725,2.842,2.7689,2.7115,2.6725,2.659,2.6245,2.5762,2.5762,2.5297,2.4389,2.4389,2.4568,2.4836,2.4852,2.5525,2.6602,2.6782,2.7126,2.7625,2.7625,2.7625,2.7625,2.7625,2.7625,2.7625,2.7625,2.7625,2.7625,2.7625,2.7625,2.7625,2.7625,2.7625,2.7625,2.7625,2.7625,2.7625,2.7625,2.7625,2.7625,2.7625,2.7625,2.7625,2.7625,2.7625,2.7625,2.7625,2.7775,2.8053,2.8742,2.8876,2.922,3.0313,3.0507,3.0731,3.1377,3.1482,3.1482,3.1482,3.1482,3.1482,3.1482,3.1482,3.1482,3.1482,3.1482,3.1482,3.1482,3.1482,3.1482,3.1482,3.1482,3.1482,3.1482,3.1482,3.1764,3.2243,3.2243,3.2003,3.1482,3.1482,3.1482,0.0,0.0,0.0,2.5099,0.0,0.0,2.647,2.6706,2.7264,2.9094,2.9511,2.9818,3.0723,3.0837,3.0772,3.0772,3.0661,3.0561,3.0516,3.0441,3.0398,3.0398,3.0066,2.9796,2.9713,2.9375,2.9112,2.9017,2.8994,2.8749,2.821,2.7794,2.7303,2.6725,2.6691,2.647,2.5997,2.6175,2.5746,2.4736,2.4736,2.4647,2.4529,2.4567,2.5046,2.5809,2.6363,2.6811,2.7186,2.7455,2.7625,2.7625,2.7625,2.7625,2.7625,2.7625,2.7625,2.7625,2.7625,2.7625,2.7625,2.7625,2.7625,2.7625,2.7625,2.7625,2.7625,2.7625,2.7625,2.7625,2.7625,2.7625,2.7625,2.7625,2.7625,2.7625,2.7625,2.7625,2.7745,2.8098,2.8173,2.8592,2.9894,3.0118,3.0447,3.1332,3.1482,3.1482,3.1482,3.1482,3.1482,3.1482,3.1482,3.1482,3.1482,3.1482,3.1482,3.1482,3.1482,3.1482,3.1482,3.1482,3.1482,3.1482,3.1482,3.1988,3.2916,3.2647,3.2317,3.1943,3.1943,3.1794,0.0,0.0,0.0,2.5398,2.5514,0.0,2.6825,2.7048,2.7556,2.9327,2.9703,2.9939,3.0721,3.0879,3.0879,3.0879,3.0771,3.0648,3.0529,3.0442,3.0402,3.041,3.0136,2.9893,2.9731,2.9494,2.9246,2.9017,2.8994,2.8676,2.7954,2.7897,2.753,2.6725,2.6691,2.6505,2.6085,2.647,2.6245,2.5297,2.5221,2.491,2.4405,2.4472,2.4507,2.4642,2.5869,2.6452,2.6632,2.7215,2.75,2.7625,2.7625,2.7625,2.7625,2.7625,2.7625,2.7625,2.7625,2.7625,2.7625,2.7625,2.7625,2.7625,2.7625,2.7625,2.7625,2.7625,2.7625,2.7625,2.7625,2.7625,2.7625,2.7625,2.7625,2.7625,2.7625,2.7625,2.7625,2.7625,2.7625,2.8045,2.9355,2.9579,3.0028,3.1345,3.1482,3.1482,3.1482,3.1482,3.1482,3.1482,3.1482,3.1482,3.1482,3.1482,3.1482,3.1482,3.1482,3.1482,3.1482,3.1482,3.1482,3.1482,3.1541,3.2258,3.3499,3.2901,3.2617,3.2617,3.2542,3.2153,0.0,0.0,2.6301,2.6341,2.6871,0.0,2.8463,2.8647,2.8965,3.0079,3.0321,3.04,3.0619,3.0667,3.0683,3.0728,3.0629,3.0559,3.0575,3.0513,3.0462,3.0421,3.0022,2.9729,2.9713,2.9314,2.9062,2.9017,2.8994,2.8676,2.7954,2.7897,2.753,2.6725,2.6691,2.6657,2.6539,2.6657,2.6401,2.5852,2.5411,2.491,2.4405,2.3973,2.4103,2.4597,2.4896,2.5615,2.6602,2.6722,2.7096,2.7625,2.7625,2.7625,2.7625,2.7625,2.7625,2.7625,2.7625,2.7625,2.7625,2.7625,2.7625,2.7625,2.7625,2.7625,2.7625,2.7625,2.7625,2.7625,2.7625,2.7625,2.7625,2.7625,2.7625,2.7625,2.7625,2.7625,2.7625,2.7625,2.7625,2.8045,2.9355,2.9579,3.0028,3.1345,3.1482,3.1482,3.1482,3.1482,3.1482,3.1482,3.1482,3.1482,3.1482,3.1482,3.1482,3.1482,3.1482,3.1482,3.1482,3.1482,3.1482,3.1482,3.2048,3.2706,3.3499,3.3365,3.3305,3.329,3.2766,3.2153,2.6655,2.6928,2.7255,2.7255,2.7582,0.0,0.0,2.9159,2.9419,3.0362,3.0575,3.0617,3.0633,3.0708,3.0761,3.0795,3.0699,3.0461,3.0107,3.0277,3.043,3.039,3.008,2.9813,2.9713,2.9395,2.9156,2.9017,2.8994,2.8676,2.7954,2.7897,2.753,2.6725,2.6691,2.6691,2.6691,2.6691,2.647,2.6013,2.5726,2.5335,2.4776,2.4511,2.4425,2.4539,2.5133,2.5628,2.6093,2.7057,2.7674,2.7921,2.7674,2.776,2.7993,2.771,2.7625,2.7625,2.7625,2.7625,2.7625,2.7625,2.7625,2.7625,2.7625,2.7625,2.7625,2.7625,2.7625,2.7625,2.7625,2.7625,2.7625,2.7625,2.7625,2.7625,2.7625,2.7625,2.7625,2.7625,2.7844,2.8412,2.9415,2.9834,3.0387,3.1317,3.1482,3.1482,3.1482,3.1482,3.1482,3.1482,3.1482,3.1482,3.1482,3.1482,3.1482,3.1482,3.1482,3.1482,3.1482,3.1482,3.1482,3.1482,3.2183,3.2677,3.3006,3.3335,3.3499,3.3484,3.3155,3.2482,2.7907,2.8005,2.8121,2.8121,2.8255,2.8576,0.0,0.0,0.0,3.0425,3.0614,3.0673,3.068,3.0788,3.082,3.0644,3.0538,3.0164,2.9324,2.9633,2.9943,2.9943,2.9805,2.9589,2.9259,2.8988,2.8836,2.876,2.8778,2.8512,2.7936,2.7897,2.753,2.6725,2.6691,2.6691,2.6691,2.6691,2.6505,2.612,2.6033,2.5762,2.5335,2.5259,2.4973,2.4623,2.5592,2.5819,2.5679,2.7402,2.8265,2.8458,2.7962,2.8091,2.8431,2.781,2.7625,2.7625,2.7625,2.7625,2.7625,2.7625,2.7675,2.776,2.776,2.776,2.776,2.776,2.776,2.781,2.7894,2.7944,2.7944,2.7944,2.7944,2.7894,2.781,2.776,2.776,2.7625,2.8372,2.9094,2.9544,3.0088,3.0731,3.1377,3.1482,3.1482,3.1482,3.1482,3.1482,3.1482,3.1482,3.1482,3.1482,3.1482,3.1482,3.1482,3.1482,3.1482,3.1482,3.1482,3.1482,3.1482,3.2063,3.2392,3.2512,3.3036,3.3305,3.3305,3.3305,3.2677,2.8082,2.8409,2.8948,2.8948,2.9544,3.014,3.0229,0.0,3.0304,3.0479,0.0,3.0545,3.0606,0.0,0.0,2.9706,2.9602,2.9281,2.83,2.8233,2.8277,2.8277,2.8517,2.8366,2.7563,2.7139,2.7206,2.7879,2.7934,2.7931,2.789,2.7897,2.753,2.6725,2.6691,2.6691,2.6691,2.6691,2.6657,2.6624,2.6191,2.5961,2.5888,2.5411,2.5182,2.5105,2.5262,2.5639,2.6172,2.7045,2.8068,2.905,2.859,2.8415,2.8431,2.781,2.7625,2.7625,2.7625,2.7625,2.7625,2.7625,2.7944,2.8383,2.8383,2.8383,2.8383,2.8383,2.8383,2.8511,2.9042,2.918,2.918,2.918,2.918,2.9042,2.8511,2.8383,2.8238,2.771,2.9098,3.0191,2.9657,3.0088,3.0731,3.1377,3.1482,3.1482,3.1482,3.1482,3.1482,3.1482,3.1482,3.1482,3.1482,3.1482,3.1482,3.1482,3.1482,3.1482,3.1482,3.1482,3.1482,3.1482,3.1541,3.1928,3.2512,3.2587,3.2617,3.2617,3.2617,3.2228,2.9448,2.9602,2.9855,2.9902,3.0192,3.0472,3.0507,3.0524,3.0513,3.054,0.0,0.0,0.0,0.0,0.0,0.0,2.9472,2.8953,2.7556,2.7695,2.7933,2.7933,2.7937,2.768,2.7078,2.6782,2.6741,2.709,2.753,2.7622,2.7225,2.7667,2.753,2.6725,2.6691,2.6691,2.6691,2.6691,2.6691,2.6691,2.6505,2.6401,2.6401,2.6158,2.5908,2.5689,2.5944,2.6089,2.6173,2.7196,2.8168,2.9087,2.8939,2.8949,2.9012,2.8717,2.84,2.8174,2.8543,2.8622,2.8622,2.8622,2.8826,2.9012,2.9012,2.9012,2.9012,2.9012,2.9012,2.9088,2.9316,2.9406,2.9406,2.9406,2.9134,2.8919,2.9012,2.8732,2.8667,2.9169,3.0272,3.1173,3.131,3.1543,3.1824,3.213,3.1796,3.1482,3.1482,3.1482,3.1482,3.1482,3.1482,3.1482,3.1482,3.1482,3.1482,3.1482,3.1482,3.1482,3.1482,3.1482,3.1482,3.1482,3.1482,3.1616,3.1943,3.1943,3.1943,3.1958,3.2332,3.2153,3.0398,3.0414,3.0441,3.05,3.0505,3.0545,3.0594,3.0606,3.0611,3.0614,3.0673,0.0,0.0,0.0,0.0,0.0,0.0,2.8184,2.666,2.6912,2.721,2.721,2.6955,2.659,2.6191,2.6016,2.6025,2.6245,2.6814,2.7022,2.6702,2.725,2.729,2.6725,2.6691,2.6691,2.6691,2.6691,2.6691,2.6691,2.6691,2.6691,2.6691,2.6691,2.6505,2.6227,2.6539,2.6505,2.6277,2.7363,2.8281,2.9042,2.9315,2.9526,2.9629,2.9451,2.9134,2.8826,2.9225,2.9406,2.9406,2.9585,2.9629,2.9629,2.9629,2.9629,2.9629,2.9629,2.9629,2.9673,2.9848,2.9892,2.9892,2.9892,2.954,2.9316,2.9585,2.9316,2.9294,3.0286,3.1194,3.1998,3.2757,3.274,3.2586,3.2586,3.1951,3.1482,3.1482,3.1482,3.1482,3.1482,3.1482,3.1482,3.1482,3.1482,3.1482,3.1482,3.1482,3.1482,3.1482,3.1482,3.1482,3.1482,3.1482,3.1482,3.1482,3.1482,3.1482,3.1482,3.2018,3.1988,3.0398,3.0451,3.0498,3.0498,3.0559,3.06,3.0606,3.0606,3.0628,3.0684,3.0693,3.0743,3.0878,0.0,0.0,0.0,0.0,0.0,0.0,2.5432,2.5476,2.5483,2.5134,2.4729,2.432,2.4281,2.4593,2.5384,2.5458,2.5819,2.6649,2.6727,2.6737,2.6708,2.6691,2.6691,2.6691,2.6691,2.6691,2.6691,2.6691,2.6691,2.6691,2.6691,2.6691,2.6691,2.6691,2.6691,2.6759,2.7468,2.8281,2.9059,2.9783,3.0162,3.0208,2.9629,2.9406,2.9361,2.9406,2.9406,2.9496,3.0081,3.0251,3.0251,3.0251,3.0251,3.0251,3.0251,3.0251,3.0393,3.1015,3.1151,3.1151,3.1151,3.1151,3.0975,3.0393,3.0251,3.0277,3.0486,3.1564,3.271,3.3436,3.3016,3.2586,3.2586,3.1951,3.1482,3.1482,3.1482,3.1482,3.1482,3.1482,3.1482,3.1482,3.1482,3.1482,3.1482,3.1482,3.1482,3.1482,3.1482,3.1482,3.1482,3.1482,3.1482,3.1482,3.1482,3.1482,3.1482,3.1497,3.1497,3.0398,3.0462,3.0516,3.0567,3.0623,3.07,3.0782,3.0806,3.081,3.0835,3.0836,3.0857,3.0898,0.0,0.0,0.0,0.0,0.0,0.0,2.5236,2.5042,2.4834,2.4693,2.4561,2.441,2.4266,2.43,2.4575,2.4889,2.5306,2.5879,2.6188,2.6463,2.6691,2.6691,2.6691,2.6691,2.6691,2.6691,2.6691,2.6691,2.6691,2.6691,2.6691,2.6691,2.6691,2.6691,2.6691,2.6708,2.6962,2.7824,2.9008,2.9262,2.9993,3.0878,3.0658,3.0335,3.0038,3.0435,3.0601,3.0601,3.0838,3.0878,3.0878,3.0878,3.0878,3.0878,3.0878,3.0878,3.0918,3.1151,3.119,3.119,3.119,3.0878,3.0658,3.0838,3.0983,3.1302,3.222,3.3188,3.4074,3.4813,3.4379,3.3786,3.3339,3.2256,3.1482,3.1482,3.1482,3.1482,3.1482,3.1482,3.1482,3.1482,3.1482,3.1482,3.1482,3.1482,3.1482,3.1482,3.1482,3.1482,3.1482,3.1482,3.1482,3.1482,3.1482,3.1482,3.1482,3.1482,3.1482,3.0398,3.0472,3.0552,3.0594,3.0693,3.0793,3.0879,3.0898,3.0898,3.0898,3.0898,3.0898,3.0898,0.0,0.0,0.0,0.0,0.0,0.0,2.5072,2.4823,2.4526,2.4495,2.4478,2.441,2.4266,2.419,2.419,2.4369,2.4759,2.5473,2.5673,2.6065,2.6691,2.6691,2.6691,2.6691,2.6691,2.6691,2.6691,2.6691,2.6691,2.6691,2.6691,2.6691,2.6691,2.6691,2.6691,2.6691,2.6691,2.7604,2.9011,2.9011,2.9888,3.119,3.119,3.0958,3.0658,3.1055,3.119,3.119,3.119,3.119,3.119,3.119,3.119,3.114,3.0886,3.1004,3.114,3.0869,3.1004,3.119,3.119,3.0878,3.0807,3.1432,3.1674,3.2109,3.3507,3.4167,3.4726,3.5487,3.5052,3.4382,3.3684,3.261,3.191,3.191,3.191,3.191,3.191,3.191,3.1796,3.1524,3.1482,3.1482,3.1482,3.1482,3.1482,3.1482,3.1482,3.1482,3.1482,3.1482,3.1482,3.1482,3.1482,3.1482,3.1482,3.1482,3.1482]}]]